[[{"header":{"parameterUnit":"m.s-1","parameterCategory":1,"la1":31.0,"la2":29.5877,"lo1":-88.7671,"lo2":-86.6584,"dy":0.0162,"dx":0.0185,"nx":115,"ny":88,"refTime":"2024-08-28T06:00:00:Z","depth":0,"parameterNumber":2,"parameterNumberName":"U-component_of_WINDS"},"data":[0.0,0.0,0.0,0.0,0.0,0.0,0.0,0.0,0.0,0.0,0.0,0.0,0.0,0.0,0.0,0.0,0.0,0.0,0.0,0.0,0.0,0.0,0.0,0.0,0.0,0.0,0.0,0.0,0.0,0.0,0.0,0.0,0.0,0.0,0.0,0.0,0.0,0.0,0.0,0.0,0.0,0.0,0.0,0.0,0.0,0.0,0.0,0.0,0.0,0.0,0.0,0.0,0.0,0.0,0.0,0.0,0.0,0.0,0.0,0.0,0.0,0.0,0.0,0.0,0.0,0.0,0.0,0.0,0.0,0.0,0.0,0.0,0.0,0.0,0.0,0.0,0.0,0.0,0.0,0.0,0.0,0.0,0.0,0.0,0.0,0.0,0.0,0.0,0.0,0.0,0.0,0.0,0.0,0.0,0.0,0.0,0.0,0.0,0.0,0.0,0.0,0.0,0.0,0.0,0.0,0.0,0.0,0.0,0.0,0.0,0.0,0.0,0.0,0.0,0.0,0.0,0.0,0.0,0.0,0.0,0.0,0.0,0.0,0.0,0.0,0.0,0.0,0.0,0.0,0.0,0.0,0.0,0.0,0.0,0.0,0.0,0.0,0.0,0.0,0.0,0.0,0.0,0.0,0.0,0.0,0.0,0.0,0.0,0.0,0.0,0.0,0.0,0.0,0.0,0.0,0.0,0.0,0.0,0.0,0.0,0.0,0.0,0.0,0.0,0.0,0.0,0.0,0.0,0.0,0.0,0.0,0.0,0.0,0.0,0.0,0.0,0.0,0.0,0.0,0.0,0.0,0.0,0.0,0.0,0.0,0.0,0.0,0.0,0.0,0.0,0.0,0.0,0.0,0.0,0.0,0.0,0.0,0.0,0.0,0.0,0.0,0.0,0.0,0.0,0.0,0.0,0.0,0.0,0.0,0.0,0.0,0.0,0.0,0.0,0.0,0.0,0.0,0.0,0.0,0.0,0.0,0.0,0.0,0.0,0.0,0.0,0.0,0.0,0.0,0.0,0.0,0.0,0.0,0.0,0.0,0.0,0.0,0.0,0.0,0.0,0.0,0.0,0.0,0.0,0.0,0.0,0.0,0.0,0.0,0.0,0.0,0.0,0.0,0.0,0.0,0.0,0.0,0.0,0.0,0.0,0.0,0.0,0.0,0.0,0.0,0.0,0.0,0.0,0.0,0.0,0.0,0.0,0.0,0.0,0.0,0.0,0.0,0.0,0.0,0.0,0.0,0.0,0.0,0.0,0.0,0.0,0.0,0.0,0.0,0.0,0.0,0.0,0.0,0.0,0.0,0.0,0.0,0.0,0.0,0.0,0.0,0.0,0.0,0.0,0.0,0.0,0.0,0.0,0.0,0.0,0.0,0.0,0.0,0.0,0.0,0.0,0.0,0.0,0.0,0.0,0.0,0.0,0.0,0.0,0.0,0.0,0.0,0.0,0.0,0.0,0.0,0.0,0.0,0.0,0.0,0.0,0.0,0.0,0.0,0.0,0.0,0.0,0.0,0.0,0.0,0.0,0.0,0.0,0.0,0.0,0.0,0.0,0.0,0.0,0.0,0.0,0.0,0.0,0.0,0.0,0.0,0.0,0.0,0.0,0.0,0.0,0.0,0.0,0.0,0.0,0.0,0.0,0.0,0.0,0.0,0.0,0.0,0.0,0.0,0.0,0.0,0.0,0.0,0.0,0.0,0.0,0.0,0.0,0.0,0.0,0.0,0.0,0.0,0.0,0.0,0.0,0.0,0.0,0.0,0.0,0.0,0.0,0.0,0.0,0.0,0.0,0.0,0.0,0.0,0.0,0.0,0.0,0.0,0.0,0.0,0.0,0.0,0.0,0.0,0.0,0.0,0.0,0.0,0.0,0.0,0.0,0.0,0.0,0.0,0.0,0.0,0.0,0.0,0.0,0.0,0.0,0.0,0.0,0.0,0.0,0.0,0.0,0.0,0.0,0.0,0.0,0.0,0.0,0.0,0.0,0.0,0.0,0.0,0.0,0.0,0.0,0.0,0.0,0.0,0.0,0.0,0.0,0.0,0.0,0.0,0.0,0.0,0.0,0.0,0.0,0.0,0.0,0.0,0.0,0.0,0.0,0.0,0.0,0.0,0.0,0.0,0.0,0.0,0.0,0.0,0.0,0.0,0.0,0.0,0.0,0.0,0.0,0.0,0.0,0.0,0.0,0.0,0.0,0.0,0.0,0.0,0.0,0.0,0.0,0.0,0.0,0.0,0.0,0.0,0.0,0.0,0.0,0.0,0.0,0.0,0.0,0.0,0.0,0.0,0.0,0.0,0.0,0.0,0.0,0.0,0.0,0.0,0.0,0.0,0.0,0.0,0.0,0.0,0.0,0.0,0.0,0.0,0.0,0.0,0.0,0.0,0.0,0.0,0.0,0.0,0.0,0.0,0.0,0.0,0.0,0.0,0.0,0.0,0.0,0.0,0.0,0.0,0.0,0.0,0.0,0.0,0.0,0.0,0.0,0.0,0.0,0.0,0.0,0.0,0.0,0.0,0.0,0.0,0.0,0.0,0.0,0.0,0.0,0.0,0.0,0.0,0.0,0.0,0.0,0.0,0.0,0.0,0.0,0.0,0.0,0.0,0.0,0.0,0.0,0.0,0.0,0.0,0.0,0.0,0.0,0.0,0.0,0.0,0.0,0.0,0.0,0.0,0.0,0.0,0.0,0.0,0.0,0.0,0.0,0.0,0.0,0.0,0.0,0.0,0.0,0.0,0.0,0.0,0.0,0.0,0.0,0.0,0.0,0.0,0.0,0.0,0.0,0.0,0.0,0.0,0.0,0.0,0.0,0.0,0.0,0.0,0.0,0.0,0.0,0.0,0.0,0.0,0.0,0.0,0.0,0.0,0.0,0.0,0.0,0.0,0.0,0.0,0.0,0.0,0.0,0.0,0.0,0.0,0.0,0.0,0.0,0.0,0.0,0.0,0.0,0.0,0.0,0.0,0.0,0.0,0.0,0.0,0.0,0.0,0.0,0.0,0.0,0.0,0.0,0.0,0.0,0.0,0.0,0.0,0.0,0.0,0.0,0.0,0.0,0.0,0.0,0.0,0.0,0.0,0.0,0.0,0.0,0.0,0.0,0.0,0.0,0.0,0.0,0.0,0.0,0.0,0.0,0.0,0.0,0.0,0.0,0.0,0.0,0.0,0.0,0.0,0.0,0.0,0.0,0.0,0.0,0.0,0.0,0.0,0.0,0.0,0.0,0.0,0.0,0.0,0.0,0.0,0.0,0.0,0.0,0.0,0.0,0.0,0.0,0.0,0.0,0.0,0.0,0.0,0.0,0.0,0.0,0.0,0.0,0.0,0.0,0.0,0.0,0.0,0.0,0.0,0.0,0.0,0.0,0.0,0.0,0.0,0.0,0.0,0.0,0.0,0.0,0.0,0.0,0.0,0.0,0.0,0.0,0.0,0.0,0.0,0.0,0.0,0.0,0.0,0.0,0.0,0.0,0.0,0.0,0.0,0.0,0.0,0.0,0.0,0.0,0.0,0.0,0.0,0.0,0.0,0.0,0.0,0.0,0.0,0.0,0.0,0.0,0.0,0.0,0.0,0.0,0.0,0.0,0.0,0.0,0.0,0.0,0.0,0.0,0.0,0.0,0.0,0.0,0.0,0.0,0.0,0.0,0.0,0.0,0.0,0.0,0.0,0.0,0.0,0.0,0.0,0.0,0.0,0.0,0.0,0.0,0.0,0.0,0.0,0.0,0.0,0.0,0.0,0.0,0.0,0.0,0.0,0.0,0.0,0.0,0.0,0.0,0.0,0.0,0.0,0.0,0.0,0.0,0.0,0.0,0.0,0.0,0.0,0.0,0.0,0.0,0.0,0.0,0.0,0.0,0.0,0.0,0.0,0.0,0.0,0.0,0.0,0.0,0.0,0.0,0.0,0.0,0.0,0.0,0.0,0.0,0.0,0.0,0.0,0.0,0.0,0.0,0.0,0.0,0.0,0.0,0.0,0.0,0.0,0.0,0.0,0.0,0.0,0.0,0.0,0.0,0.0,0.0,0.0,0.0,0.0,0.0,0.0,0.0,0.0,0.0,0.0,0.0,0.0,0.0,0.0,0.0,0.0,0.0,0.0,0.0,0.0,0.0,0.0,0.0,0.0,0.0,0.0,0.0,0.0,0.0,0.0,0.0,0.0,0.0,0.0,0.0,0.0,0.0,0.0,0.0,0.0,0.0,0.0,0.0,0.0,0.0,0.0,0.0,0.0,0.0,0.0,0.0,0.0,0.0,-3.2043,0.0,0.0,0.0,0.0,0.0,0.0,0.0,0.0,0.0,0.0,0.0,0.0,0.0,0.0,0.0,0.0,0.0,0.0,0.0,0.0,0.0,0.0,0.0,0.0,0.0,0.0,0.0,0.0,0.0,0.0,0.0,0.0,0.0,0.0,0.0,0.0,0.0,0.0,0.0,0.0,0.0,0.0,0.0,0.0,0.0,0.0,0.0,0.0,0.0,0.0,0.0,0.0,0.0,0.0,0.0,0.0,0.0,0.0,0.0,0.0,0.0,0.0,0.0,0.0,0.0,0.0,0.0,0.0,0.0,0.0,0.0,0.0,0.0,0.0,0.0,0.0,0.0,0.0,0.0,0.0,0.0,0.0,0.0,0.0,0.0,0.0,0.0,0.0,0.0,0.0,0.0,0.0,0.0,0.0,0.0,0.0,0.0,0.0,0.0,0.0,0.0,0.0,0.0,0.0,0.0,0.0,0.0,0.0,0.0,0.0,-3.5587,-3.5141,-3.5154,-3.4625,-3.341,0.0,0.0,0.0,0.0,0.0,0.0,0.0,0.0,0.0,0.0,0.0,0.0,0.0,0.0,0.0,0.0,0.0,0.0,0.0,0.0,0.0,0.0,0.0,0.0,0.0,0.0,0.0,0.0,0.0,0.0,0.0,0.0,0.0,0.0,0.0,0.0,0.0,0.0,0.0,0.0,0.0,0.0,0.0,0.0,0.0,0.0,0.0,0.0,0.0,0.0,0.0,0.0,0.0,0.0,0.0,0.0,0.0,0.0,0.0,0.0,0.0,0.0,0.0,0.0,0.0,0.0,0.0,0.0,0.0,0.0,0.0,0.0,0.0,0.0,0.0,0.0,0.0,0.0,0.0,0.0,0.0,0.0,0.0,0.0,0.0,0.0,0.0,0.0,0.0,0.0,0.0,0.0,0.0,0.0,0.0,0.0,0.0,0.0,0.0,0.0,0.0,0.0,0.0,0.0,0.0,0.0,0.0,0.0,0.0,0.0,0.0,0.0,-3.6162,-3.5488,-3.4253,0.0,0.0,0.0,0.0,0.0,0.0,0.0,0.0,0.0,0.0,0.0,0.0,0.0,0.0,0.0,0.0,0.0,0.0,0.0,0.0,0.0,0.0,0.0,0.0,0.0,0.0,0.0,0.0,0.0,0.0,0.0,0.0,0.0,0.0,0.0,0.0,0.0,0.0,0.0,0.0,0.0,0.0,0.0,0.0,0.0,0.0,0.0,0.0,0.0,0.0,0.0,0.0,0.0,0.0,0.0,0.0,0.0,0.0,0.0,0.0,0.0,0.0,0.0,0.0,0.0,0.0,0.0,0.0,0.0,0.0,0.0,0.0,0.0,0.0,0.0,0.0,0.0,0.0,0.0,0.0,0.0,0.0,0.0,0.0,0.0,0.0,0.0,0.0,0.0,0.0,0.0,0.0,0.0,0.0,0.0,0.0,0.0,0.0,0.0,0.0,0.0,0.0,0.0,0.0,0.0,0.0,0.0,0.0,0.0,0.0,-3.7322,-3.8015,-3.7346,0.0,-3.3572,0.0,0.0,0.0,0.0,0.0,0.0,0.0,0.0,0.0,0.0,0.0,0.0,0.0,0.0,0.0,0.0,0.0,0.0,0.0,0.0,0.0,0.0,0.0,0.0,0.0,0.0,0.0,0.0,0.0,0.0,0.0,0.0,0.0,0.0,0.0,0.0,0.0,0.0,0.0,0.0,0.0,0.0,0.0,0.0,0.0,0.0,0.0,0.0,0.0,0.0,0.0,0.0,0.0,0.0,0.0,0.0,0.0,0.0,0.0,0.0,0.0,0.0,0.0,0.0,0.0,0.0,0.0,0.0,0.0,0.0,0.0,0.0,0.0,0.0,0.0,0.0,0.0,0.0,0.0,0.0,0.0,0.0,0.0,0.0,0.0,0.0,0.0,0.0,0.0,0.0,0.0,0.0,0.0,0.0,0.0,0.0,0.0,0.0,0.0,0.0,0.0,0.0,0.0,0.0,0.0,0.0,0.0,0.0,0.0,0.0,-3.7938,-3.8287,-3.7534,-3.5897,0.0,0.0,0.0,0.0,0.0,0.0,0.0,0.0,0.0,0.0,0.0,0.0,0.0,0.0,0.0,0.0,0.0,0.0,0.0,0.0,0.0,0.0,0.0,0.0,0.0,0.0,0.0,0.0,0.0,0.0,0.0,0.0,0.0,0.0,0.0,0.0,0.0,0.0,0.0,0.0,0.0,0.0,0.0,0.0,0.0,0.0,0.0,0.0,0.0,0.0,0.0,0.0,0.0,0.0,0.0,0.0,0.0,0.0,0.0,0.0,0.0,0.0,0.0,0.0,0.0,0.0,0.0,0.0,0.0,0.0,0.0,0.0,0.0,0.0,0.0,0.0,0.0,0.0,0.0,0.0,0.0,0.0,0.0,0.0,0.0,0.0,0.0,0.0,0.0,0.0,0.0,0.0,0.0,0.0,0.0,0.0,0.0,0.0,0.0,0.0,0.0,0.0,0.0,0.0,0.0,0.0,0.0,0.0,0.0,0.0,-3.7904,-3.8433,-3.8641,-3.7897,-3.6258,-3.3738,0.0,0.0,0.0,0.0,0.0,0.0,0.0,0.0,0.0,0.0,0.0,0.0,0.0,0.0,0.0,0.0,0.0,0.0,0.0,0.0,0.0,0.0,0.0,0.0,0.0,0.0,0.0,0.0,0.0,0.0,0.0,0.0,0.0,0.0,0.0,0.0,0.0,0.0,0.0,0.0,0.0,0.0,0.0,0.0,0.0,0.0,0.0,0.0,0.0,0.0,0.0,0.0,0.0,0.0,0.0,0.0,0.0,0.0,0.0,0.0,0.0,0.0,0.0,0.0,0.0,0.0,0.0,0.0,0.0,0.0,0.0,0.0,0.0,0.0,0.0,0.0,0.0,0.0,0.0,0.0,0.0,0.0,0.0,0.0,0.0,0.0,0.0,0.0,0.0,0.0,0.0,0.0,0.0,0.0,0.0,0.0,0.0,0.0,0.0,0.0,0.0,0.0,0.0,0.0,0.0,0.0,0.0,0.0,-3.8066,-3.8263,-3.8738,-3.9577,-3.8812,-3.7141,0.0,0.0,0.0,0.0,0.0,0.0,0.0,0.0,0.0,0.0,0.0,0.0,0.0,0.0,0.0,0.0,0.0,0.0,0.0,0.0,0.0,0.0,0.0,0.0,0.0,0.0,0.0,0.0,0.0,0.0,0.0,0.0,0.0,0.0,0.0,0.0,0.0,0.0,0.0,0.0,0.0,0.0,0.0,0.0,0.0,0.0,0.0,0.0,0.0,0.0,0.0,0.0,0.0,0.0,0.0,0.0,0.0,0.0,0.0,0.0,0.0,0.0,0.0,0.0,0.0,0.0,0.0,0.0,0.0,0.0,0.0,0.0,0.0,0.0,0.0,0.0,0.0,0.0,0.0,0.0,0.0,0.0,0.0,0.0,0.0,0.0,0.0,0.0,0.0,0.0,0.0,0.0,0.0,0.0,0.0,0.0,0.0,0.0,0.0,0.0,0.0,0.0,0.0,0.0,0.0,0.0,0.0,0.0,0.0,-3.8106,-3.9303,-3.9835,-3.9686,-3.8852,-3.7198,0.0,0.0,0.0,0.0,0.0,0.0,0.0,0.0,0.0,0.0,0.0,0.0,0.0,0.0,0.0,0.0,0.0,0.0,0.0,0.0,0.0,0.0,0.0,0.0,0.0,0.0,0.0,0.0,0.0,0.0,0.0,0.0,0.0,0.0,0.0,0.0,0.0,0.0,0.0,0.0,0.0,0.0,0.0,0.0,0.0,0.0,0.0,0.0,0.0,0.0,0.0,0.0,0.0,0.0,0.0,0.0,0.0,0.0,0.0,0.0,0.0,0.0,0.0,0.0,0.0,0.0,0.0,0.0,0.0,0.0,0.0,0.0,0.0,0.0,0.0,0.0,0.0,0.0,0.0,0.0,0.0,0.0,0.0,0.0,0.0,0.0,0.0,0.0,0.0,0.0,0.0,0.0,0.0,0.0,0.0,0.0,0.0,0.0,0.0,0.0,0.0,0.0,0.0,0.0,0.0,0.0,0.0,0.0,0.0,-3.8537,0.0,-4.0626,0.0,-3.9,-3.7462,0.0,0.0,0.0,0.0,0.0,0.0,0.0,0.0,0.0,0.0,0.0,0.0,0.0,0.0,0.0,0.0,0.0,0.0,0.0,0.0,0.0,0.0,0.0,0.0,0.0,0.0,0.0,0.0,0.0,0.0,0.0,0.0,0.0,0.0,0.0,0.0,0.0,0.0,0.0,0.0,0.0,0.0,0.0,0.0,0.0,0.0,0.0,0.0,0.0,0.0,0.0,0.0,0.0,0.0,0.0,0.0,0.0,0.0,0.0,0.0,0.0,0.0,0.0,0.0,0.0,0.0,0.0,0.0,0.0,0.0,0.0,0.0,0.0,0.0,0.0,0.0,0.0,0.0,0.0,0.0,0.0,0.0,0.0,0.0,0.0,0.0,0.0,0.0,0.0,0.0,0.0,0.0,0.0,0.0,0.0,0.0,0.0,0.0,0.0,0.0,0.0,0.0,0.0,0.0,0.0,0.0,0.0,0.0,-3.7679,-3.9478,-4.0449,-4.0971,-4.0967,-3.935,-3.8022,0.0,0.0,0.0,0.0,0.0,0.0,0.0,0.0,0.0,0.0,0.0,0.0,0.0,0.0,0.0,0.0,0.0,0.0,0.0,0.0,0.0,0.0,0.0,0.0,0.0,0.0,0.0,0.0,0.0,0.0,0.0,0.0,0.0,0.0,0.0,0.0,0.0,0.0,0.0,0.0,0.0,0.0,0.0,0.0,0.0,0.0,0.0,0.0,0.0,0.0,0.0,0.0,0.0,0.0,0.0,0.0,0.0,0.0,0.0,0.0,0.0,0.0,0.0,0.0,0.0,0.0,0.0,0.0,0.0,0.0,0.0,0.0,0.0,0.0,0.0,0.0,0.0,0.0,0.0,0.0,0.0,0.0,0.0,0.0,0.0,0.0,0.0,0.0,0.0,0.0,0.0,0.0,0.0,0.0,0.0,0.0,0.0,0.0,0.0,0.0,0.0,0.0,0.0,0.0,0.0,0.0,0.0,0.0,0.0,-4.1171,-4.1534,-4.1752,-4.1775,-4.0206,-3.8656,0.0,0.0,0.0,0.0,0.0,0.0,0.0,0.0,0.0,0.0,0.0,0.0,0.0,0.0,0.0,0.0,0.0,0.0,0.0,0.0,0.0,0.0,0.0,0.0,0.0,0.0,0.0,0.0,0.0,0.0,0.0,0.0,0.0,0.0,0.0,0.0,0.0,0.0,0.0,0.0,0.0,0.0,0.0,0.0,0.0,0.0,0.0,0.0,0.0,0.0,0.0,0.0,0.0,0.0,0.0,0.0,0.0,0.0,0.0,0.0,0.0,0.0,0.0,0.0,0.0,0.0,0.0,0.0,0.0,0.0,0.0,0.0,0.0,0.0,0.0,0.0,0.0,0.0,0.0,0.0,0.0,0.0,0.0,0.0,0.0,0.0,0.0,0.0,0.0,0.0,0.0,0.0,0.0,0.0,0.0,0.0,0.0,0.0,0.0,0.0,0.0,0.0,0.0,0.0,0.0,0.0,0.0,0.0,0.0,-4.2377,-4.2505,-4.243,-4.2203,-4.0874,-3.9404,-3.7708,0.0,0.0,0.0,0.0,0.0,0.0,0.0,0.0,0.0,0.0,0.0,0.0,0.0,0.0,0.0,0.0,0.0,0.0,0.0,0.0,0.0,0.0,0.0,0.0,0.0,0.0,0.0,0.0,0.0,0.0,0.0,0.0,0.0,0.0,0.0,0.0,0.0,0.0,0.0,0.0,0.0,0.0,0.0,0.0,0.0,0.0,0.0,0.0,0.0,0.0,0.0,0.0,0.0,0.0,0.0,0.0,0.0,0.0,0.0,0.0,0.0,0.0,0.0,0.0,0.0,0.0,0.0,0.0,0.0,0.0,0.0,0.0,0.0,0.0,0.0,0.0,0.0,0.0,0.0,0.0,0.0,0.0,0.0,0.0,0.0,0.0,0.0,0.0,0.0,0.0,0.0,0.0,0.0,0.0,0.0,0.0,0.0,0.0,0.0,0.0,0.0,0.0,0.0,0.0,0.0,0.0,0.0,0.0,-4.3081,-4.3323,-4.31,-4.2388,-4.1522,-4.0279,0.0,0.0,0.0,0.0,0.0,0.0,0.0,0.0,0.0,0.0,0.0,0.0,0.0,0.0,0.0,0.0,0.0,0.0,0.0,0.0,0.0,0.0,0.0,0.0,0.0,0.0,0.0,0.0,0.0,0.0,0.0,0.0,0.0,0.0,0.0,0.0,0.0,0.0,0.0,0.0,0.0,0.0,0.0,0.0,0.0,0.0,0.0,0.0,0.0,0.0,0.0,0.0,0.0,0.0,0.0,0.0,0.0,0.0,0.0,0.0,0.0,0.0,0.0,0.0,0.0,0.0,0.0,0.0,0.0,0.0,0.0,0.0,0.0,0.0,0.0,0.0,0.0,0.0,0.0,0.0,0.0,0.0,0.0,0.0,0.0,0.0,0.0,0.0,0.0,0.0,0.0,0.0,0.0,0.0,0.0,0.0,0.0,0.0,0.0,0.0,0.0,0.0,0.0,0.0,0.0,0.0,0.0,0.0,0.0,-4.3049,-4.4353,-4.475,-4.4048,-4.2651,-4.1103,0.0,0.0,0.0,0.0,0.0,0.0,0.0,0.0,0.0,0.0,0.0,0.0,0.0,0.0,0.0,0.0,0.0,0.0,0.0,0.0,0.0,0.0,0.0,0.0,0.0,0.0,0.0,0.0,0.0,0.0,0.0,0.0,0.0,0.0,0.0,0.0,0.0,0.0,0.0,0.0,0.0,0.0,0.0,0.0,0.0,0.0,0.0,0.0,0.0,0.0,0.0,0.0,0.0,0.0,0.0,0.0,0.0,0.0,0.0,0.0,0.0,0.0,0.0,0.0,0.0,0.0,0.0,0.0,0.0,0.0,0.0,0.0,0.0,0.0,0.0,0.0,0.0,0.0,0.0,0.0,0.0,0.0,0.0,0.0,0.0,0.0,0.0,0.0,0.0,0.0,0.0,0.0,0.0,0.0,0.0,0.0,0.0,0.0,0.0,0.0,0.0,0.0,0.0,0.0,0.0,0.0,0.0,0.0,-4.3034,-4.3497,-4.4933,-4.5503,-4.517,-4.358,-4.1913,0.0,0.0,0.0,0.0,0.0,0.0,0.0,0.0,0.0,0.0,0.0,0.0,0.0,0.0,0.0,0.0,0.0,0.0,0.0,0.0,0.0,0.0,0.0,0.0,0.0,0.0,0.0,0.0,0.0,0.0,0.0,0.0,0.0,0.0,0.0,0.0,0.0,0.0,0.0,0.0,0.0,0.0,0.0,0.0,0.0,0.0,0.0,0.0,0.0,0.0,0.0,0.0,0.0,0.0,0.0,0.0,0.0,0.0,0.0,0.0,0.0,0.0,0.0,0.0,0.0,0.0,0.0,0.0,0.0,0.0,0.0,0.0,0.0,0.0,0.0,0.0,0.0,0.0,0.0,0.0,0.0,0.0,0.0,0.0,0.0,0.0,0.0,0.0,0.0,0.0,0.0,0.0,0.0,0.0,0.0,0.0,0.0,0.0,0.0,0.0,0.0,0.0,0.0,0.0,0.0,0.0,0.0,0.0,-4.3235,-4.4171,-4.5094,-4.566,-4.5727,-4.4215,-4.2648,0.0,0.0,0.0,0.0,0.0,0.0,0.0,0.0,0.0,0.0,0.0,0.0,0.0,0.0,0.0,0.0,0.0,0.0,0.0,0.0,0.0,0.0,0.0,0.0,0.0,0.0,0.0,0.0,0.0,0.0,0.0,0.0,0.0,0.0,0.0,0.0,0.0,0.0,0.0,0.0,0.0,0.0,0.0,0.0,0.0,0.0,0.0,0.0,0.0,0.0,0.0,0.0,0.0,0.0,0.0,0.0,0.0,0.0,0.0,0.0,0.0,0.0,0.0,0.0,0.0,0.0,0.0,0.0,0.0,0.0,0.0,0.0,0.0,0.0,0.0,0.0,0.0,0.0,0.0,0.0,0.0,0.0,0.0,0.0,0.0,0.0,0.0,0.0,0.0,0.0,0.0,0.0,0.0,0.0,0.0,0.0,0.0,0.0,0.0,0.0,0.0,0.0,0.0,0.0,0.0,0.0,0.0,0.0,-4.3116,-4.4106,-4.4978,-4.5485,-4.5538,-4.4105,-4.2834,0.0,0.0,0.0,0.0,0.0,0.0,0.0,0.0,0.0,0.0,0.0,0.0,0.0,0.0,0.0,0.0,0.0,0.0,0.0,0.0,0.0,0.0,0.0,0.0,0.0,0.0,0.0,0.0,0.0,0.0,0.0,0.0,0.0,0.0,0.0,0.0,0.0,0.0,0.0,0.0,0.0,0.0,0.0,0.0,0.0,0.0,0.0,0.0,-4.2896,0.0,0.0,0.0,0.0,0.0,0.0,0.0,0.0,0.0,0.0,0.0,0.0,0.0,0.0,0.0,0.0,0.0,0.0,0.0,0.0,0.0,0.0,0.0,0.0,0.0,0.0,0.0,0.0,0.0,0.0,0.0,0.0,0.0,0.0,0.0,0.0,0.0,0.0,0.0,0.0,0.0,0.0,0.0,0.0,0.0,0.0,0.0,0.0,0.0,0.0,0.0,0.0,0.0,0.0,0.0,0.0,0.0,0.0,0.0,-4.3675,-4.465,-4.515,-4.541,-4.539,-4.3929,-4.2915,0.0,0.0,0.0,0.0,0.0,0.0,0.0,0.0,0.0,0.0,0.0,0.0,0.0,0.0,0.0,0.0,0.0,0.0,0.0,0.0,0.0,0.0,0.0,0.0,0.0,0.0,0.0,0.0,0.0,0.0,0.0,0.0,0.0,0.0,0.0,0.0,0.0,0.0,0.0,0.0,0.0,0.0,0.0,0.0,0.0,0.0,0.0,0.0,0.0,0.0,0.0,0.0,0.0,0.0,0.0,0.0,0.0,0.0,0.0,0.0,0.0,0.0,0.0,0.0,0.0,0.0,0.0,0.0,0.0,0.0,0.0,0.0,0.0,0.0,0.0,0.0,0.0,0.0,0.0,0.0,0.0,0.0,0.0,0.0,0.0,0.0,0.0,0.0,0.0,0.0,0.0,0.0,0.0,0.0,0.0,0.0,0.0,0.0,0.0,0.0,0.0,0.0,0.0,0.0,0.0,0.0,0.0,-4.3194,-4.4195,-4.5248,-4.5338,-4.537,-4.5362,-4.3771,-4.2907,-4.2919,0.0,0.0,0.0,0.0,0.0,0.0,0.0,0.0,0.0,0.0,0.0,0.0,0.0,0.0,0.0,0.0,0.0,0.0,0.0,0.0,0.0,0.0,0.0,0.0,0.0,0.0,0.0,0.0,0.0,0.0,0.0,0.0,0.0,0.0,0.0,0.0,0.0,0.0,-3.8533,-4.0382,0.0,0.0,0.0,0.0,0.0,0.0,0.0,0.0,-4.4603,0.0,0.0,0.0,0.0,0.0,0.0,0.0,0.0,0.0,0.0,0.0,0.0,0.0,0.0,0.0,0.0,0.0,0.0,0.0,0.0,0.0,0.0,0.0,0.0,0.0,0.0,0.0,0.0,0.0,0.0,0.0,0.0,0.0,0.0,0.0,0.0,0.0,0.0,0.0,0.0,0.0,0.0,0.0,0.0,0.0,0.0,0.0,0.0,0.0,0.0,0.0,0.0,0.0,0.0,0.0,0.0,-4.2164,-4.2503,-4.3468,-4.5164,-4.5224,-4.5256,-4.527,-4.3684,-4.2804,-4.2709,0.0,0.0,0.0,0.0,0.0,0.0,0.0,0.0,0.0,0.0,0.0,0.0,0.0,0.0,0.0,0.0,0.0,0.0,0.0,0.0,0.0,0.0,0.0,0.0,0.0,0.0,0.0,0.0,0.0,0.0,0.0,0.0,0.0,0.0,0.0,0.0,0.0,0.0,0.0,-4.2491,-4.3823,0.0,0.0,0.0,0.0,0.0,0.0,0.0,0.0,-4.4892,0.0,0.0,0.0,0.0,0.0,0.0,0.0,0.0,0.0,0.0,0.0,0.0,0.0,0.0,0.0,0.0,0.0,0.0,0.0,0.0,0.0,0.0,0.0,0.0,0.0,0.0,0.0,0.0,0.0,0.0,0.0,0.0,0.0,0.0,0.0,0.0,0.0,0.0,0.0,0.0,0.0,0.0,0.0,0.0,0.0,0.0,0.0,0.0,0.0,0.0,0.0,0.0,0.0,0.0,0.0,-4.1895,-4.2661,-4.3632,-4.4988,-4.5061,-4.4946,-4.4562,-4.3361,-4.2293,0.0,0.0,0.0,0.0,0.0,0.0,0.0,0.0,0.0,0.0,0.0,0.0,0.0,0.0,0.0,0.0,0.0,0.0,0.0,0.0,0.0,0.0,0.0,0.0,0.0,0.0,0.0,0.0,0.0,0.0,0.0,0.0,0.0,0.0,0.0,0.0,0.0,0.0,0.0,0.0,-4.3173,-4.4542,-4.4624,0.0,0.0,0.0,0.0,0.0,0.0,-4.4991,-4.5049,0.0,0.0,0.0,0.0,0.0,0.0,0.0,0.0,0.0,0.0,0.0,0.0,0.0,0.0,0.0,0.0,0.0,0.0,0.0,0.0,0.0,0.0,0.0,0.0,0.0,0.0,0.0,0.0,0.0,0.0,0.0,0.0,0.0,0.0,0.0,0.0,0.0,0.0,0.0,0.0,0.0,0.0,0.0,0.0,0.0,0.0,0.0,0.0,0.0,0.0,0.0,0.0,0.0,0.0,0.0,-4.1725,-4.2846,-4.3863,-4.4795,-4.4895,-4.4588,-4.387,-4.3025,-4.1781,0.0,0.0,0.0,0.0,0.0,0.0,0.0,0.0,0.0,0.0,0.0,0.0,0.0,0.0,0.0,0.0,0.0,0.0,0.0,0.0,0.0,0.0,0.0,0.0,0.0,0.0,0.0,0.0,0.0,0.0,0.0,0.0,0.0,0.0,0.0,0.0,0.0,0.0,0.0,0.0,0.0,-4.5086,-4.5669,-4.6623,0.0,0.0,0.0,0.0,-4.5161,-4.4996,0.0,0.0,0.0,0.0,0.0,0.0,0.0,0.0,0.0,0.0,0.0,0.0,0.0,0.0,0.0,0.0,0.0,0.0,0.0,0.0,0.0,0.0,0.0,0.0,0.0,0.0,0.0,0.0,0.0,0.0,0.0,0.0,0.0,0.0,0.0,0.0,0.0,0.0,0.0,0.0,0.0,0.0,0.0,0.0,0.0,0.0,0.0,0.0,0.0,0.0,0.0,0.0,0.0,0.0,0.0,0.0,-4.1379,-4.2495,-4.3549,-4.4595,-4.4712,-4.4399,-4.3737,-4.2929,-4.1735,0.0,0.0,0.0,0.0,0.0,0.0,0.0,0.0,0.0,0.0,0.0,0.0,0.0,0.0,0.0,0.0,0.0,0.0,0.0,0.0,0.0,0.0,0.0,0.0,0.0,0.0,0.0,0.0,0.0,0.0,0.0,0.0,0.0,0.0,0.0,0.0,0.0,0.0,0.0,0.0,0.0,-4.6206,-4.5638,-4.6894,-4.7666,0.0,0.0,-4.5782,-4.5923,-4.5319,0.0,0.0,0.0,0.0,0.0,0.0,0.0,0.0,0.0,0.0,0.0,0.0,0.0,0.0,0.0,0.0,0.0,0.0,0.0,0.0,0.0,0.0,0.0,0.0,0.0,0.0,0.0,0.0,0.0,0.0,0.0,0.0,0.0,0.0,0.0,0.0,0.0,0.0,0.0,0.0,0.0,0.0,0.0,0.0,0.0,0.0,0.0,0.0,0.0,0.0,0.0,0.0,0.0,0.0,0.0,-3.8111,-4.1004,-4.1718,-4.2746,-4.4206,-4.436,-4.3847,-4.2705,-4.1938,-4.0521,0.0,0.0,0.0,0.0,0.0,0.0,0.0,0.0,0.0,0.0,0.0,0.0,0.0,0.0,0.0,0.0,0.0,0.0,0.0,0.0,0.0,0.0,0.0,0.0,0.0,0.0,0.0,0.0,0.0,0.0,0.0,0.0,0.0,0.0,0.0,0.0,0.0,0.0,0.0,0.0,0.0,0.0,-4.6108,-4.7479,0.0,0.0,0.0,-4.6172,-4.537,0.0,0.0,0.0,0.0,0.0,0.0,0.0,0.0,0.0,0.0,0.0,0.0,0.0,0.0,0.0,0.0,0.0,0.0,0.0,0.0,0.0,0.0,0.0,0.0,0.0,0.0,0.0,0.0,0.0,0.0,0.0,0.0,0.0,0.0,0.0,0.0,0.0,0.0,0.0,0.0,0.0,0.0,0.0,0.0,0.0,0.0,0.0,0.0,0.0,0.0,0.0,0.0,0.0,0.0,0.0,0.0,0.0,-4.0713,-4.1289,-4.2274,-4.3804,-4.381,-4.3148,-4.182,-4.1074,0.0,0.0,0.0,0.0,0.0,0.0,0.0,0.0,0.0,0.0,0.0,0.0,0.0,0.0,0.0,0.0,0.0,0.0,0.0,0.0,0.0,0.0,0.0,0.0,0.0,0.0,0.0,-3.1826,0.0,0.0,0.0,0.0,0.0,0.0,0.0,0.0,0.0,0.0,0.0,0.0,0.0,0.0,-4.6184,-4.6325,-4.7562,-4.8094,0.0,0.0,-4.6124,-4.5003,-4.4724,-4.4646,0.0,0.0,0.0,0.0,0.0,0.0,0.0,0.0,0.0,0.0,0.0,0.0,0.0,0.0,0.0,0.0,0.0,0.0,0.0,0.0,0.0,0.0,0.0,0.0,0.0,0.0,0.0,0.0,0.0,0.0,0.0,0.0,0.0,0.0,0.0,0.0,0.0,0.0,0.0,0.0,0.0,0.0,0.0,0.0,0.0,0.0,0.0,0.0,0.0,0.0,0.0,0.0,0.0,0.0,-3.8738,-4.0491,-4.1589,-4.2565,-4.3475,-4.2924,-4.2257,-4.1449,-4.0789,-3.9275,0.0,0.0,0.0,0.0,0.0,0.0,0.0,0.0,0.0,0.0,0.0,0.0,0.0,0.0,0.0,0.0,0.0,0.0,0.0,0.0,0.0,0.0,0.0,0.0,0.0,0.0,0.0,0.0,0.0,0.0,0.0,0.0,0.0,0.0,0.0,0.0,0.0,0.0,0.0,0.0,0.0,-4.5773,-4.5902,-4.6581,-4.7113,0.0,-4.614,-4.5268,-4.5409,-4.4899,-4.4515,-4.4496,0.0,0.0,0.0,0.0,0.0,0.0,0.0,0.0,0.0,0.0,0.0,0.0,0.0,0.0,0.0,0.0,0.0,0.0,0.0,0.0,0.0,0.0,0.0,0.0,0.0,0.0,0.0,0.0,0.0,0.0,0.0,0.0,0.0,0.0,0.0,0.0,0.0,0.0,0.0,0.0,0.0,0.0,0.0,0.0,0.0,0.0,0.0,0.0,0.0,0.0,0.0,0.0,0.0,-3.799,-4.0145,-4.0782,-4.1523,-4.2341,-4.2261,-4.1625,-4.0402,-3.9663,-3.8379,0.0,0.0,0.0,0.0,0.0,0.0,0.0,0.0,0.0,0.0,0.0,0.0,0.0,0.0,0.0,0.0,0.0,0.0,0.0,0.0,0.0,0.0,0.0,0.0,0.0,0.0,0.0,0.0,-3.5208,-3.6162,-3.7421,0.0,0.0,0.0,0.0,0.0,0.0,0.0,0.0,0.0,0.0,-4.4611,-4.4649,-4.5455,0.0,0.0,-4.5164,-4.4766,-4.4546,-4.4305,-4.4128,-4.4188,-4.4233,0.0,0.0,0.0,0.0,0.0,0.0,0.0,0.0,0.0,0.0,0.0,0.0,0.0,0.0,0.0,0.0,0.0,0.0,0.0,0.0,0.0,0.0,0.0,0.0,0.0,0.0,0.0,0.0,0.0,0.0,0.0,0.0,0.0,0.0,0.0,0.0,0.0,0.0,0.0,0.0,0.0,0.0,0.0,0.0,0.0,0.0,0.0,0.0,0.0,0.0,0.0,0.0,-3.7444,-3.9535,-3.9801,-4.0346,-4.1178,-4.1144,-4.0613,-3.9588,-3.8848,-3.7802,0.0,0.0,0.0,0.0,0.0,0.0,0.0,0.0,0.0,0.0,0.0,0.0,0.0,0.0,0.0,0.0,0.0,0.0,0.0,0.0,0.0,0.0,0.0,0.0,0.0,0.0,0.0,0.0,-3.6012,-3.7117,-3.8458,0.0,0.0,0.0,0.0,0.0,0.0,0.0,0.0,0.0,0.0,-4.3994,-4.3818,-4.4428,-4.4731,-4.4342,-4.4218,-4.4033,-4.3723,-4.3716,-4.3781,-4.3846,0.0,0.0,0.0,0.0,0.0,0.0,0.0,0.0,0.0,0.0,0.0,0.0,0.0,0.0,0.0,0.0,0.0,0.0,0.0,0.0,0.0,0.0,0.0,0.0,0.0,0.0,0.0,-2.7731,0.0,0.0,-2.814,0.0,0.0,0.0,0.0,0.0,0.0,0.0,0.0,0.0,0.0,0.0,0.0,0.0,0.0,0.0,0.0,0.0,0.0,0.0,0.0,0.0,0.0,-3.7422,-3.8502,-3.875,-3.9258,-4.0069,-3.9426,-3.9139,-3.9156,-3.8502,-3.7721,-3.6908,0.0,0.0,0.0,0.0,0.0,0.0,0.0,0.0,0.0,0.0,0.0,0.0,0.0,0.0,0.0,0.0,0.0,0.0,0.0,0.0,0.0,0.0,0.0,0.0,0.0,0.0,-3.5846,-3.7079,-3.8303,0.0,0.0,0.0,0.0,0.0,0.0,0.0,0.0,0.0,0.0,-4.3964,-4.4173,-4.3575,-4.3525,-4.3608,-4.3778,-4.331,-4.3012,-4.3196,-4.332,-4.3424,0.0,0.0,0.0,0.0,0.0,0.0,0.0,0.0,0.0,0.0,0.0,0.0,0.0,0.0,0.0,0.0,0.0,0.0,0.0,0.0,0.0,0.0,0.0,0.0,0.0,0.0,0.0,-2.9446,-2.9397,0.0,0.0,0.0,0.0,0.0,0.0,0.0,0.0,0.0,0.0,0.0,-3.3239,-3.3347,0.0,0.0,0.0,0.0,0.0,0.0,0.0,0.0,0.0,0.0,0.0,0.0,-3.6877,-3.7836,-3.8131,-3.8433,-3.8764,-3.8652,-3.8395,-3.8006,-3.7847,-3.7398,-3.6574,0.0,0.0,0.0,0.0,0.0,0.0,0.0,0.0,0.0,0.0,0.0,0.0,0.0,0.0,0.0,0.0,0.0,0.0,0.0,0.0,0.0,0.0,0.0,0.0,0.0,-3.7324,0.0,0.0,0.0,0.0,0.0,0.0,0.0,0.0,0.0,0.0,0.0,-4.3439,-4.3001,-4.3137,-4.3054,-4.2448,-4.2445,-4.253,0.0,0.0,0.0,0.0,0.0,0.0,0.0,0.0,0.0,0.0,0.0,0.0,0.0,0.0,-4.4174,-4.3973,-4.3929,-4.3868,-4.3667,0.0,0.0,0.0,0.0,0.0,0.0,0.0,0.0,0.0,0.0,0.0,0.0,0.0,0.0,-2.9914,0.0,-2.9255,0.0,0.0,0.0,0.0,0.0,0.0,0.0,0.0,-3.2713,-3.2977,-3.322,-3.3284,-3.3606,0.0,-3.4189,-3.4151,0.0,0.0,0.0,0.0,0.0,0.0,0.0,0.0,-3.6224,-3.6948,-3.7213,-3.7363,-3.7469,-3.7649,-3.7543,-3.7129,-3.7206,-3.6871,-3.6075,-3.5561,-3.5154,0.0,0.0,0.0,0.0,0.0,0.0,0.0,0.0,0.0,0.0,0.0,0.0,0.0,0.0,0.0,0.0,0.0,0.0,0.0,0.0,0.0,0.0,0.0,-3.8426,0.0,0.0,0.0,0.0,0.0,0.0,0.0,0.0,0.0,-4.3271,-4.3748,-4.3783,-4.3075,-4.2952,-4.2648,-4.1745,0.0,0.0,0.0,0.0,0.0,0.0,0.0,-4.2452,-4.2554,-4.3276,-4.3906,-4.4196,-4.4685,-4.4818,-4.4106,0.0,0.0,-4.3832,-4.3765,-4.3814,-4.3913,-4.4011,-4.4061,-4.4092,-4.3752,-4.344,0.0,0.0,0.0,0.0,0.0,0.0,0.0,0.0,-2.9231,-2.9191,0.0,-2.9058,0.0,0.0,0.0,0.0,0.0,-3.1571,0.0,0.0,-3.2891,-3.3444,-3.3707,-3.3742,-3.4133,-3.482,-3.4839,-3.4762,-3.4615,-3.5062,0.0,0.0,0.0,0.0,0.0,0.0,-3.5515,-3.5778,-3.598,-3.6152,-3.6276,-3.6419,-3.6523,-3.6574,-3.6574,-3.6209,-3.5479,-3.5427,-3.5077,-3.4399,-3.4328,0.0,0.0,0.0,0.0,0.0,0.0,0.0,0.0,0.0,0.0,0.0,0.0,0.0,0.0,0.0,0.0,0.0,0.0,0.0,0.0,-3.8378,0.0,0.0,0.0,0.0,0.0,0.0,0.0,0.0,0.0,0.0,-4.4337,-4.4539,-4.4362,-4.3562,0.0,0.0,0.0,0.0,-4.138,-4.1386,-4.1604,-4.1801,-4.1852,-4.1998,-4.2124,-4.2246,0.0,0.0,-4.4333,-4.451,-4.4368,-4.3701,-4.3724,-4.3769,-4.3485,-4.3512,-4.3614,-4.3753,-4.3804,-4.3818,-4.3865,-4.3923,-4.398,-2.9184,0.0,0.0,0.0,0.0,-3.0225,-2.996,-2.9479,-2.9555,-2.953,-2.9441,-2.921,0.0,0.0,0.0,0.0,0.0,0.0,-3.1258,-3.1735,-3.2083,-3.2453,-3.281,-3.2952,-3.3353,-3.3971,-3.4059,-3.4298,-3.4687,-3.5127,-3.5109,-3.4698,0.0,0.0,0.0,0.0,-3.4906,-3.5165,-3.5396,-3.5549,-3.5577,-3.5849,-3.6011,-3.6118,-3.6118,-3.5998,-3.5753,-3.5757,-3.5668,-3.5444,-3.4846,0.0,0.0,0.0,0.0,0.0,0.0,0.0,0.0,0.0,0.0,0.0,0.0,0.0,0.0,0.0,0.0,0.0,0.0,0.0,-3.8866,-3.9581,-4.0072,0.0,0.0,0.0,0.0,0.0,0.0,0.0,0.0,0.0,-4.3945,-4.3943,-4.3717,0.0,0.0,-4.1957,-4.1127,-4.1012,-4.1053,-4.1035,-4.1192,0.0,-4.1347,-4.1471,-4.1609,-4.167,-4.237,-4.319,-4.3936,-4.41,-4.3862,-4.316,-4.3194,-4.3182,-4.2717,-4.2977,-4.3357,-4.3513,-4.3634,-4.3666,-4.3681,-4.3765,-4.3881,-2.896,-2.9837,-2.9696,-2.9757,-2.9953,-3.0072,-2.9836,-2.9341,-2.9485,-2.9448,-2.9342,-2.9084,-2.9151,-2.9454,-2.9299,0.0,0.0,0.0,-3.0581,-3.1033,-3.1233,-3.1479,-3.1823,-3.2114,-3.2574,-3.3108,-3.3353,-3.3736,-3.4259,-3.4854,-3.4976,-3.4667,0.0,0.0,-3.4744,-3.4613,-3.4568,-3.4513,-3.4828,-3.497,-3.4994,-3.535,-3.5538,-3.5571,-3.5633,-3.5638,-3.5655,-3.5611,-3.5571,-3.5571,-3.5037,-3.4376,0.0,0.0,0.0,0.0,0.0,0.0,0.0,0.0,0.0,0.0,0.0,-3.5081,-3.5206,0.0,0.0,0.0,-3.7956,-3.8782,-3.9547,-4.0271,0.0,0.0,0.0,0.0,0.0,0.0,0.0,-4.251,-4.2837,-4.2995,-4.2997,-4.2675,-4.2461,-4.2592,-4.198,-4.1322,-4.0686,0.0,-4.0566,-4.0583,-4.0728,-4.0864,-4.0864,-4.1059,-4.1175,-4.1129,-4.158,-4.2068,-4.2526,-4.2631,-4.2515,-4.2242,-4.2244,-4.2309,-4.2072,-4.2396,-4.2825,-4.3196,-4.3339,-4.341,-4.3426,-4.3531,-4.3632,-2.8586,-2.9155,-2.8863,-2.8879,-2.9123,-2.9468,-2.9302,-2.88,-2.9096,-2.9076,-2.8764,-2.8764,-2.8988,-2.938,-2.9561,0.0,-2.9922,-2.9922,-3.0024,-3.0203,-3.0418,-3.062,-3.0822,-3.1283,-3.1763,-3.2295,-3.269,-3.3108,-3.3556,-3.4244,-3.4597,-3.4635,-3.5429,-3.5286,-3.4345,-3.4503,-3.4377,-3.3918,-3.4258,-3.4423,-3.4472,-3.4851,-3.5041,-3.5018,-3.5175,-3.5245,-3.5228,-3.5111,-3.5041,-3.5041,-3.4947,-3.4521,-3.3786,0.0,0.0,0.0,0.0,0.0,0.0,0.0,0.0,0.0,0.0,0.0,0.0,0.0,0.0,0.0,-3.8562,0.0,-4.0028,-4.0649,0.0,0.0,0.0,-4.1553,-4.1427,-4.1893,-4.2143,-4.201,0.0,0.0,-4.1797,-4.1067,-4.0934,-4.1732,-4.1348,-4.0737,-4.0079,-4.0011,-3.9995,-3.9995,-4.0238,-4.0395,-4.0436,-4.0655,-4.0776,-4.0673,-4.0648,-4.0724,-4.0758,-4.0758,-4.0779,-4.1028,-4.1123,-4.1295,-4.167,-4.1788,-4.2044,-4.2671,-4.2937,-4.3068,-4.3123,-4.3232,-4.332,-2.8073,-2.8208,-2.813,-2.8538,-2.9233,-2.9313,-2.9072,-2.8602,-2.8643,-2.8631,-2.859,-2.859,-2.8685,-2.8961,-2.9145,-2.9275,-2.9314,-2.9314,-2.9314,-2.938,-2.9561,-2.9793,-3.0012,-3.0457,-3.0947,-3.1479,-3.18,-3.2273,-3.2931,-3.3374,-3.377,-3.4045,-3.4758,-3.504,-3.4877,-3.4224,-3.3897,-3.3954,-3.3836,-3.3873,-3.4176,-3.4399,-3.4497,-3.4472,-3.4618,-3.4691,-3.4691,-3.4643,-3.4659,-3.4643,-3.4618,-3.4201,-3.3394,-3.3181,0.0,0.0,0.0,0.0,0.0,0.0,0.0,0.0,0.0,-3.5569,-3.6176,0.0,-3.7929,0.0,-3.9928,-4.0823,-4.0817,-4.0972,0.0,0.0,-4.1439,-4.1635,-4.1518,-4.1999,-4.2233,-4.1869,-4.1965,-4.1789,-4.0976,-4.0337,-3.9834,-3.9573,-3.9437,-3.9297,-3.9131,-3.9104,-3.9158,-3.9265,-3.9418,-3.9575,-3.9867,-4.0121,-4.0288,-4.0263,-4.0221,-4.0221,-4.0238,-4.0263,-4.0271,-4.0453,-4.0583,-4.0806,-4.1117,-4.1277,-4.148,-4.1852,-4.2331,-4.2727,-4.2728,-4.2938,-4.2996,-2.7788,-2.7881,-2.7881,-2.8208,-2.8671,-2.8683,-2.8505,-2.8243,-2.8243,-2.8243,-2.8243,-2.8231,-2.8351,-2.8538,-2.8645,-2.8736,-2.8816,-2.8828,-2.8816,-2.8855,-2.9028,-2.9223,-2.9328,-2.9729,-3.0152,-3.0532,-3.0972,-3.1455,-3.2042,-3.2618,-3.2954,-3.3049,-3.3969,-3.435,-3.4237,-3.3849,-3.3591,-3.3496,-3.3244,-3.3261,-3.3601,-3.3806,-3.3975,-3.4025,-3.4226,-3.4325,-3.4325,-3.4267,-3.4217,-3.4151,-3.4101,-3.3806,-3.3285,-3.2923,-3.2689,0.0,0.0,0.0,0.0,0.0,0.0,0.0,0.0,0.0,0.0,0.0,-3.8695,-3.9434,-4.0406,-4.1023,-4.1275,-4.1232,-4.1244,-4.1434,-4.162,-4.1706,-4.1533,-4.1773,-4.1851,-4.1623,-4.1271,-4.0764,-3.999,-3.9346,-3.8683,-3.8021,-3.7982,-3.8132,-3.8427,-3.8556,-3.8655,-3.8738,-3.8843,-3.9034,-3.9345,-3.954,-3.9696,-3.9679,-3.9679,-3.9696,-3.9696,-3.9764,-3.9858,-4.0011,-4.0138,-4.0345,-4.071,-4.0813,-4.0891,-4.0814,-4.1147,-4.1529,-4.1734,-4.2068,-4.2083,-2.7522,-2.7771,-2.776,-2.7812,-2.78,-2.78,-2.7841,-2.7881,-2.7881,-2.7881,-2.7881,-2.7881,-2.8002,-2.8139,-2.8179,-2.8259,-2.8431,-2.8443,-2.8431,-2.8471,-2.8645,-2.8764,-2.8764,-2.9145,-2.9419,-2.9639,-3.019,-3.0644,-3.1003,-3.1752,-3.2028,-3.1896,-3.2901,-3.3305,-3.2996,-3.3197,-3.3126,-3.2729,-3.2563,-3.2629,-3.2915,-3.3182,-3.3435,-3.3565,-3.3822,-3.3933,-3.3949,-3.3822,-3.3704,-3.3591,-3.354,-3.3472,-3.334,-3.2798,-3.2783,0.0,-3.337,0.0,0.0,0.0,0.0,0.0,0.0,0.0,0.0,-3.8654,-3.9556,-4.0335,-4.0494,-4.0786,-4.1445,-4.1369,-4.1469,-4.1901,-4.1819,-4.1655,-4.1489,-4.1245,-4.1049,-4.1015,-4.032,-3.9551,-3.8836,-3.8214,-3.7608,-3.7048,-3.6923,-3.718,-3.7711,-3.8017,-3.818,-3.8266,-3.8403,-3.8611,-3.8788,-3.898,-3.9098,-3.9098,-3.9115,-3.9098,-3.9098,-3.9239,-3.9432,-3.953,-3.9577,-3.975,-4.0184,-4.0156,-3.9963,-3.9565,-3.972,-4.0032,-4.0458,-4.0849,-4.0836,-2.6891,-2.7108,-2.7097,-2.719,-2.7313,-2.7353,-2.7557,-2.7881,-2.7881,-2.7881,-2.7881,-2.7881,-2.7933,-2.7962,-2.7962,-2.8002,-2.8002,-2.8002,-2.807,-2.8259,-2.8287,-2.8379,-2.8578,-2.8803,-2.9,-2.9236,-2.9496,-2.9707,-2.9823,-3.0315,-3.0517,-3.05,-3.1171,-3.1624,-3.1797,0.0,0.0,0.0,-3.1841,-3.2035,-3.2358,-3.2523,-3.2656,-3.2819,-3.2964,0.0,-3.3044,-3.3018,-3.2991,-3.298,-3.3459,0.0,0.0,0.0,0.0,0.0,0.0,0.0,0.0,0.0,0.0,0.0,-3.6197,-3.6783,-3.7166,-3.8448,-3.9645,-4.0404,-4.1007,-4.1371,-4.1334,-4.1317,-4.1281,-4.1272,-4.1254,-4.107,-4.0749,-4.0186,-3.973,-3.9424,-3.8825,-3.8149,-3.7541,-3.7264,-3.6928,-3.6348,-3.6289,-3.6399,-3.6569,-3.7013,-3.7285,-3.7433,-3.777,-3.803,-3.8087,-3.8359,-3.8544,-3.8544,-3.8544,-3.8528,-3.8539,-3.8601,-3.8799,-3.8903,-3.8626,-3.8491,-3.8875,-3.8487,-3.8181,-3.8211,-3.8459,-3.8773,-3.9238,-3.9664,-3.97,-2.6685,0.0,-2.6768,-2.6809,0.0,-2.6891,-2.7067,-2.7272,-2.7476,-2.7557,-2.7557,-2.7557,-2.7586,-2.7708,-2.7708,-2.7788,-2.7881,-2.7881,-2.7973,-2.803,-2.803,-2.8111,-2.8203,-2.8419,-2.8421,-2.8297,-2.857,-2.8697,-2.8696,-2.9074,-2.9295,-2.9371,-3.0099,-3.0521,-3.0651,-3.0587,-3.0666,-3.0911,-3.1058,-3.1263,-3.1523,-3.1752,-3.1923,-3.2076,0.0,0.0,0.0,0.0,0.0,0.0,0.0,0.0,0.0,0.0,0.0,-3.3789,-3.4121,-3.4303,-3.4318,-3.4907,-3.5318,-3.5412,-3.5746,-3.6317,-3.7157,-3.8555,-3.957,-3.9978,-4.0649,-4.1021,-4.0919,-4.0802,-4.0625,-4.0245,-4.0115,-3.9856,-3.9317,-3.8981,-3.8715,-3.847,-3.7919,-3.7372,-3.7053,-3.6689,-3.64,-3.6066,-3.6068,-3.61,-3.6116,-3.6492,-3.68,-3.6922,-3.7298,-3.7535,-3.7565,-3.7727,-3.7902,-3.7886,-3.7658,-3.7479,-3.7504,-3.7339,-3.7263,-3.7427,-3.7285,-3.7295,-3.7557,-3.7335,-3.7087,-3.7088,-3.7219,-3.7267,-3.7329,-3.7995,-3.8465,-2.6385,-2.6479,-2.6479,-2.652,-2.6603,-2.6603,-2.6603,-2.6633,0.0,0.0,0.0,-2.7097,-2.7208,-2.7412,-2.74,-2.7545,-2.7771,-2.7771,-2.78,-2.7841,-2.7841,-2.7841,-2.7921,-2.807,-2.7866,-2.7367,-2.7743,-2.7748,-2.752,-2.791,-2.8145,-2.8307,-2.9024,-2.9435,-2.9512,-2.9831,-2.9999,-3.0019,-3.0326,-3.0553,-3.0732,-3.1087,-3.1368,-3.1485,-3.1807,-3.2254,-3.278,-3.281,-3.3006,-3.3363,-3.3498,-3.3511,-3.3416,-3.352,-3.3517,-3.3374,-3.391,-3.4238,-3.4253,-3.4741,-3.5103,-3.5219,-3.5219,-3.5814,-3.7208,-3.833,-3.9036,-3.9109,-3.9661,-3.9948,-3.9964,-3.9829,-3.9512,-3.9028,-3.8816,-3.8485,-3.7952,-3.7725,-3.7646,-3.7585,-3.7005,-3.663,-3.6552,-3.6129,-3.5814,-3.5814,-3.575,-3.5814,-3.5878,-3.6132,-3.6445,-3.6569,-3.6815,-3.7013,-3.7012,-3.6991,-3.7081,-3.6971,-3.6497,-3.6174,-3.6163,-3.5935,-3.581,-3.6016,-3.6002,-3.6103,-3.6307,-3.6231,-3.6146,-3.5917,-3.5971,-3.5923,-3.5568,-3.637,-3.7132,-2.5633,-2.6032,-2.599,-2.6229,-2.6603,-2.6603,-2.6603,-2.6603,-2.6644,-2.6674,-2.6685,-2.6685,-2.6798,-2.6974,-2.6974,-2.7108,-2.7313,-2.7313,-2.7371,0.0,-2.7563,-2.7696,-2.7881,-2.7921,-2.7679,-2.7184,-2.7382,-2.7074,-2.6457,-2.6735,-2.6976,-2.702,-2.728,-2.7719,-2.8238,-2.863,-2.8843,-2.8876,-2.9529,-3.0068,-3.0387,-3.0997,-3.1333,-3.1502,-3.2013,-3.2349,-3.2467,-3.2482,-3.248,-3.2596,-3.3106,-3.3412,-3.3427,-3.3937,-3.4239,-3.4253,-3.4311,-3.437,-3.437,-3.4471,-3.4501,-3.4534,-3.4534,-3.5133,-3.649,-3.6797,-3.7176,-3.7718,-3.7929,-3.7929,-3.7929,-3.7955,-3.794,-3.779,-3.7725,-3.7578,-3.7257,-3.6794,-3.6417,-3.6249,-3.56,-3.5263,-3.5278,-3.5159,-3.5085,-3.5052,-3.5133,-3.5052,-3.5198,-3.5653,-3.6037,-3.61,-3.6242,-3.6321,-3.6276,-3.5984,-3.5812,-3.5766,-3.5312,-3.4963,-3.4992,-3.5018,-3.5105,-3.5272,-3.499,-3.4888,-3.5027,-3.4617,-3.4538,-3.4603,-3.4775,-3.4774,-3.4787,-3.5345,-3.5774,-2.5327,-2.5506,-2.5506,-2.5633,-2.5832,-2.5832,-2.5832,-2.5832,-2.5832,-2.6135,-2.6603,-2.6603,-2.6644,-2.6715,-2.6727,-2.6768,-2.6903,-2.6903,-2.6974,-2.7167,-2.7167,-2.7301,-2.7505,-2.7626,-2.7287,-2.6551,-2.6697,-2.6382,-2.5601,-2.578,-2.6061,-2.628,-2.6748,-2.7162,-2.7443,-2.7822,-2.8066,-2.8183,-2.8912,-2.9328,-2.9498,-3.0288,-3.0754,-3.0804,-3.1496,-3.2027,-3.2355,-3.2355,-3.2511,-3.2872,-3.3206,-3.3348,-3.3363,-3.3648,-3.377,-3.3667,-3.3632,-3.3632,-3.3632,-3.3722,-3.3805,-3.3805,-3.3902,-3.4223,-3.486,-3.5531,-3.6045,-3.6443,-3.6768,-3.706,-3.7164,-3.7164,-3.7045,-3.6688,-3.6609,-3.6442,-3.6033,-3.5703,-3.5463,-3.5347,-3.5041,-3.4783,-3.4783,-3.4716,-3.4635,-3.4635,-3.4635,-3.465,-3.462,-3.4625,-3.4894,-3.5419,-3.5416,-3.5285,-3.5256,-3.488,-3.4607,-3.4577,-3.4117,-3.3836,-3.3831,-3.3816,-3.3622,-3.3659,-3.3588,-3.3579,-3.3698,-3.3594,-3.3639,-3.3915,-3.4025,-3.4126,-3.4349,-3.4643,-3.5118,-2.5031,-2.5115,-2.5115,-2.5158,-2.52,-2.52,-2.52,-2.52,-2.52,-2.5622,-2.6218,-2.6302,-2.6354,-2.6426,-2.6437,-2.6479,-2.6603,-2.6603,-2.6674,-2.6809,-2.685,-2.6903,-2.7044,-2.7093,-2.6645,-2.5889,-2.5934,-2.5562,-2.4932,-2.5064,-2.5359,-2.5758,-2.6393,-2.6735,-2.6769,-2.7074,-2.731,-2.751,-2.8091,-2.85,-2.872,-2.9706,-3.0237,-3.0278,-3.1104,-3.177,-3.2215,-3.2243,-3.25,-3.2981,-3.3023,-3.3023,-3.3023,-3.3023,-3.2952,-3.281,-3.2797,-3.2797,-3.281,-3.2988,-3.3094,-3.3094,-3.3297,-3.3382,-3.348,-3.4262,-3.4917,-3.5218,-3.5636,-3.6032,-3.6122,-3.6186,-3.6025,-3.5507,-3.5449,-3.5239,-3.4785,-3.4683,-3.4683,-3.4683,-3.4597,-3.4496,-3.4496,-3.438,-3.4278,-3.4293,-3.4278,-3.4249,-3.4047,-3.3632,-3.3787,-3.4126,-3.4258,-3.412,-3.4077,-3.3694,-3.3426,-3.3412,-3.2975,-3.2715,-3.2664,-3.2342,-3.2168,-3.2323,-3.2432,-3.2582,-3.2672,-3.2823,-3.3065,-3.3393,-3.3497,-3.3601,-3.3975,-3.3965,-3.4387,-2.454,-2.4903,-2.4903,-2.5031,-2.5158,-2.52,-2.5147,-2.5158,-2.52,-2.5242,-2.5327,-2.5327,-2.5591,-2.5937,-2.5979,-2.6188,-2.6561,-2.6603,-2.6603,-2.6603,-2.6644,-2.6644,-2.6599,-2.6195,-2.5689,-2.5228,-2.5131,-2.4849,-2.4332,-2.467,-2.4909,-2.5135,-2.5711,-2.599,-2.6037,-2.6336,-2.653,-2.6517,-2.6926,-2.7564,-2.8387,-2.9686,-3.0385,-3.0385,-3.1439,-3.2064,-3.2078,-3.2105,-3.2146,-3.2187,-3.22,-3.22,-3.22,-3.22,-3.22,-3.22,-3.22,-3.2164,-3.22,-3.2381,-3.2489,-3.2489,-3.2668,-3.2789,-3.2789,-3.2901,-3.3262,-3.3907,-3.4123,-3.4258,-3.4172,-3.4249,-3.4278,-3.4255,-3.4163,-3.4043,-3.4034,-3.3985,-3.4,-3.3985,-3.3985,-3.4,-3.3951,-3.3917,-3.3917,-3.3868,-3.3833,-3.3648,-3.3182,-3.2925,-3.2597,-3.2507,-3.2603,-3.2889,-3.2878,-3.2517,-3.2224,-3.2137,-3.1797,-3.1618,-3.1572,-3.1614,-3.1595,-3.1724,-3.191,-3.2079,-3.2203,-3.2385,-3.2547,-3.2819,-3.2938,-3.3055,-3.3485,-3.3274,-3.3332,-2.4057,-2.4219,-2.4262,-2.4305,-2.4358,-2.4358,-2.4348,-2.4348,-2.4348,-2.4444,-2.4625,-2.4625,-2.4914,-2.5464,-2.5506,-2.558,-2.5748,-2.5748,-2.5832,-2.5957,-2.6104,-2.626,-2.634,-2.6319,-2.5896,-2.5155,-2.5052,-2.4619,-2.4011,-2.4273,-2.4526,-2.4718,-2.5135,-2.5347,-2.5382,-2.5629,-2.5804,-2.5908,-2.6186,-2.6741,-2.7606,-2.8956,-2.9693,-2.9799,-3.0834,-3.1458,-3.1458,-3.1458,-3.1445,-3.1458,-3.1445,-3.1445,-3.1445,-3.1458,-3.1458,-3.1445,-3.1556,-3.168,-3.1803,-3.1877,-3.195,-3.195,-3.2132,-3.2228,-3.2228,-3.2286,-3.2489,-3.2789,-3.3143,-3.3403,-3.3507,-3.3556,-3.3542,-3.3542,-3.3542,-3.3542,-3.3542,-3.3528,-3.3528,-3.3542,-3.3437,-3.3368,-3.3353,-3.3262,-3.3178,-3.3178,-3.3178,-3.2933,-3.2352,-3.196,-3.1469,-3.0975,-3.0811,-3.1071,-3.1538,-3.135,-3.1062,-3.0992,-3.0967,-3.0881,-3.0896,-3.0984,-3.1102,-3.1161,-3.1394,-3.1582,-3.1653,-3.1781,-3.1964,-3.2244,-3.2571,-3.271,-3.261,-3.2424,-3.2373,-2.3754,-2.3797,-2.3797,-2.3797,-2.3797,-2.3797,-2.3797,-2.3797,-2.3797,-2.3894,-2.4067,-2.4067,-2.4358,-2.4818,-2.5031,-2.5158,-2.52,-2.52,-2.5285,-2.5411,-2.5644,-2.5759,-2.5935,-2.5981,-2.5665,-2.5024,-2.4709,-2.4231,-2.362,-2.4019,-2.4285,-2.448,-2.4877,-2.5081,-2.5118,-2.5336,-2.554,-2.5685,-2.5948,-2.6334,-2.7004,-2.8143,-2.8895,-2.9166,-3.0091,-3.0672,-3.0672,-3.0723,-3.0761,-3.0761,-3.0798,-3.0823,-3.0823,-3.0836,-3.0836,-3.0823,-3.0973,-3.1086,-3.1261,-3.1299,-3.1336,-3.1373,-3.1522,-3.1669,-3.1656,-3.1753,-3.1813,-3.1909,-3.2273,-3.2632,-3.3009,-3.3058,-3.3058,-3.3129,-3.3129,-3.3129,-3.3115,-3.3129,-3.3129,-3.3129,-3.2988,-3.281,-3.2775,-3.2632,-3.2561,-3.2561,-3.2396,-3.2079,-3.1502,-3.0897,-3.0306,-2.9728,-2.9316,-2.9561,-3.0358,-3.0392,-3.0142,-3.0144,-3.0235,-3.0341,-3.0387,-3.0477,-3.0642,-3.0717,-3.0896,-3.1043,-3.1131,-3.1248,-3.1408,-3.1724,-3.2046,-3.2121,-3.1774,-3.1653,-3.1199,-2.3624,-2.3797,-2.3797,-2.3754,-2.3797,-2.3797,-2.3797,-2.3754,-2.3797,-2.3797,-2.3841,-2.3841,-2.3841,-2.396,-2.4605,-2.4988,-2.5158,-2.5158,-2.5115,-2.5158,-2.52,-2.5242,-2.521,-2.4816,-2.4592,-2.4545,-2.4007,-2.3558,-2.3382,-2.3984,-2.431,-2.4332,-2.4932,-2.5247,-2.529,-2.5574,-2.5857,-2.5852,-2.6205,-2.6538,-2.6709,-2.7404,-2.8131,-2.8825,-2.9453,-2.9781,-2.9781,-3.0024,-3.0113,-3.0113,-3.0292,-3.0406,-3.0406,-3.0394,-3.0406,-3.0394,-3.0444,-3.0444,-3.0482,-3.0647,-3.0736,-3.0773,-3.0911,-3.1024,-3.1061,-3.1086,-3.1161,-3.131,-3.1408,-3.169,-3.2273,-3.2417,-3.2525,-3.2668,-3.2704,-3.2704,-3.2704,-3.2682,-3.2725,-3.2668,-3.2525,-3.2345,-3.22,-3.2128,-3.2101,-3.1992,-3.1675,-3.1153,-3.0569,-2.997,-2.9407,-2.8931,-2.8706,-2.8826,-2.9303,-2.9505,-2.9585,-2.962,-2.9637,-2.9713,-2.9792,-2.9884,-3.0068,-3.0205,-3.0326,-3.0447,-3.0612,-3.0791,-3.0955,-3.1219,-3.1447,-3.1401,-3.087,-3.0517,-3.0104,-2.3266,-2.3363,-2.3353,-2.3363,-2.3363,-2.3363,-2.3363,-2.3353,-2.3363,-2.345,-2.358,-2.3634,-2.3677,-2.3797,-2.4057,-2.4229,-2.4305,-2.4305,-2.4401,-2.4529,-2.4711,-2.4828,-2.5009,-2.4935,-2.4785,-2.4498,-2.422,-2.3934,-2.3684,-2.4009,-2.4163,-2.4253,-2.467,-2.4915,-2.4954,-2.5166,-2.5399,-2.5527,-2.572,-2.5985,-2.6465,-2.6859,-2.738,-2.7989,-2.8721,-2.9145,-2.9133,-2.9314,-2.9443,-2.9443,-2.956,-2.956,-2.956,-2.9548,-2.9625,-2.9729,-2.978,-2.9806,-2.9947,-3.0037,-3.0075,-3.0075,-3.0292,-3.0432,-3.0457,-3.0533,-3.0634,-3.071,-3.0748,-3.0936,-3.1272,-3.1643,-3.1913,-3.1986,-3.1986,-3.2023,-3.1986,-3.1986,-3.1986,-3.1986,-3.1913,-3.1877,-3.1803,-3.1767,-3.1642,-3.128,-3.1025,-3.0475,-2.9732,-2.9289,-2.8906,-2.845,-2.8276,-2.8341,-2.8457,-2.878,-2.8958,-2.904,-2.9121,-2.9198,-2.9293,-2.9404,-2.956,-2.9637,-2.973,-2.9867,-3.0021,-3.0221,-3.0433,-3.0614,-3.0808,-3.0521,-2.9918,-2.9612,-2.9208,-2.3101,-2.3101,-2.3101,-2.3101,-2.3101,-2.3101,-2.3101,-2.3101,-2.3101,-2.3188,-2.3363,-2.3373,-2.345,-2.3537,-2.358,-2.357,-2.3624,-2.3711,-2.3894,-2.4067,-2.4196,-2.4358,-2.4529,-2.47,-2.4587,-2.4294,-2.4293,-2.4081,-2.3782,-2.4057,-2.4213,-2.4253,-2.4664,-2.4872,-2.4912,-2.5051,-2.5252,-2.536,-2.5491,-2.587,-2.6324,-2.656,-2.68,-2.7221,-2.7834,-2.8287,-2.8498,-2.8697,-2.8816,-2.8803,-2.8855,-2.8895,-2.8907,-2.8895,-2.8973,-2.9079,-2.9106,-2.9145,-2.9302,-2.9355,-2.9433,-2.9406,-2.9625,-2.9767,-2.9805,-2.9908,-3.0011,-3.005,-3.0088,-3.0177,-3.0406,-3.0748,-3.1086,-3.1323,-3.141,-3.141,-3.141,-3.141,-3.1373,-3.1336,-3.1299,-3.1299,-3.1224,-3.1224,-3.0935,-3.0395,-3.0197,-2.9631,-2.8889,-2.8441,-2.827,-2.7841,-2.7729,-2.7716,-2.7769,-2.7921,-2.8295,-2.8444,-2.856,-2.8656,-2.8771,-2.8899,-2.9026,-2.9071,-2.9166,-2.9289,-2.9463,-2.9668,-2.9825,-2.9981,-2.9954,-2.9755,-2.9209,-2.8707,-2.8364,-2.3101,-2.3101,-2.3101,-2.3101,-2.3101,-2.3101,-2.3101,-2.3101,-2.3101,-2.3144,-2.3135,-2.3135,-2.3135,-2.3135,-2.3188,-2.3144,-2.3232,-2.358,-2.3754,-2.3797,-2.3851,-2.3841,-2.3927,-2.3927,-2.396,-2.3879,-2.3821,-2.3753,-2.3594,-2.4093,-2.4406,-2.4574,-2.486,-2.5072,-2.5147,-2.5303,-2.5452,-2.5534,-2.5834,-2.6108,-2.6216,-2.64,-2.6494,-2.6592,-2.6839,-2.7219,-2.78,-2.807,-2.8167,-2.8219,-2.8379,-2.8459,-2.8419,-2.8431,-2.8459,-2.8459,-2.8498,-2.851,-2.8538,-2.8685,-2.8791,-2.8831,-2.8961,-2.9131,-2.9131,-2.9131,-2.9248,-2.9392,-2.9419,-2.9496,-2.9639,-2.9755,-3.0101,-3.0823,-3.0898,-3.0911,-3.0949,-3.0986,-3.0911,-3.0723,-3.0685,-3.0609,-3.0444,-3.0392,-3.0122,-2.9558,-2.9057,-2.8566,-2.7971,-2.7473,-2.7135,-2.7037,-2.7079,-2.7134,-2.7066,-2.7045,-2.7482,-2.7848,-2.8013,-2.8145,-2.8235,-2.8352,-2.8463,-2.8527,-2.867,-2.8766,-2.8944,-2.9139,-2.9185,-2.9291,-2.9144,-2.8855,-2.8296,-2.7813,-2.7618,-2.3101,-2.3101,-2.3101,-2.3101,-2.3101,-2.3101,-2.3101,-2.3101,-2.3101,-2.3101,-2.3101,-2.3101,-2.3101,-2.3101,-2.3101,-2.3101,-2.3135,-2.3266,-2.3406,-2.359,-2.359,-2.3677,-2.3754,-2.3797,-2.3797,-2.3787,-2.3786,-2.3783,-2.3766,-2.39,-2.412,-2.4321,-2.4585,-2.4828,-2.4988,-2.52,-2.5285,-2.5316,-2.5443,-2.5538,-2.5527,-2.5748,-2.5832,-2.5884,-2.6104,-2.6313,-2.652,-2.7167,-2.7482,-2.751,-2.7563,-2.7592,-2.7592,-2.7592,-2.7684,-2.7805,-2.7805,-2.7898,-2.8082,-2.8122,-2.8191,-2.8231,-2.8379,-2.8447,-2.8498,-2.8618,-2.8697,-2.8764,-2.8776,-2.8816,-2.8882,-2.9028,-2.9367,-3.0024,-3.0101,-3.0101,-3.0152,-3.0139,-3.0063,-3.0024,-2.9986,-2.9986,-2.9872,-2.9707,-2.9239,-2.8658,-2.8102,-2.7559,-2.7003,-2.6728,-2.6577,-2.6577,-2.6577,-2.6543,-2.6508,-2.6474,-2.6714,-2.7087,-2.7335,-2.7583,-2.7676,-2.7776,-2.7855,-2.7987,-2.8131,-2.8281,-2.8463,-2.8602,-2.868,-2.8398,-2.8105,-2.7699,-2.7243,-2.6974,-2.6804,-2.3101,-2.3101,-2.3101,-2.3101,-2.3101,-2.3101,-2.3101,-2.3101,-2.3101,-2.3101,-2.3101,-2.3101,-2.3101,-2.3101,-2.3101,-2.3101,-2.3101,-2.3101,-2.3188,-2.3319,-2.3363,-2.345,-2.3527,-2.3537,-2.3624,-2.3667,-2.3667,-2.3711,-2.3797,-2.3797,-2.3884,-2.4057,-2.4196,-2.4325,-2.4487,-2.4647,-2.4733,-2.4818,-2.4914,-2.4999,-2.5115,-2.5285,-2.5369,-2.5411,-2.5549,-2.5633,-2.5675,-2.6196,-2.6558,-2.6816,-2.6899,-2.6981,-2.6992,-2.6992,-2.7033,-2.7115,-2.7156,-2.7249,-2.7383,-2.7464,-2.7516,-2.7545,-2.7736,-2.7805,-2.7846,-2.7966,-2.8047,-2.8139,-2.8127,-2.8139,-2.8271,-2.8391,-2.8657,-2.8976,-2.9328,-2.9445,-2.9484,-2.9484,-2.9484,-2.9484,-2.9484,-2.9484,-2.9384,-2.9023,-2.8537,-2.7952,-2.7416,-2.682,-2.6338,-2.6107,-2.6082,-2.6035,-2.5965,-2.5931,-2.5965,-2.5965,-2.6013,-2.6324,-2.6633,-2.6918,-2.7154,-2.7188,-2.7255,-2.7469,-2.7636,-2.7736,-2.7875,-2.8059,-2.816,-2.766,-2.7166,-2.6857,-2.6541,-2.6204,-2.6031,-2.3101,-2.3101,-2.3101,-2.3101,-2.3101,-2.3101,-2.3101,-2.3101,-2.3101,-2.3101,-2.3101,-2.3101,-2.3101,-2.3101,-2.3101,-2.3101,-2.3101,-2.3101,-2.3101,-2.3135,-2.3144,-2.3188,-2.3188,-2.3188,-2.3276,-2.345,-2.346,-2.3537,-2.3667,-2.3667,-2.3754,-2.3797,-2.3797,-2.3797,-2.3884,-2.3841,-2.4013,-2.4239,-2.4358,-2.4572,-2.4775,-2.4946,-2.5073,-2.5073,-2.5062,-2.5073,-2.5073,-2.52,-2.5527,-2.6071,-2.6332,-2.6467,-2.6509,-2.652,-2.6467,-2.6509,-2.652,-2.6561,-2.6603,-2.6768,-2.685,-2.685,-2.7003,-2.7144,-2.7144,-2.7185,-2.7267,-2.7452,-2.7482,-2.7563,-2.7719,-2.78,-2.7881,-2.8002,-2.8578,-2.8934,-2.9013,-2.9013,-2.8973,-2.8973,-2.9013,-2.9025,-2.8924,-2.846,-2.7935,-2.7458,-2.6858,-2.6164,-2.5788,-2.5548,-2.5465,-2.543,-2.5382,-2.5418,-2.5465,-2.5465,-2.55,-2.5606,-2.5921,-2.6198,-2.6577,-2.6679,-2.6748,-2.693,-2.71,-2.7201,-2.7335,-2.751,-2.7334,-2.6837,-2.6463,-2.6176,-2.5853,-2.549,-2.5425,-2.3101,-2.3101,-2.3101,-2.3101,-2.3101,-2.3101,-2.3101,-2.3101,-2.3101,-2.3101,-2.3101,-2.3101,-2.3101,-2.3101,-2.3101,-2.3101,-2.3101,-2.3101,-2.3101,-2.3101,-2.3101,-2.3101,-2.3101,-2.3101,-2.3144,-2.3232,-2.3232,-2.3232,-2.3266,-2.3309,-2.3406,-2.359,-2.358,-2.3667,-2.3807,-2.3754,-2.3841,-2.3884,-2.3927,-2.4013,-2.41,-2.4176,-2.4176,-2.4186,-2.4176,-2.4176,-2.4229,-2.4487,-2.4914,-2.5401,-2.5538,-2.558,-2.5622,-2.5622,-2.5706,-2.5832,-2.5832,-2.5884,-2.6063,-2.6146,-2.6199,-2.6146,-2.626,-2.6302,-2.6445,-2.6434,-2.6569,-2.6757,-2.6839,-2.688,-2.6974,-2.7097,-2.7249,-2.7615,-2.799,-2.8231,-2.8271,-2.8231,-2.8243,-2.8243,-2.8243,-2.8283,-2.8116,-2.752,-2.6912,-2.659,-2.5982,-2.5326,-2.5111,-2.5028,-2.4992,-2.4969,-2.4969,-2.4957,-2.4969,-2.4957,-2.4957,-2.4992,-2.5206,-2.5442,-2.5886,-2.6233,-2.6302,-2.6427,-2.6543,-2.6645,-2.6782,-2.6939,-2.6482,-2.6123,-2.5892,-2.5642,-2.5067,-2.4679,-2.4863,-2.3101,-2.3101,-2.3101,-2.3101,-2.3101,-2.3101,-2.3101,-2.3101,-2.3101,-2.3101,-2.3101,-2.3101,-2.3101,-2.3101,-2.3101,-2.3101,-2.3101,-2.3101,-2.3101,-2.3091,-2.3003,-2.3013,-2.3047,-2.3101,-2.3101,-2.3101,-2.3091,-2.3101,-2.3091,-2.3101,-2.3188,-2.3329,-2.3319,-2.3396,-2.3493,-2.3493,-2.358,-2.3677,-2.3677,-2.3711,-2.3797,-2.3797,-2.3797,-2.3797,-2.3797,-2.3797,-2.3841,-2.4057,-2.4487,-2.5031,-2.52,-2.52,-2.52,-2.52,-2.5242,-2.5369,-2.5369,-2.5454,-2.5549,-2.5633,-2.5633,-2.5601,-2.5601,-2.5675,-2.5737,-2.5779,-2.5874,-2.6093,-2.6124,-2.6249,-2.6426,-2.6633,-2.6891,-2.7085,-2.726,-2.7516,-2.7852,-2.7921,-2.7881,-2.7881,-2.7881,-2.7881,-2.7857,-2.6941,-2.6447,-2.6167,-2.5521,-2.5,-2.461,-2.4574,-2.4502,-2.4465,-2.4381,-2.4345,-2.4334,-2.4334,-2.4454,-2.449,-2.467,-2.4885,-2.5218,-2.5664,-2.5851,-2.5921,-2.6013,-2.6117,-2.6255,-2.628,-2.5963,-2.5635,-2.5371,-2.4959,-2.4416,-2.4131,-2.4305,-2.3101,-2.3101,-2.3101,-2.3101,-2.3101,-2.3101,-2.3101,-2.3101,-2.3101,-2.3101,-2.3101,-2.3101,-2.3101,-2.3101,-2.3101,-2.3101,-2.3101,-2.3101,-2.3101,-2.3013,-2.2882,-2.2838,-2.2916,-2.2916,-2.2969,-2.2969,-2.3003,-2.3057,-2.3057,-2.3057,-2.3101,-2.3144,-2.3135,-2.3091,-2.3178,-2.3144,-2.3222,-2.3406,-2.346,-2.3493,-2.3614,-2.3624,-2.3624,-2.3624,-2.3624,-2.3667,-2.3711,-2.3841,-2.4186,-2.4978,-2.5062,-2.4988,-2.4988,-2.5031,-2.5031,-2.4988,-2.4946,-2.4946,-2.5031,-2.4988,-2.5031,-2.4988,-2.5031,-2.5073,-2.5073,-2.5115,-2.52,-2.5496,-2.5454,-2.5664,-2.5999,-2.629,-2.6479,-2.655,-2.6561,-2.6974,-2.7516,-2.776,-2.776,-2.776,-2.776,-2.776,-2.7444,-2.6882,-2.6107,-2.5538,-2.4962,-2.447,-2.42,-2.4164,-2.4007,-2.3861,-2.3776,-2.3703,-2.3666,-2.3703,-2.3824,-2.3982,-2.42,-2.4406,-2.4647,-2.4993,-2.5288,-2.5442,-2.5512,-2.5606,-2.5734,-2.5628,-2.5444,-2.5203,-2.4956,-2.4368,-2.3809,-2.3744,-2.3822,-2.3101,-2.3101,-2.3101,-2.3101,-2.3101,-2.3101,-2.3101,-2.3101,-2.3101,-2.3101,-2.3101,-2.3101,-2.3101,-2.3101,-2.3101,-2.3101,-2.3101,-2.3047,-2.3013,-2.2847,-2.2618,-2.253,-2.2564,-2.2564,-2.2564,-2.2608,-2.275,-2.2838,-2.2882,-2.2969,-2.3091,-2.3047,-2.3047,-2.3091,-2.3047,-2.3047,-2.3091,-2.3178,-2.3188,-2.3188,-2.3232,-2.3222,-2.3276,-2.3276,-2.3276,-2.3363,-2.3547,-2.359,-2.3754,-2.4003,-2.4133,-2.4176,-2.4176,-2.4176,-2.4176,-2.4219,-2.4186,-2.4143,-2.4143,-2.4176,-2.4133,-2.4176,-2.4219,-2.4176,-2.4411,-2.4454,-2.4625,-2.4914,-2.502,-2.5115,-2.5411,-2.5686,-2.5895,-2.6021,-2.6177,-2.6396,-2.6768,-2.6933,-2.6974,-2.6933,-2.6921,-2.6755,-2.6329,-2.5916,-2.5308,-2.4839,-2.4408,-2.394,-2.3787,-2.3751,-2.3593,-2.3409,-2.3335,-2.3298,-2.3298,-2.3298,-2.3409,-2.353,-2.3751,-2.397,-2.4213,-2.4431,-2.4766,-2.4885,-2.4969,-2.5099,-2.5288,-2.5346,-2.5232,-2.4893,-2.4558,-2.4159,-2.3797,-2.359,-2.3588,-2.3101,-2.3101,-2.3101,-2.3101,-2.3101,-2.3101,-2.3101,-2.3101,-2.3101,-2.3101,-2.3101,-2.3101,-2.3101,-2.3101,-2.3091,-2.3047,-2.2925,-2.2828,-2.2706,-2.2583,-2.2397,-2.2274,-2.222,-2.2176,-2.2176,-2.2353,-2.2539,-2.2618,-2.2662,-2.2706,-2.275,-2.274,-2.2784,-2.274,-2.2794,-2.2784,-2.274,-2.275,-2.2784,-2.2784,-2.2784,-2.2784,-2.2882,-2.2925,-2.2969,-2.3101,-2.3276,-2.3319,-2.3363,-2.345,-2.3493,-2.357,-2.3754,-2.3797,-2.3797,-2.3797,-2.3797,-2.3797,-2.3797,-2.3797,-2.3841,-2.3797,-2.3797,-2.3884,-2.398,-2.4024,-2.411,-2.4305,-2.4391,-2.4487,-2.4828,-2.5253,-2.5475,-2.5549,-2.5675,-2.5853,-2.6104,-2.6396,-2.6603,-2.6603,-2.6644,-2.6334,-2.5889,-2.5273,-2.487,-2.4585,-2.4108,-2.3641,-2.3482,-2.3409,-2.3224,-2.3075,-2.3038,-2.2964,-2.2964,-2.2964,-2.3038,-2.315,-2.3287,-2.3519,-2.3776,-2.4007,-2.4261,-2.4381,-2.4526,-2.4718,-2.4909,-2.4945,-2.4921,-2.4525,-2.4239,-2.4011,-2.3892,-2.3722,-2.3853,-2.3101,-2.3101,-2.3101,-2.3101,-2.3101,-2.3101,-2.3101,-2.3101,-2.3101,-2.3101,-2.3101,-2.3101,-2.3101,-2.3101,-2.3057,-2.2925,-2.2706,-2.2485,-2.2407,-2.2362,-2.2141,-2.2052,-2.1963,-2.1874,-2.1874,-2.2211,-2.2309,-2.2353,-2.2353,-2.2388,-2.2485,-2.2432,-2.2432,-2.2476,-2.2441,-2.2397,-2.2476,-2.2485,-2.2485,-2.2485,-2.2476,-2.2476,-2.2574,-2.2706,-2.275,-2.2794,-2.2916,-2.296,-2.3013,-2.3013,-2.3013,-2.3222,-2.3484,-2.3657,-2.3701,-2.3667,-2.3624,-2.3614,-2.3614,-2.3624,-2.3667,-2.3677,-2.3624,-2.358,-2.358,-2.3537,-2.358,-2.3711,-2.3841,-2.4057,-2.4368,-2.4786,-2.5041,-2.5126,-2.5158,-2.5338,-2.5559,-2.6063,-2.626,-2.6437,-2.6351,-2.6099,-2.5598,-2.5025,-2.4637,-2.4256,-2.3783,-2.3383,-2.3224,-2.3038,-2.2889,-2.2815,-2.274,-2.2703,-2.2703,-2.2665,-2.2703,-2.2777,-2.2879,-2.3075,-2.3261,-2.3335,-2.3556,-2.397,-2.4152,-2.4309,-2.4454,-2.4539,-2.4436,-2.4085,-2.4034,-2.4,-2.3944,-2.3875,-2.4022,-2.3101,-2.3101,-2.3101,-2.3101,-2.3101,-2.3101,-2.3101,-2.3101,-2.3101,-2.3101,-2.3101,-2.3101,-2.3091,-2.3057,-2.2882,-2.2706,-2.2485,-2.223,-2.215,-2.2097,-2.1874,-2.1741,-2.1696,-2.1562,-2.1517,-2.166,-2.1874,-2.2087,-2.2132,-2.2309,-2.222,-2.2353,-2.2299,-2.2299,-2.2299,-2.2397,-2.2264,-2.2211,-2.2211,-2.2255,-2.2309,-2.2309,-2.2353,-2.2476,-2.2485,-2.253,-2.253,-2.253,-2.253,-2.252,-2.253,-2.2574,-2.2794,-2.3047,-2.3178,-2.3222,-2.3222,-2.3222,-2.3222,-2.3222,-2.3144,-2.3013,-2.3013,-2.2872,-2.274,-2.2706,-2.2969,-2.3232,-2.3537,-2.3841,-2.3937,-2.4358,-2.4583,-2.47,-2.4914,-2.5158,-2.5253,-2.5422,-2.5675,-2.5926,-2.5933,-2.5714,-2.5081,-2.4526,-2.4088,-2.3613,-2.3112,-2.2889,-2.2777,-2.2628,-2.2526,-2.2478,-2.2478,-2.2467,-2.2478,-2.2402,-2.2402,-2.2402,-2.2478,-2.2515,-2.2665,-2.259,-2.2815,-2.3335,-2.3629,-2.3776,-2.3934,-2.4152,-2.4156,-2.3998,-2.4003,-2.4013,-2.3976,-2.3961,-2.3869,-2.3101,-2.3101,-2.3101,-2.3101,-2.3101,-2.3101,-2.3101,-2.3101,-2.3101,-2.3101,-2.3057,-2.3013,-2.2925,-2.2882,-2.2706,-2.2441,-2.223,-2.1883,-2.175,-2.1705,-2.1463,-2.132,-2.1365,-2.123,-2.1195,-2.1239,-2.141,-2.1544,-2.1544,-2.1579,-2.1722,-2.1668,-2.1668,-2.1668,-2.1678,-2.1633,-2.1722,-2.1713,-2.1713,-2.1767,-2.1865,-2.2008,-2.2087,-2.222,-2.2264,-2.2309,-2.2397,-2.2397,-2.2397,-2.2397,-2.2397,-2.2397,-2.2476,-2.2564,-2.274,-2.274,-2.274,-2.274,-2.274,-2.274,-2.2696,-2.2618,-2.2574,-2.253,-2.2432,-2.2485,-2.252,-2.2784,-2.3135,-2.345,-2.345,-2.3884,-2.41,-2.4153,-2.4358,-2.4605,-2.4786,-2.4828,-2.5084,-2.5422,-2.5421,-2.5119,-2.4427,-2.3885,-2.3481,-2.3007,-2.2536,-2.2365,-2.2327,-2.2214,-2.2111,-2.2035,-2.2025,-2.1949,-2.1949,-2.1997,-2.1997,-2.2035,-2.2063,-2.2101,-2.2176,-2.2214,-2.244,-2.2815,-2.3038,-2.3224,-2.3593,-2.3861,-2.3861,-2.3897,-2.3826,-2.3834,-2.3977,-2.4003,-2.3932,-2.3101,-2.3101,-2.3101,-2.3101,-2.3101,-2.3101,-2.3101,-2.3101,-2.3101,-2.3047,-2.3013,-2.2882,-2.2759,-2.2627,-2.2397,-2.2132,-2.1919,-2.1526,-2.1338,-2.1293,-2.1141,-2.0997,-2.0997,-2.0952,-2.0907,-2.0826,-2.0772,-2.0862,-2.1087,-2.1123,-2.1033,-2.1132,-2.1042,-2.0997,-2.1087,-2.1177,-2.0997,-2.0997,-2.0997,-2.1096,-2.1329,-2.1463,-2.1642,-2.1874,-2.1874,-2.1909,-2.1989,-2.1989,-2.2087,-2.2087,-2.2132,-2.222,-2.222,-2.2264,-2.2264,-2.2264,-2.2353,-2.2397,-2.2441,-2.2441,-2.2441,-2.2362,-2.2362,-2.2309,-2.2264,-2.222,-2.2353,-2.2432,-2.2696,-2.296,-2.3013,-2.3353,-2.3614,-2.3701,-2.3754,-2.3927,-2.4229,-2.4401,-2.4487,-2.4743,-2.4903,-2.4724,-2.4191,-2.3623,-2.3277,-2.2678,-2.2213,-2.1883,-2.1835,-2.1769,-2.1665,-2.1617,-2.154,-2.1397,-2.1397,-2.1436,-2.1512,-2.1589,-2.1655,-2.1693,-2.1845,-2.1959,-2.2176,-2.2327,-2.2478,-2.2692,-2.3113,-2.3446,-2.3482,-2.3482,-2.3567,-2.3658,-2.3788,-2.3921,-2.395,-2.3101,-2.3101,-2.3101,-2.3101,-2.3101,-2.3101,-2.3101,-2.3101,-2.3101,-2.3013,-2.2847,-2.2803,-2.2627,-2.2353,-2.1954,-2.1696,-2.1472,-2.1239,-2.1051,-2.1006,-2.0907,-2.0862,-2.0907,-2.0826,-2.0555,-2.0374,-2.0147,-2.0464,-2.069,-2.0862,-2.0907,-2.0907,-2.0817,-2.0952,-2.0826,-2.0772,-2.0997,-2.0952,-2.0952,-2.0997,-2.1042,-2.1087,-2.1132,-2.1177,-2.1177,-2.1221,-2.1356,-2.1356,-2.141,-2.1562,-2.1571,-2.1616,-2.1741,-2.1785,-2.1785,-2.1919,-2.2132,-2.2397,-2.2353,-2.2309,-2.2264,-2.2132,-2.2132,-2.1998,-2.1954,-2.1998,-2.2141,-2.2141,-2.2353,-2.252,-2.2618,-2.2916,-2.3091,-2.3309,-2.344,-2.3667,-2.3894,-2.398,-2.411,-2.4143,-2.4348,-2.4429,-2.421,-2.3656,-2.3087,-2.2472,-2.1924,-2.1624,-2.1387,-2.1359,-2.1156,-2.1041,-2.1002,-2.0886,-2.0819,-2.0896,-2.0935,-2.1089,-2.1205,-2.1282,-2.1387,-2.154,-2.1655,-2.1797,-2.1949,-2.2101,-2.244,-2.2703,-2.2964,-2.3113,-2.3187,-2.3372,-2.3618,-2.3751,-2.3824,-2.3101,-2.3101,-2.3101,-2.3101,-2.3101,-2.3101,-2.3101,-2.3101,-2.2969,-2.2882,-2.2759,-2.2495,-2.2185,-2.1874,-2.1616,-2.1374,-2.1141,-2.0916,-2.0736,-2.06,-2.0464,-2.0329,-2.0201,-2.0119,-1.9982,-1.9936,-1.9808,-1.9845,-2.0155,-2.0201,-2.0201,-2.0246,-2.0246,-2.0155,-2.0292,-2.0246,-2.0209,-2.0201,-2.0283,-2.0464,-2.0591,-2.0727,-2.0862,-2.0997,-2.0952,-2.0952,-2.0952,-2.0997,-2.1042,-2.1195,-2.1195,-2.1195,-2.1275,-2.132,-2.132,-2.1311,-2.1454,-2.1722,-2.1945,-2.1998,-2.1954,-2.1909,-2.1865,-2.182,-2.1741,-2.1785,-2.1874,-2.1874,-2.2097,-2.223,-2.2264,-2.253,-2.2652,-2.2828,-2.3057,-2.3232,-2.3406,-2.359,-2.3721,-2.3764,-2.3787,-2.3864,-2.3821,-2.3267,-2.2696,-2.2179,-2.1695,-2.1344,-2.1138,-2.1002,-2.0731,-2.0411,-2.0372,-2.0333,-2.0303,-2.0303,-2.0342,-2.0459,-2.077,-2.0848,-2.0915,-2.1031,-2.1195,-2.131,-2.1464,-2.1655,-2.1807,-2.2138,-2.2553,-2.2703,-2.2815,-2.3001,-2.315,-2.3261,-2.3409,-2.3101,-2.3101,-2.3101,-2.3101,-2.3101,-2.3101,-2.3101,-2.3091,-2.2882,-2.2759,-2.2574,-2.2176,-2.1705,-2.1446,-2.1257,-2.106,-2.0817,-2.06,-2.0337,-2.0119,-1.9945,-1.9808,-1.9762,-1.9671,-1.9633,-1.9487,-1.9533,-1.9479,-1.9396,-1.9442,-1.9533,-1.9587,-1.9716,-1.9671,-1.9625,-1.9671,-1.9716,-1.9716,-1.9853,-1.9982,-2.011,-2.0292,-2.0473,-2.0555,-2.0645,-2.0637,-2.0645,-2.06,-2.06,-2.069,-2.0781,-2.0826,-2.0952,-2.1051,-2.1042,-2.1087,-2.1132,-2.1221,-2.1454,-2.1508,-2.1544,-2.1553,-2.1607,-2.1607,-2.1607,-2.1651,-2.1687,-2.1731,-2.1874,-2.1963,-2.2052,-2.223,-2.2309,-2.2441,-2.2574,-2.275,-2.2925,-2.3101,-2.3144,-2.3144,-2.3178,-2.3276,-2.31,-2.2688,-2.2264,-2.1869,-2.1471,-2.1113,-2.0848,-2.0615,-2.0411,-2.0059,-2.0059,-2.0059,-2.002,-1.9981,-1.9902,-1.9942,-2.0255,-2.0411,-2.0489,-2.0605,-2.076,-2.0886,-2.1051,-2.1244,-2.1425,-2.1835,-2.2176,-2.2289,-2.2365,-2.2478,-2.2628,-2.2767,-2.299,-2.3101,-2.3101,-2.3101,-2.3101,-2.3101,-2.3101,-2.3101,-2.3057,-2.2891,-2.2627,-2.2318,-2.1785,-2.1482,-2.1257,-2.0934,-2.0609,-2.0337,-2.0073,-1.9891,-1.9716,-1.9633,-1.9579,-1.9487,-1.9442,-1.9442,-1.9242,-1.9196,-1.9066,-1.892,-1.8881,-1.9166,-1.9541,-1.9442,-1.9533,-1.9533,-1.9442,-1.9487,-1.9496,-1.9541,-1.9579,-1.9671,-1.9716,-1.9754,-1.9762,-1.9762,-1.9716,-1.9716,-1.9808,-1.9945,-2.011,-2.0246,-2.0428,-2.0564,-2.069,-2.0727,-2.0727,-2.0772,-2.0826,-2.0916,-2.1096,-2.1087,-2.1141,-2.1239,-2.1437,-2.1482,-2.1607,-2.1696,-2.1687,-2.1785,-2.1785,-2.183,-2.1963,-2.2087,-2.2176,-2.2264,-2.2441,-2.253,-2.2574,-2.2618,-2.252,-2.2608,-2.2784,-2.279,-2.2461,-2.2042,-2.1689,-2.1004,-2.0605,-2.0303,-2.0098,-2.002,-1.9863,-1.9902,-1.9902,-1.9893,-1.9814,-1.9745,-1.9745,-1.9942,-1.9981,-1.9981,-2.0137,-2.0372,-2.0489,-2.0644,-2.0848,-2.1002,-2.1185,-2.1454,-2.1769,-2.1959,-2.2063,-2.2252,-2.244,-2.2654,-2.3101,-2.3101,-2.3101,-2.3101,-2.3101,-2.3101,-2.3013,-2.2882,-2.2662,-2.2274,-2.1794,-2.1526,-2.1159,-2.0798,-2.0572,-2.0246,-1.9891,-1.9762,-1.9579,-1.9433,-1.9342,-1.925,-1.9204,-1.9112,-1.8982,-1.8835,-1.8743,-1.8643,-1.8411,-1.8411,-1.8458,-1.8689,-1.902,-1.9066,-1.9112,-1.9112,-1.9112,-1.9112,-1.912,-1.9204,-1.9333,-1.9387,-1.9433,-1.9579,-1.9587,-1.9587,-1.9633,-1.9587,-1.9625,-1.9716,-1.9799,-1.9936,-2.0027,-2.0155,-2.0201,-2.0201,-2.0246,-2.0201,-2.0337,-2.0637,-2.0997,-2.0997,-2.1096,-2.1195,-2.1347,-2.1482,-2.1607,-2.1651,-2.1687,-2.1687,-2.1731,-2.1785,-2.1874,-2.1919,-2.1998,-2.2132,-2.222,-2.2264,-2.2309,-2.2309,-2.2388,-2.2476,-2.2438,-2.2343,-2.1907,-2.1508,-2.0774,-2.018,-1.9908,-1.9706,-1.9666,-1.9657,-1.9657,-1.9618,-1.9618,-1.9578,-1.9539,-1.9587,-1.9676,-1.9666,-1.9706,-1.9902,-2.0098,-2.0177,-2.0216,-2.0342,-2.042,-2.0459,-2.077,-2.1272,-2.1502,-2.1617,-2.1845,-2.2101,-2.2327,-2.3101,-2.3101,-2.3101,-2.3101,-2.3101,-2.3047,-2.2925,-2.2759,-2.2441,-2.1963,-2.1392,-2.1167,-2.0789,-2.0382,-2.0119,-1.9891,-1.9571,-1.9442,-1.9296,-1.9158,-1.902,-1.8881,-1.8743,-1.8643,-1.8558,-1.8381,-1.8381,-1.8272,-1.8179,-1.8133,-1.8179,-1.8272,-1.8411,-1.855,-1.8589,-1.8596,-1.8596,-1.8596,-1.8697,-1.8789,-1.8974,-1.9058,-1.915,-1.9304,-1.9304,-1.9304,-1.9304,-1.9258,-1.9296,-1.9342,-1.9442,-1.9479,-1.9533,-1.9541,-1.9587,-1.9587,-1.9587,-1.9587,-1.9808,-2.0155,-2.0682,-2.0736,-2.0862,-2.1006,-2.1159,-2.1302,-2.1482,-2.1562,-2.1651,-2.1687,-2.1687,-2.1741,-2.1741,-2.182,-2.182,-2.1954,-2.1998,-2.1998,-2.2043,-2.2087,-2.2132,-2.2122,-2.2019,-2.1935,-2.1635,-2.117,-2.0579,-2.0002,-1.9643,-1.9508,-1.9469,-1.942,-1.9371,-1.9332,-1.9292,-1.9371,-1.942,-1.942,-1.9469,-1.9469,-1.9548,-1.9706,-1.9794,-1.9872,-1.9912,-1.9872,-1.999,-2.0137,-2.0489,-2.0886,-2.1118,-2.132,-2.1474,-2.1693,-2.1883,-2.3101,-2.3101,-2.3101,-2.3101,-2.3057,-2.2882,-2.2803,-2.2715,-2.2274,-2.1785,-2.1257,-2.0699,-2.0382,-2.0155,-1.9845,-1.9479,-1.9242,-1.9196,-1.9058,-1.8835,-1.8651,-1.852,-1.8419,-1.8326,-1.8226,-1.8133,-1.8087,-1.8094,-1.804,-1.7947,-1.7994,-1.7994,-1.804,-1.8133,-1.8125,-1.8133,-1.8133,-1.8187,-1.8373,-1.852,-1.8566,-1.8689,-1.8789,-1.8835,-1.8827,-1.8827,-1.8835,-1.8835,-1.8827,-1.8874,-1.9012,-1.9104,-1.9158,-1.9358,-1.945,-1.9496,-1.9487,-1.9533,-1.9625,-1.9845,-2.0065,-2.0337,-2.0555,-2.0744,-2.0843,-2.1077,-2.1392,-2.1472,-2.1607,-2.1687,-2.1687,-2.1687,-2.1687,-2.1731,-2.1776,-2.1776,-2.182,-2.183,-2.1909,-2.1909,-2.182,-2.1713,-2.1585,-2.1454,-2.1225,-2.0842,-2.0283,-1.9865,-1.9543,-1.935,-1.935,-1.9341,-1.9292,-1.9292,-1.9292,-1.9292,-1.9292,-1.9301,-1.9341,-1.9341,-1.9381,-1.942,-1.9508,-1.9597,-1.9636,-1.9627,-1.9745,-1.9902,-2.0177,-2.0459,-2.0809,-2.1051,-2.1167,-2.1282,-2.1464,-2.3101,-2.3101,-2.3101,-2.3013,-2.2925,-2.2847,-2.2715,-2.2432,-2.1919,-2.1383,-2.0934,-2.0473,-2.0073,-1.9808,-1.9525,-1.9196,-1.8966,-1.8797,-1.8658,-1.8612,-1.8326,-1.8272,-1.8179,-1.8087,-1.7994,-1.7854,-1.7815,-1.7714,-1.7559,-1.7613,-1.7613,-1.7567,-1.766,-1.7753,-1.7994,-1.8087,-1.8087,-1.8133,-1.8187,-1.8234,-1.8226,-1.8319,-1.8365,-1.8365,-1.8357,-1.8357,-1.8411,-1.8411,-1.8411,-1.8404,-1.8542,-1.8596,-1.8697,-1.8897,-1.8944,-1.902,-1.9058,-1.915,-1.9288,-1.9471,-1.9608,-1.9973,-2.0292,-2.0518,-2.0708,-2.097,-2.1195,-2.1383,-2.1562,-2.1651,-2.1687,-2.1687,-2.1687,-2.1687,-2.1731,-2.1731,-2.1731,-2.1731,-2.1731,-2.1776,-2.1687,-2.1687,-2.1614,-2.154,-2.1351,-2.0964,-2.0484,-2.0136,-1.9806,-1.9457,-1.935,-1.9301,-1.9292,-1.9292,-1.9292,-1.9292,-1.9292,-1.9292,-1.9292,-1.9292,-1.9292,-1.9292,-1.9332,-1.942,-1.9429,-1.9429,-1.9548,-1.9666,-1.9745,-1.999,-2.0303,-2.0615,-2.077,-2.0848,-2.0992,-2.3101,-2.3091,-2.3013,-2.2935,-2.2803,-2.2715,-2.2441,-2.1998,-2.1463,-2.1015,-2.0564,-2.0201,-1.9837,-1.9479,-1.9196,-1.892,-1.8697,-1.8566,-1.8427,-1.8342,-1.8094,-1.8001,-1.7947,-1.7854,-1.766,-1.7574,-1.7574,-1.7473,-1.7372,-1.7333,-1.7333,-1.7333,-1.7333,-1.752,-1.7707,-1.78,-1.7753,-1.78,-1.7854,-1.7955,-1.8001,-1.804,-1.8133,-1.8133,-1.8133,-1.8133,-1.8087,-1.8087,-1.8087,-1.8087,-1.8133,-1.8179,-1.828,-1.8381,-1.8419,-1.8504,-1.8689,-1.8789,-1.8928,-1.9196,-1.9425,-1.9754,-2.0019,-2.0292,-2.0564,-2.0871,-2.1051,-2.1284,-2.1508,-2.1651,-2.1687,-2.1687,-2.1687,-2.1687,-2.1687,-2.1687,-2.1687,-2.1687,-2.1687,-2.1687,-2.1687,-2.1687,-2.1687,-2.165,-2.1557,-2.1181,-2.0796,-2.0433,-2.0113,-1.9797,-1.9512,-1.9503,-1.9412,-1.9375,-1.9347,-1.9292,-1.9292,-1.9292,-1.9308,-1.9332,-1.9292,-1.9292,-1.9292,-1.9292,-1.9341,-1.935,-1.935,-1.9429,-1.9508,-1.9587,-1.9666,-1.9981,-2.0294,-2.045,-2.0527,-2.3101,-2.3047,-2.2882,-2.2803,-2.2706,-2.2441,-2.1963,-2.1392,-2.1105,-2.0736,-2.0238,-1.9808,-1.9479,-1.9242,-1.8912,-1.8697,-1.852,-1.8427,-1.8288,-1.8048,-1.7815,-1.7721,-1.7621,-1.7481,-1.7426,-1.738,-1.7333,-1.738,-1.7286,-1.7286,-1.7286,-1.7286,-1.7286,-1.738,-1.7426,-1.7419,-1.7419,-1.752,-1.7613,-1.7667,-1.7714,-1.7854,-1.7893,-1.7939,-1.7947,-1.7947,-1.7947,-1.7939,-1.7947,-1.7994,-1.804,-1.8032,-1.8087,-1.8087,-1.8087,-1.8187,-1.8381,-1.8527,-1.8612,-1.8974,-1.9296,-1.9617,-1.9799,-2.0019,-2.0374,-2.0727,-2.0997,-2.1186,-2.1463,-2.1597,-2.1687,-2.1687,-2.1687,-2.1687,-2.1687,-2.1687,-2.1687,-2.1687,-2.1687,-2.1687,-2.1687,-2.1687,-2.1687,-2.1668,-2.165,-2.1485,-2.1165,-2.0991,-2.0634,-2.0149,-1.9962,-1.9897,-1.976,-1.9463,-1.9436,-1.9505,-1.9439,-1.9516,-1.9439,-1.9448,-1.9365,-1.9292,-1.9267,-1.9276,-1.9277,-1.9311,-1.9311,-1.9301,-1.9332,-1.9341,-1.9439,-1.9587,-1.9981,-1.9981,-2.0098,-2.3013,-2.2891,-2.2847,-2.2627,-2.2274,-2.183,-2.1463,-2.1096,-2.069,-2.0329,-1.9973,-1.9517,-1.9279,-1.9188,-1.8789,-1.8574,-1.8388,-1.8148,-1.7908,-1.7721,-1.7574,-1.7481,-1.7387,-1.7333,-1.7286,-1.7286,-1.7286,-1.7286,-1.7286,-1.7286,-1.7286,-1.7286,-1.7286,-1.7286,-1.7286,-1.7286,-1.7286,-1.7333,-1.7426,-1.7426,-1.7434,-1.7567,-1.7613,-1.7613,-1.7613,-1.7613,-1.7613,-1.7613,-1.7567,-1.7567,-1.7567,-1.7613,-1.7807,-1.7815,-1.7861,-1.8087,-1.8334,-1.8481,-1.852,-1.8743,-1.9104,-1.9487,-1.9671,-1.9936,-2.0292,-2.069,-2.0952,-2.1132,-2.141,-2.1642,-2.1687,-2.1687,-2.1687,-2.1687,-2.1687,-2.1687,-2.1687,-2.1687,-2.1687,-2.1687,-2.1687,-2.1687,-2.1687,-2.1687,-2.1668,-2.165,-2.1568,-2.1403,-2.1129,-2.0634,-2.0318,-2.0245,-2.0081,-1.9811,-1.9847,-1.99,-1.9784,-1.9719,-1.9659,-1.9578,-1.9564,-1.9492,-1.9317,-1.9259,-1.9327,-1.9325,-1.9311,-1.9326,-1.9478,-1.9366,-1.9387,-1.9487,-1.9597,-1.9645,-1.9764,-2.2925,-2.2803,-2.2574,-2.2274,-2.1794,-2.1338,-2.097,-2.069,-2.0428,-2.011,-1.9754,-1.9379,-1.9096,-1.8881,-1.8612,-1.8388,-1.8102,-1.7869,-1.7675,-1.7481,-1.738,-1.7333,-1.7333,-1.7286,-1.7286,-1.7286,-1.7286,-1.7286,-1.7286,-1.7286,-1.7286,-1.7286,-1.7286,-1.7286,-1.7286,-1.7286,-1.7286,-1.7286,-1.7333,-1.7286,-1.7286,-1.7286,-1.7286,-1.7286,-1.7286,-1.7286,-1.7286,-1.7286,-1.7286,-1.7286,-1.7286,-1.738,-1.7527,-1.7574,-1.7574,-1.7807,-1.8141,-1.8288,-1.8381,-1.8651,-1.9066,-1.9442,-1.9587,-1.9853,-2.0246,-2.0682,-2.0907,-2.1087,-2.141,-2.1687,-2.1687,-2.1687,-2.1687,-2.1687,-2.1687,-2.1687,-2.1687,-2.1687,-2.1687,-2.1687,-2.1687,-2.1687,-2.1687,-2.1687,-2.1687,-2.1678,-2.1624,-2.1525,-2.1341,-2.0985,-2.0723,-2.0589,-2.0374,-2.015,-2.0186,-2.013,-1.9974,-1.986,-1.9762,-1.9727,-1.9715,-1.9696,-1.9534,-1.946,-1.9422,-1.9443,-1.9467,-1.9652,-1.9752,-1.9611,-1.9524,-1.9653,-1.9669,-1.9512,-1.9613,-2.2759,-2.2671,-2.223,-2.1785,-2.1302,-2.0888,-2.0518,-2.0292,-2.0201,-1.9936,-1.9525,-1.9242,-1.8874,-1.862,-1.8388,-1.8102,-1.7861,-1.7675,-1.7481,-1.7286,-1.7333,-1.7286,-1.7286,-1.7286,-1.7286,-1.7286,-1.7286,-1.7286,-1.7286,-1.7286,-1.7286,-1.7286,-1.7286,-1.7286,-1.7286,-1.7286,-1.7286,-1.7286,-1.7286,-1.7286,-1.7286,-1.7286,-1.7286,-1.7286,-1.7286,-1.7286,-1.7286,-1.7286,-1.7286,-1.7286,-1.7286,-1.7286,-1.7333,-1.7333,-1.7333,-1.752,-1.79,-1.8087,-1.828,-1.855,-1.9066,-1.9396,-1.9587,-1.9853,-2.0246,-2.0727,-2.0943,-2.1087,-2.141,-2.1642,-2.1687,-2.1687,-2.1687,-2.1687,-2.1687,-2.1687,-2.1687,-2.1687,-2.1687,-2.1687,-2.1687,-2.1687,-2.1687,-2.1687,-2.1687,-2.1687,-2.1687,-2.1607,-2.1417,-2.1189,-2.0992,-2.0797,-2.0663,-2.0433,-2.0251,-2.02,-2.0051,-1.9919,-1.9868,-1.992,-1.9939,-1.9895,-1.977,-1.9645,-1.9494,-1.9651,-1.9727,-1.9808,-1.9889,-1.9922,-1.9837,-1.9884,-1.982,-1.9646,-1.9528,-2.2407,-2.223,-2.175,-2.1302,-2.088,-2.0518,-2.0246,-1.9982,-1.9608,-1.9425,-1.9242,-1.8881,-1.8612,-1.8481,-1.8102,-1.7815,-1.7721,-1.7527,-1.7372,-1.7333,-1.7286,-1.7286,-1.7286,-1.7286,-1.7286,-1.7286,-1.7286,-1.7286,-1.7286,-1.7286,-1.7286,-1.7286,-1.7286,-1.7286,-1.7286,-1.7286,-1.7286,-1.7286,-1.7286,-1.7286,-1.7286,-1.7286,-1.7286,-1.7286,-1.7286,-1.7286,-1.7286,-1.7286,-1.7286,-1.7286,-1.7286,-1.7286,-1.7286,-1.7286,-1.7286,-1.738,-1.7807,-1.804,-1.8226,-1.855,-1.902,-1.9396,-1.9625,-1.9899,-2.0246,-2.0727,-2.1033,-2.1177,-2.132,-2.1553,-2.1687,-2.1687,-2.1687,-2.1687,-2.1687,-2.1687,-2.1687,-2.1687,-2.1687,-2.1687,-2.1687,-2.1687,-2.1687,-2.1687,-2.1687,-2.1687,-2.1687,-2.1651,-2.1482,-2.1239,-2.1016,-2.0909,-2.0909,-2.0731,-2.043,-2.0218,-2.0043,-2.0015,-2.0023,-2.0066,-2.0136,-1.9911,-1.9695,-1.9617,-1.9554,-1.9738,-1.9833,-1.982,-1.9887,-2.0054,-2.0101,-2.0084,-2.0138,-2.0043,-1.9774,-2.2132,-2.183,-2.1338,-2.0888,-2.0518,-2.0246,-1.9928,-1.9563,-1.9325,-1.9104,-1.8874,-1.8612,-1.8435,-1.8288,-1.7861,-1.7621,-1.7527,-1.7372,-1.7326,-1.7333,-1.7286,-1.7286,-1.7286,-1.7286,-1.7286,-1.7286,-1.7286,-1.7286,-1.7286,-1.7286,-1.7286,-1.7286,-1.7286,-1.7286,-1.7286,-1.7286,-1.7286,-1.7286,-1.7286,-1.7286,-1.7286,-1.7286,-1.7286,-1.7286,-1.7286,-1.7286,-1.7286,-1.7286,-1.7286,-1.7286,-1.7286,-1.7286,-1.7286,-1.7286,-1.7286,-1.7426,-1.7753,-1.8087,-1.8226,-1.855,-1.902,-1.9396,-1.9587,-1.9808,-2.0246,-2.0682,-2.0943,-2.1132,-2.1454,-2.1687,-2.1687,-2.1687,-2.1687,-2.1687,-2.1687,-2.1687,-2.1687,-2.1687,-2.1687,-2.1687,-2.1687,-2.1687,-2.1687,-2.1687,-2.1687,-2.1651,-2.1651,-2.1463,-2.1338,-2.1167,-2.1015,-2.0826,-2.0772,-2.0591,-2.0217,-2.0056,-2.0065,-2.0068,-2.0073,-1.996,-1.9859,-1.9754,-1.9647,-1.9657,-1.9694,-1.9859,-1.993,-1.9957,-2.0166,-2.0386,-2.0341,-2.0282,-2.0323,-2.0355,-2.0147,-2.183,-2.1508,-2.088,-2.0473,-2.0201,-1.9928,-1.96,-1.9234,-1.9104,-1.8874,-1.852,-1.8435,-1.8234,-1.8048,-1.7768,-1.7527,-1.738,-1.7333,-1.7286,-1.7286,-1.7286,-1.7286,-1.7286,-1.7286,-1.7286,-1.7286,-1.7286,-1.7286,-1.7286,-1.7286,-1.7286,-1.7286,-1.7286,-1.7286,-1.7286,-1.7286,-1.7286,-1.7286,-1.7286,-1.7286,-1.7286,-1.7286,-1.7286,-1.7286,-1.7286,-1.7286,-1.7286,-1.7286,-1.7286,-1.7286,-1.7286,-1.7286,-1.7286,-1.7286,-1.738,-1.7473,-1.7807,-1.8087,-1.8272,-1.8596,-1.9066,-1.9442,-1.9533,-1.9808,-2.0292,-2.0637,-2.0907,-2.1132,-2.1454,-2.1687,-2.1687,-2.1687,-2.1687,-2.1687,-2.1687,-2.1687,-2.1687,-2.1687,-2.1687,-2.1687,-2.1687,-2.1687,-2.1687,-2.1687,-2.1651,-2.1651,-2.1517,-2.1239,-2.106,-2.088,-2.0736,-2.0555,-2.0419,-2.0201,-1.9982,-1.9845,-1.9845,-1.9853,-1.9808,-1.9671,-1.9608,-1.9617,-1.9683,-1.9761,-1.9855,-1.987,-2.003,-2.0142,-2.0397,-2.0504,-2.0571,-2.0457,-2.0474,-2.0516,-2.0458,-2.1302,-2.088,-2.0518,-2.0201,-1.9928,-1.9517,-1.9279,-1.9142,-1.8789,-1.8574,-1.8388,-1.8009,-1.7815,-1.7768,-1.7481,-1.7333,-1.7333,-1.7286,-1.7286,-1.7286,-1.7286,-1.7286,-1.7286,-1.7286,-1.7286,-1.7286,-1.7286,-1.7286,-1.7286,-1.7286,-1.7286,-1.7286,-1.7286,-1.7286,-1.7286,-1.7286,-1.7286,-1.7286,-1.7286,-1.7286,-1.7286,-1.7286,-1.7286,-1.7286,-1.7286,-1.7286,-1.7286,-1.7286,-1.7286,-1.7286,-1.7286,-1.7286,-1.7286,-1.7333,-1.738,-1.7574,-1.79,-1.8187,-1.8419,-1.8689,-1.9112,-1.9487,-1.9625,-1.9853,-2.0292,-2.0727,-2.0952,-2.1087,-2.1365,-2.1642,-2.1687,-2.1687,-2.1687,-2.1687,-2.1687,-2.1687,-2.1687,-2.1687,-2.1687,-2.1687,-2.1687,-2.1687,-2.1687,-2.1696,-2.1607,-2.1571,-2.1428,-2.1203,-2.088,-2.069,-2.0464,-2.0292,-2.011,-2.0027,-1.9891,-1.9625,-1.9579,-1.9579,-1.9487,-1.9304,-1.9304,-1.9579,-1.9625,-1.9571,-1.9625,-1.9704,-1.9882,-2.0073,-2.0192,-2.0294,-2.0574,-2.0667,-2.0623,-2.0624,-2.0607]},{"header":{"parameterUnit":"m.s-1","parameterCategory":1,"la1":31.0,"la2":29.5877,"lo1":-88.7671,"lo2":-86.6584,"dy":0.0162,"dx":0.0185,"nx":115,"ny":88,"refTime":"2024-08-28T06:00:00:Z","depth":0,"parameterNumber":3,"parameterNumberName":"V-component_of_WINDS"},"data":[0.0,0.0,0.0,0.0,0.0,0.0,0.0,0.0,0.0,0.0,0.0,0.0,0.0,0.0,0.0,0.0,0.0,0.0,0.0,0.0,0.0,0.0,0.0,0.0,0.0,0.0,0.0,0.0,0.0,0.0,0.0,0.0,0.0,0.0,0.0,0.0,0.0,0.0,0.0,0.0,0.0,0.0,0.0,0.0,0.0,0.0,0.0,0.0,0.0,0.0,0.0,0.0,0.0,0.0,0.0,0.0,0.0,0.0,0.0,0.0,0.0,0.0,0.0,0.0,0.0,0.0,0.0,0.0,0.0,0.0,0.0,0.0,0.0,0.0,0.0,0.0,0.0,0.0,0.0,0.0,0.0,0.0,0.0,0.0,0.0,0.0,0.0,0.0,0.0,0.0,0.0,0.0,0.0,0.0,0.0,0.0,0.0,0.0,0.0,0.0,0.0,0.0,0.0,0.0,0.0,0.0,0.0,0.0,0.0,0.0,0.0,0.0,0.0,0.0,0.0,0.0,0.0,0.0,0.0,0.0,0.0,0.0,0.0,0.0,0.0,0.0,0.0,0.0,0.0,0.0,0.0,0.0,0.0,0.0,0.0,0.0,0.0,0.0,0.0,0.0,0.0,0.0,0.0,0.0,0.0,0.0,0.0,0.0,0.0,0.0,0.0,0.0,0.0,0.0,0.0,0.0,0.0,0.0,0.0,0.0,0.0,0.0,0.0,0.0,0.0,0.0,0.0,0.0,0.0,0.0,0.0,0.0,0.0,0.0,0.0,0.0,0.0,0.0,0.0,0.0,0.0,0.0,0.0,0.0,0.0,0.0,0.0,0.0,0.0,0.0,0.0,0.0,0.0,0.0,0.0,0.0,0.0,0.0,0.0,0.0,0.0,0.0,0.0,0.0,0.0,0.0,0.0,0.0,0.0,0.0,0.0,0.0,0.0,0.0,0.0,0.0,0.0,0.0,0.0,0.0,0.0,0.0,0.0,0.0,0.0,0.0,0.0,0.0,0.0,0.0,0.0,0.0,0.0,0.0,0.0,0.0,0.0,0.0,0.0,0.0,0.0,0.0,0.0,0.0,0.0,0.0,0.0,0.0,0.0,0.0,0.0,0.0,0.0,0.0,0.0,0.0,0.0,0.0,0.0,0.0,0.0,0.0,0.0,0.0,0.0,0.0,0.0,0.0,0.0,0.0,0.0,0.0,0.0,0.0,0.0,0.0,0.0,0.0,0.0,0.0,0.0,0.0,0.0,0.0,0.0,0.0,0.0,0.0,0.0,0.0,0.0,0.0,0.0,0.0,0.0,0.0,0.0,0.0,0.0,0.0,0.0,0.0,0.0,0.0,0.0,0.0,0.0,0.0,0.0,0.0,0.0,0.0,0.0,0.0,0.0,0.0,0.0,0.0,0.0,0.0,0.0,0.0,0.0,0.0,0.0,0.0,0.0,0.0,0.0,0.0,0.0,0.0,0.0,0.0,0.0,0.0,0.0,0.0,0.0,0.0,0.0,0.0,0.0,0.0,0.0,0.0,0.0,0.0,0.0,0.0,0.0,0.0,0.0,0.0,0.0,0.0,0.0,0.0,0.0,0.0,0.0,0.0,0.0,0.0,0.0,0.0,0.0,0.0,0.0,0.0,0.0,0.0,0.0,0.0,0.0,0.0,0.0,0.0,0.0,0.0,0.0,0.0,0.0,0.0,0.0,0.0,0.0,0.0,0.0,0.0,0.0,0.0,0.0,0.0,0.0,0.0,0.0,0.0,0.0,0.0,0.0,0.0,0.0,0.0,0.0,0.0,0.0,0.0,0.0,0.0,0.0,0.0,0.0,0.0,0.0,0.0,0.0,0.0,0.0,0.0,0.0,0.0,0.0,0.0,0.0,0.0,0.0,0.0,0.0,0.0,0.0,0.0,0.0,0.0,0.0,0.0,0.0,0.0,0.0,0.0,0.0,0.0,0.0,0.0,0.0,0.0,0.0,0.0,0.0,0.0,0.0,0.0,0.0,0.0,0.0,0.0,0.0,0.0,0.0,0.0,0.0,0.0,0.0,0.0,0.0,0.0,0.0,0.0,0.0,0.0,0.0,0.0,0.0,0.0,0.0,0.0,0.0,0.0,0.0,0.0,0.0,0.0,0.0,0.0,0.0,0.0,0.0,0.0,0.0,0.0,0.0,0.0,0.0,0.0,0.0,0.0,0.0,0.0,0.0,0.0,0.0,0.0,0.0,0.0,0.0,0.0,0.0,0.0,0.0,0.0,0.0,0.0,0.0,0.0,0.0,0.0,0.0,0.0,0.0,0.0,0.0,0.0,0.0,0.0,0.0,0.0,0.0,0.0,0.0,0.0,0.0,0.0,0.0,0.0,0.0,0.0,0.0,0.0,0.0,0.0,0.0,0.0,0.0,0.0,0.0,0.0,0.0,0.0,0.0,0.0,0.0,0.0,0.0,0.0,0.0,0.0,0.0,0.0,0.0,0.0,0.0,0.0,0.0,0.0,0.0,0.0,0.0,0.0,0.0,0.0,0.0,0.0,0.0,0.0,0.0,0.0,0.0,0.0,0.0,0.0,0.0,0.0,0.0,0.0,0.0,0.0,0.0,0.0,0.0,0.0,0.0,0.0,0.0,0.0,0.0,0.0,0.0,0.0,0.0,0.0,0.0,0.0,0.0,0.0,0.0,0.0,0.0,0.0,0.0,0.0,0.0,0.0,0.0,0.0,0.0,0.0,0.0,0.0,0.0,0.0,0.0,0.0,0.0,0.0,0.0,0.0,0.0,0.0,0.0,0.0,0.0,0.0,0.0,0.0,0.0,0.0,0.0,0.0,0.0,0.0,0.0,0.0,0.0,0.0,0.0,0.0,0.0,0.0,0.0,0.0,0.0,0.0,0.0,0.0,0.0,0.0,0.0,0.0,0.0,0.0,0.0,0.0,0.0,0.0,0.0,0.0,0.0,0.0,0.0,0.0,0.0,0.0,0.0,0.0,0.0,0.0,0.0,0.0,0.0,0.0,0.0,0.0,0.0,0.0,0.0,0.0,0.0,0.0,0.0,0.0,0.0,0.0,0.0,0.0,0.0,0.0,0.0,0.0,0.0,0.0,0.0,0.0,0.0,0.0,0.0,0.0,0.0,0.0,0.0,0.0,0.0,0.0,0.0,0.0,0.0,0.0,0.0,0.0,0.0,0.0,0.0,0.0,0.0,0.0,0.0,0.0,0.0,0.0,0.0,0.0,0.0,0.0,0.0,0.0,0.0,0.0,0.0,0.0,0.0,0.0,0.0,0.0,0.0,0.0,0.0,0.0,0.0,0.0,0.0,0.0,0.0,0.0,0.0,0.0,0.0,0.0,0.0,0.0,0.0,0.0,0.0,0.0,0.0,0.0,0.0,0.0,0.0,0.0,0.0,0.0,0.0,0.0,0.0,0.0,0.0,0.0,0.0,0.0,0.0,0.0,0.0,0.0,0.0,0.0,0.0,0.0,0.0,0.0,0.0,0.0,0.0,0.0,0.0,0.0,0.0,0.0,0.0,0.0,0.0,0.0,0.0,0.0,0.0,0.0,0.0,0.0,0.0,0.0,0.0,0.0,0.0,0.0,0.0,0.0,0.0,0.0,0.0,0.0,0.0,0.0,0.0,0.0,0.0,0.0,0.0,0.0,0.0,0.0,0.0,0.0,0.0,0.0,0.0,0.0,0.0,0.0,0.0,0.0,0.0,0.0,0.0,0.0,0.0,0.0,0.0,0.0,0.0,0.0,0.0,0.0,0.0,0.0,0.0,0.0,0.0,0.0,0.0,0.0,0.0,0.0,0.0,0.0,0.0,0.0,0.0,0.0,0.0,0.0,0.0,0.0,0.0,0.0,0.0,0.0,0.0,0.0,0.0,0.0,0.0,0.0,0.0,0.0,0.0,0.0,0.0,0.0,0.0,0.0,0.0,0.0,0.0,0.0,0.0,0.0,0.0,0.0,0.0,0.0,0.0,0.0,0.0,0.0,0.0,0.0,0.0,0.0,0.0,0.0,0.0,0.0,0.0,0.0,0.0,0.0,0.0,0.0,0.0,0.0,0.0,0.0,0.0,0.0,0.0,0.0,0.0,0.0,0.0,0.0,0.0,0.0,0.0,0.0,0.0,0.0,0.0,0.0,0.0,0.0,0.0,0.0,0.0,0.0,0.0,0.0,0.0,0.0,0.0,0.0,0.0,0.0,0.0,0.0,0.0,0.0,0.0,0.0,0.0,0.0,0.0,0.0,0.0,0.0,0.0,0.0,0.0,0.0,0.3438,0.0,0.0,0.0,0.0,0.0,0.0,0.0,0.0,0.0,0.0,0.0,0.0,0.0,0.0,0.0,0.0,0.0,0.0,0.0,0.0,0.0,0.0,0.0,0.0,0.0,0.0,0.0,0.0,0.0,0.0,0.0,0.0,0.0,0.0,0.0,0.0,0.0,0.0,0.0,0.0,0.0,0.0,0.0,0.0,0.0,0.0,0.0,0.0,0.0,0.0,0.0,0.0,0.0,0.0,0.0,0.0,0.0,0.0,0.0,0.0,0.0,0.0,0.0,0.0,0.0,0.0,0.0,0.0,0.0,0.0,0.0,0.0,0.0,0.0,0.0,0.0,0.0,0.0,0.0,0.0,0.0,0.0,0.0,0.0,0.0,0.0,0.0,0.0,0.0,0.0,0.0,0.0,0.0,0.0,0.0,0.0,0.0,0.0,0.0,0.0,0.0,0.0,0.0,0.0,0.0,0.0,0.0,0.0,0.0,0.0,0.4567,0.451,0.4083,0.3716,0.3511,0.0,0.0,0.0,0.0,0.0,0.0,0.0,0.0,0.0,0.0,0.0,0.0,0.0,0.0,0.0,0.0,0.0,0.0,0.0,0.0,0.0,0.0,0.0,0.0,0.0,0.0,0.0,0.0,0.0,0.0,0.0,0.0,0.0,0.0,0.0,0.0,0.0,0.0,0.0,0.0,0.0,0.0,0.0,0.0,0.0,0.0,0.0,0.0,0.0,0.0,0.0,0.0,0.0,0.0,0.0,0.0,0.0,0.0,0.0,0.0,0.0,0.0,0.0,0.0,0.0,0.0,0.0,0.0,0.0,0.0,0.0,0.0,0.0,0.0,0.0,0.0,0.0,0.0,0.0,0.0,0.0,0.0,0.0,0.0,0.0,0.0,0.0,0.0,0.0,0.0,0.0,0.0,0.0,0.0,0.0,0.0,0.0,0.0,0.0,0.0,0.0,0.0,0.0,0.0,0.0,0.0,0.0,0.0,0.0,0.0,0.0,0.0,0.404,0.373,0.3525,0.0,0.0,0.0,0.0,0.0,0.0,0.0,0.0,0.0,0.0,0.0,0.0,0.0,0.0,0.0,0.0,0.0,0.0,0.0,0.0,0.0,0.0,0.0,0.0,0.0,0.0,0.0,0.0,0.0,0.0,0.0,0.0,0.0,0.0,0.0,0.0,0.0,0.0,0.0,0.0,0.0,0.0,0.0,0.0,0.0,0.0,0.0,0.0,0.0,0.0,0.0,0.0,0.0,0.0,0.0,0.0,0.0,0.0,0.0,0.0,0.0,0.0,0.0,0.0,0.0,0.0,0.0,0.0,0.0,0.0,0.0,0.0,0.0,0.0,0.0,0.0,0.0,0.0,0.0,0.0,0.0,0.0,0.0,0.0,0.0,0.0,0.0,0.0,0.0,0.0,0.0,0.0,0.0,0.0,0.0,0.0,0.0,0.0,0.0,0.0,0.0,0.0,0.0,0.0,0.0,0.0,0.0,0.0,0.0,0.0,0.4541,0.4668,0.4172,0.0,0.327,0.0,0.0,0.0,0.0,0.0,0.0,0.0,0.0,0.0,0.0,0.0,0.0,0.0,0.0,0.0,0.0,0.0,0.0,0.0,0.0,0.0,0.0,0.0,0.0,0.0,0.0,0.0,0.0,0.0,0.0,0.0,0.0,0.0,0.0,0.0,0.0,0.0,0.0,0.0,0.0,0.0,0.0,0.0,0.0,0.0,0.0,0.0,0.0,0.0,0.0,0.0,0.0,0.0,0.0,0.0,0.0,0.0,0.0,0.0,0.0,0.0,0.0,0.0,0.0,0.0,0.0,0.0,0.0,0.0,0.0,0.0,0.0,0.0,0.0,0.0,0.0,0.0,0.0,0.0,0.0,0.0,0.0,0.0,0.0,0.0,0.0,0.0,0.0,0.0,0.0,0.0,0.0,0.0,0.0,0.0,0.0,0.0,0.0,0.0,0.0,0.0,0.0,0.0,0.0,0.0,0.0,0.0,0.0,0.0,0.0,0.4658,0.4701,0.4069,0.3575,0.0,0.0,0.0,0.0,0.0,0.0,0.0,0.0,0.0,0.0,0.0,0.0,0.0,0.0,0.0,0.0,0.0,0.0,0.0,0.0,0.0,0.0,0.0,0.0,0.0,0.0,0.0,0.0,0.0,0.0,0.0,0.0,0.0,0.0,0.0,0.0,0.0,0.0,0.0,0.0,0.0,0.0,0.0,0.0,0.0,0.0,0.0,0.0,0.0,0.0,0.0,0.0,0.0,0.0,0.0,0.0,0.0,0.0,0.0,0.0,0.0,0.0,0.0,0.0,0.0,0.0,0.0,0.0,0.0,0.0,0.0,0.0,0.0,0.0,0.0,0.0,0.0,0.0,0.0,0.0,0.0,0.0,0.0,0.0,0.0,0.0,0.0,0.0,0.0,0.0,0.0,0.0,0.0,0.0,0.0,0.0,0.0,0.0,0.0,0.0,0.0,0.0,0.0,0.0,0.0,0.0,0.0,0.0,0.0,0.0,0.5074,0.4634,0.4531,0.3983,0.3491,0.3174,0.0,0.0,0.0,0.0,0.0,0.0,0.0,0.0,0.0,0.0,0.0,0.0,0.0,0.0,0.0,0.0,0.0,0.0,0.0,0.0,0.0,0.0,0.0,0.0,0.0,0.0,0.0,0.0,0.0,0.0,0.0,0.0,0.0,0.0,0.0,0.0,0.0,0.0,0.0,0.0,0.0,0.0,0.0,0.0,0.0,0.0,0.0,0.0,0.0,0.0,0.0,0.0,0.0,0.0,0.0,0.0,0.0,0.0,0.0,0.0,0.0,0.0,0.0,0.0,0.0,0.0,0.0,0.0,0.0,0.0,0.0,0.0,0.0,0.0,0.0,0.0,0.0,0.0,0.0,0.0,0.0,0.0,0.0,0.0,0.0,0.0,0.0,0.0,0.0,0.0,0.0,0.0,0.0,0.0,0.0,0.0,0.0,0.0,0.0,0.0,0.0,0.0,0.0,0.0,0.0,0.0,0.0,0.0,0.5604,0.5037,0.4542,0.4247,0.3865,0.3494,0.0,0.0,0.0,0.0,0.0,0.0,0.0,0.0,0.0,0.0,0.0,0.0,0.0,0.0,0.0,0.0,0.0,0.0,0.0,0.0,0.0,0.0,0.0,0.0,0.0,0.0,0.0,0.0,0.0,0.0,0.0,0.0,0.0,0.0,0.0,0.0,0.0,0.0,0.0,0.0,0.0,0.0,0.0,0.0,0.0,0.0,0.0,0.0,0.0,0.0,0.0,0.0,0.0,0.0,0.0,0.0,0.0,0.0,0.0,0.0,0.0,0.0,0.0,0.0,0.0,0.0,0.0,0.0,0.0,0.0,0.0,0.0,0.0,0.0,0.0,0.0,0.0,0.0,0.0,0.0,0.0,0.0,0.0,0.0,0.0,0.0,0.0,0.0,0.0,0.0,0.0,0.0,0.0,0.0,0.0,0.0,0.0,0.0,0.0,0.0,0.0,0.0,0.0,0.0,0.0,0.0,0.0,0.0,0.0,0.5865,0.5218,0.4583,0.3952,0.3655,0.3295,0.0,0.0,0.0,0.0,0.0,0.0,0.0,0.0,0.0,0.0,0.0,0.0,0.0,0.0,0.0,0.0,0.0,0.0,0.0,0.0,0.0,0.0,0.0,0.0,0.0,0.0,0.0,0.0,0.0,0.0,0.0,0.0,0.0,0.0,0.0,0.0,0.0,0.0,0.0,0.0,0.0,0.0,0.0,0.0,0.0,0.0,0.0,0.0,0.0,0.0,0.0,0.0,0.0,0.0,0.0,0.0,0.0,0.0,0.0,0.0,0.0,0.0,0.0,0.0,0.0,0.0,0.0,0.0,0.0,0.0,0.0,0.0,0.0,0.0,0.0,0.0,0.0,0.0,0.0,0.0,0.0,0.0,0.0,0.0,0.0,0.0,0.0,0.0,0.0,0.0,0.0,0.0,0.0,0.0,0.0,0.0,0.0,0.0,0.0,0.0,0.0,0.0,0.0,0.0,0.0,0.0,0.0,0.0,0.0,0.5759,0.0,0.4539,0.0,0.3541,0.3195,0.0,0.0,0.0,0.0,0.0,0.0,0.0,0.0,0.0,0.0,0.0,0.0,0.0,0.0,0.0,0.0,0.0,0.0,0.0,0.0,0.0,0.0,0.0,0.0,0.0,0.0,0.0,0.0,0.0,0.0,0.0,0.0,0.0,0.0,0.0,0.0,0.0,0.0,0.0,0.0,0.0,0.0,0.0,0.0,0.0,0.0,0.0,0.0,0.0,0.0,0.0,0.0,0.0,0.0,0.0,0.0,0.0,0.0,0.0,0.0,0.0,0.0,0.0,0.0,0.0,0.0,0.0,0.0,0.0,0.0,0.0,0.0,0.0,0.0,0.0,0.0,0.0,0.0,0.0,0.0,0.0,0.0,0.0,0.0,0.0,0.0,0.0,0.0,0.0,0.0,0.0,0.0,0.0,0.0,0.0,0.0,0.0,0.0,0.0,0.0,0.0,0.0,0.0,0.0,0.0,0.0,0.0,0.0,0.6305,0.5241,0.4877,0.4442,0.39,0.3572,0.3285,0.0,0.0,0.0,0.0,0.0,0.0,0.0,0.0,0.0,0.0,0.0,0.0,0.0,0.0,0.0,0.0,0.0,0.0,0.0,0.0,0.0,0.0,0.0,0.0,0.0,0.0,0.0,0.0,0.0,0.0,0.0,0.0,0.0,0.0,0.0,0.0,0.0,0.0,0.0,0.0,0.0,0.0,0.0,0.0,0.0,0.0,0.0,0.0,0.0,0.0,0.0,0.0,0.0,0.0,0.0,0.0,0.0,0.0,0.0,0.0,0.0,0.0,0.0,0.0,0.0,0.0,0.0,0.0,0.0,0.0,0.0,0.0,0.0,0.0,0.0,0.0,0.0,0.0,0.0,0.0,0.0,0.0,0.0,0.0,0.0,0.0,0.0,0.0,0.0,0.0,0.0,0.0,0.0,0.0,0.0,0.0,0.0,0.0,0.0,0.0,0.0,0.0,0.0,0.0,0.0,0.0,0.0,0.0,0.0,0.597,0.533,0.4665,0.4068,0.365,0.3212,0.0,0.0,0.0,0.0,0.0,0.0,0.0,0.0,0.0,0.0,0.0,0.0,0.0,0.0,0.0,0.0,0.0,0.0,0.0,0.0,0.0,0.0,0.0,0.0,0.0,0.0,0.0,0.0,0.0,0.0,0.0,0.0,0.0,0.0,0.0,0.0,0.0,0.0,0.0,0.0,0.0,0.0,0.0,0.0,0.0,0.0,0.0,0.0,0.0,0.0,0.0,0.0,0.0,0.0,0.0,0.0,0.0,0.0,0.0,0.0,0.0,0.0,0.0,0.0,0.0,0.0,0.0,0.0,0.0,0.0,0.0,0.0,0.0,0.0,0.0,0.0,0.0,0.0,0.0,0.0,0.0,0.0,0.0,0.0,0.0,0.0,0.0,0.0,0.0,0.0,0.0,0.0,0.0,0.0,0.0,0.0,0.0,0.0,0.0,0.0,0.0,0.0,0.0,0.0,0.0,0.0,0.0,0.0,0.0,0.6617,0.5737,0.4928,0.411,0.3846,0.3404,0.2802,0.0,0.0,0.0,0.0,0.0,0.0,0.0,0.0,0.0,0.0,0.0,0.0,0.0,0.0,0.0,0.0,0.0,0.0,0.0,0.0,0.0,0.0,0.0,0.0,0.0,0.0,0.0,0.0,0.0,0.0,0.0,0.0,0.0,0.0,0.0,0.0,0.0,0.0,0.0,0.0,0.0,0.0,0.0,0.0,0.0,0.0,0.0,0.0,0.0,0.0,0.0,0.0,0.0,0.0,0.0,0.0,0.0,0.0,0.0,0.0,0.0,0.0,0.0,0.0,0.0,0.0,0.0,0.0,0.0,0.0,0.0,0.0,0.0,0.0,0.0,0.0,0.0,0.0,0.0,0.0,0.0,0.0,0.0,0.0,0.0,0.0,0.0,0.0,0.0,0.0,0.0,0.0,0.0,0.0,0.0,0.0,0.0,0.0,0.0,0.0,0.0,0.0,0.0,0.0,0.0,0.0,0.0,0.0,0.7161,0.6233,0.5244,0.4222,0.4044,0.3701,0.0,0.0,0.0,0.0,0.0,0.0,0.0,0.0,0.0,0.0,0.0,0.0,0.0,0.0,0.0,0.0,0.0,0.0,0.0,0.0,0.0,0.0,0.0,0.0,0.0,0.0,0.0,0.0,0.0,0.0,0.0,0.0,0.0,0.0,0.0,0.0,0.0,0.0,0.0,0.0,0.0,0.0,0.0,0.0,0.0,0.0,0.0,0.0,0.0,0.0,0.0,0.0,0.0,0.0,0.0,0.0,0.0,0.0,0.0,0.0,0.0,0.0,0.0,0.0,0.0,0.0,0.0,0.0,0.0,0.0,0.0,0.0,0.0,0.0,0.0,0.0,0.0,0.0,0.0,0.0,0.0,0.0,0.0,0.0,0.0,0.0,0.0,0.0,0.0,0.0,0.0,0.0,0.0,0.0,0.0,0.0,0.0,0.0,0.0,0.0,0.0,0.0,0.0,0.0,0.0,0.0,0.0,0.0,0.0,0.7688,0.7124,0.619,0.4873,0.4342,0.3913,0.0,0.0,0.0,0.0,0.0,0.0,0.0,0.0,0.0,0.0,0.0,0.0,0.0,0.0,0.0,0.0,0.0,0.0,0.0,0.0,0.0,0.0,0.0,0.0,0.0,0.0,0.0,0.0,0.0,0.0,0.0,0.0,0.0,0.0,0.0,0.0,0.0,0.0,0.0,0.0,0.0,0.0,0.0,0.0,0.0,0.0,0.0,0.0,0.0,0.0,0.0,0.0,0.0,0.0,0.0,0.0,0.0,0.0,0.0,0.0,0.0,0.0,0.0,0.0,0.0,0.0,0.0,0.0,0.0,0.0,0.0,0.0,0.0,0.0,0.0,0.0,0.0,0.0,0.0,0.0,0.0,0.0,0.0,0.0,0.0,0.0,0.0,0.0,0.0,0.0,0.0,0.0,0.0,0.0,0.0,0.0,0.0,0.0,0.0,0.0,0.0,0.0,0.0,0.0,0.0,0.0,0.0,0.0,0.8707,0.8062,0.757,0.6851,0.5847,0.5013,0.4451,0.0,0.0,0.0,0.0,0.0,0.0,0.0,0.0,0.0,0.0,0.0,0.0,0.0,0.0,0.0,0.0,0.0,0.0,0.0,0.0,0.0,0.0,0.0,0.0,0.0,0.0,0.0,0.0,0.0,0.0,0.0,0.0,0.0,0.0,0.0,0.0,0.0,0.0,0.0,0.0,0.0,0.0,0.0,0.0,0.0,0.0,0.0,0.0,0.0,0.0,0.0,0.0,0.0,0.0,0.0,0.0,0.0,0.0,0.0,0.0,0.0,0.0,0.0,0.0,0.0,0.0,0.0,0.0,0.0,0.0,0.0,0.0,0.0,0.0,0.0,0.0,0.0,0.0,0.0,0.0,0.0,0.0,0.0,0.0,0.0,0.0,0.0,0.0,0.0,0.0,0.0,0.0,0.0,0.0,0.0,0.0,0.0,0.0,0.0,0.0,0.0,0.0,0.0,0.0,0.0,0.0,0.0,0.0,0.8796,0.8286,0.7901,0.7487,0.6936,0.5919,0.5237,0.0,0.0,0.0,0.0,0.0,0.0,0.0,0.0,0.0,0.0,0.0,0.0,0.0,0.0,0.0,0.0,0.0,0.0,0.0,0.0,0.0,0.0,0.0,0.0,0.0,0.0,0.0,0.0,0.0,0.0,0.0,0.0,0.0,0.0,0.0,0.0,0.0,0.0,0.0,0.0,0.0,0.0,0.0,0.0,0.0,0.0,0.0,0.0,0.0,0.0,0.0,0.0,0.0,0.0,0.0,0.0,0.0,0.0,0.0,0.0,0.0,0.0,0.0,0.0,0.0,0.0,0.0,0.0,0.0,0.0,0.0,0.0,0.0,0.0,0.0,0.0,0.0,0.0,0.0,0.0,0.0,0.0,0.0,0.0,0.0,0.0,0.0,0.0,0.0,0.0,0.0,0.0,0.0,0.0,0.0,0.0,0.0,0.0,0.0,0.0,0.0,0.0,0.0,0.0,0.0,0.0,0.0,0.0,0.9361,0.8823,0.8641,0.8379,0.8081,0.669,0.5925,0.0,0.0,0.0,0.0,0.0,0.0,0.0,0.0,0.0,0.0,0.0,0.0,0.0,0.0,0.0,0.0,0.0,0.0,0.0,0.0,0.0,0.0,0.0,0.0,0.0,0.0,0.0,0.0,0.0,0.0,0.0,0.0,0.0,0.0,0.0,0.0,0.0,0.0,0.0,0.0,0.0,0.0,0.0,0.0,0.0,0.0,0.0,0.0,0.8193,0.0,0.0,0.0,0.0,0.0,0.0,0.0,0.0,0.0,0.0,0.0,0.0,0.0,0.0,0.0,0.0,0.0,0.0,0.0,0.0,0.0,0.0,0.0,0.0,0.0,0.0,0.0,0.0,0.0,0.0,0.0,0.0,0.0,0.0,0.0,0.0,0.0,0.0,0.0,0.0,0.0,0.0,0.0,0.0,0.0,0.0,0.0,0.0,0.0,0.0,0.0,0.0,0.0,0.0,0.0,0.0,0.0,0.0,0.0,0.9732,0.9287,0.9083,0.8878,0.8566,0.7647,0.7085,0.0,0.0,0.0,0.0,0.0,0.0,0.0,0.0,0.0,0.0,0.0,0.0,0.0,0.0,0.0,0.0,0.0,0.0,0.0,0.0,0.0,0.0,0.0,0.0,0.0,0.0,0.0,0.0,0.0,0.0,0.0,0.0,0.0,0.0,0.0,0.0,0.0,0.0,0.0,0.0,0.0,0.0,0.0,0.0,0.0,0.0,0.0,0.0,0.0,0.0,0.0,0.0,0.0,0.0,0.0,0.0,0.0,0.0,0.0,0.0,0.0,0.0,0.0,0.0,0.0,0.0,0.0,0.0,0.0,0.0,0.0,0.0,0.0,0.0,0.0,0.0,0.0,0.0,0.0,0.0,0.0,0.0,0.0,0.0,0.0,0.0,0.0,0.0,0.0,0.0,0.0,0.0,0.0,0.0,0.0,0.0,0.0,0.0,0.0,0.0,0.0,0.0,0.0,0.0,0.0,0.0,0.0,1.042,1.0,0.9669,0.943,0.9179,0.892,0.8607,0.8243,0.7858,0.0,0.0,0.0,0.0,0.0,0.0,0.0,0.0,0.0,0.0,0.0,0.0,0.0,0.0,0.0,0.0,0.0,0.0,0.0,0.0,0.0,0.0,0.0,0.0,0.0,0.0,0.0,0.0,0.0,0.0,0.0,0.0,0.0,0.0,0.0,0.0,0.0,0.0,1.0732,1.1009,0.0,0.0,0.0,0.0,0.0,0.0,0.0,0.0,0.9786,0.0,0.0,0.0,0.0,0.0,0.0,0.0,0.0,0.0,0.0,0.0,0.0,0.0,0.0,0.0,0.0,0.0,0.0,0.0,0.0,0.0,0.0,0.0,0.0,0.0,0.0,0.0,0.0,0.0,0.0,0.0,0.0,0.0,0.0,0.0,0.0,0.0,0.0,0.0,0.0,0.0,0.0,0.0,0.0,0.0,0.0,0.0,0.0,0.0,0.0,0.0,0.0,0.0,0.0,0.0,0.0,1.115,1.0696,1.0285,0.9961,0.9871,0.9723,0.9468,0.9136,0.8952,0.8835,0.0,0.0,0.0,0.0,0.0,0.0,0.0,0.0,0.0,0.0,0.0,0.0,0.0,0.0,0.0,0.0,0.0,0.0,0.0,0.0,0.0,0.0,0.0,0.0,0.0,0.0,0.0,0.0,0.0,0.0,0.0,0.0,0.0,0.0,0.0,0.0,0.0,0.0,0.0,1.1884,1.205,0.0,0.0,0.0,0.0,0.0,0.0,0.0,0.0,1.0107,0.0,0.0,0.0,0.0,0.0,0.0,0.0,0.0,0.0,0.0,0.0,0.0,0.0,0.0,0.0,0.0,0.0,0.0,0.0,0.0,0.0,0.0,0.0,0.0,0.0,0.0,0.0,0.0,0.0,0.0,0.0,0.0,0.0,0.0,0.0,0.0,0.0,0.0,0.0,0.0,0.0,0.0,0.0,0.0,0.0,0.0,0.0,0.0,0.0,0.0,0.0,0.0,0.0,0.0,0.0,1.1766,1.1331,1.0929,1.0645,1.0507,1.0222,0.9879,0.9613,0.9376,0.0,0.0,0.0,0.0,0.0,0.0,0.0,0.0,0.0,0.0,0.0,0.0,0.0,0.0,0.0,0.0,0.0,0.0,0.0,0.0,0.0,0.0,0.0,0.0,0.0,0.0,0.0,0.0,0.0,0.0,0.0,0.0,0.0,0.0,0.0,0.0,0.0,0.0,0.0,0.0,1.2482,1.2667,1.2375,0.0,0.0,0.0,0.0,0.0,0.0,1.0801,1.0556,0.0,0.0,0.0,0.0,0.0,0.0,0.0,0.0,0.0,0.0,0.0,0.0,0.0,0.0,0.0,0.0,0.0,0.0,0.0,0.0,0.0,0.0,0.0,0.0,0.0,0.0,0.0,0.0,0.0,0.0,0.0,0.0,0.0,0.0,0.0,0.0,0.0,0.0,0.0,0.0,0.0,0.0,0.0,0.0,0.0,0.0,0.0,0.0,0.0,0.0,0.0,0.0,0.0,0.0,0.0,1.2558,1.2134,1.1753,1.1429,1.1194,1.0807,1.028,1.0032,0.9694,0.0,0.0,0.0,0.0,0.0,0.0,0.0,0.0,0.0,0.0,0.0,0.0,0.0,0.0,0.0,0.0,0.0,0.0,0.0,0.0,0.0,0.0,0.0,0.0,0.0,0.0,0.0,0.0,0.0,0.0,0.0,0.0,0.0,0.0,0.0,0.0,0.0,0.0,0.0,0.0,0.0,1.3248,1.2988,1.3204,0.0,0.0,0.0,0.0,1.1732,1.1271,0.0,0.0,0.0,0.0,0.0,0.0,0.0,0.0,0.0,0.0,0.0,0.0,0.0,0.0,0.0,0.0,0.0,0.0,0.0,0.0,0.0,0.0,0.0,0.0,0.0,0.0,0.0,0.0,0.0,0.0,0.0,0.0,0.0,0.0,0.0,0.0,0.0,0.0,0.0,0.0,0.0,0.0,0.0,0.0,0.0,0.0,0.0,0.0,0.0,0.0,0.0,0.0,0.0,0.0,0.0,0.0,1.3595,1.3246,1.2797,1.2262,1.198,1.1482,1.0753,1.0356,0.9972,0.0,0.0,0.0,0.0,0.0,0.0,0.0,0.0,0.0,0.0,0.0,0.0,0.0,0.0,0.0,0.0,0.0,0.0,0.0,0.0,0.0,0.0,0.0,0.0,0.0,0.0,0.0,0.0,0.0,0.0,0.0,0.0,0.0,0.0,0.0,0.0,0.0,0.0,0.0,0.0,0.0,1.4071,1.379,1.4225,1.4233,0.0,0.0,1.2804,1.1983,1.1668,0.0,0.0,0.0,0.0,0.0,0.0,0.0,0.0,0.0,0.0,0.0,0.0,0.0,0.0,0.0,0.0,0.0,0.0,0.0,0.0,0.0,0.0,0.0,0.0,0.0,0.0,0.0,0.0,0.0,0.0,0.0,0.0,0.0,0.0,0.0,0.0,0.0,0.0,0.0,0.0,0.0,0.0,0.0,0.0,0.0,0.0,0.0,0.0,0.0,0.0,0.0,0.0,0.0,0.0,0.0,1.4013,1.4571,1.406,1.3683,1.3463,1.3087,1.247,1.1693,1.1237,1.0716,0.0,0.0,0.0,0.0,0.0,0.0,0.0,0.0,0.0,0.0,0.0,0.0,0.0,0.0,0.0,0.0,0.0,0.0,0.0,0.0,0.0,0.0,0.0,0.0,0.0,0.0,0.0,0.0,0.0,0.0,0.0,0.0,0.0,0.0,0.0,0.0,0.0,0.0,0.0,0.0,0.0,0.0,1.4648,1.4913,0.0,0.0,0.0,1.3076,1.2316,0.0,0.0,0.0,0.0,0.0,0.0,0.0,0.0,0.0,0.0,0.0,0.0,0.0,0.0,0.0,0.0,0.0,0.0,0.0,0.0,0.0,0.0,0.0,0.0,0.0,0.0,0.0,0.0,0.0,0.0,0.0,0.0,0.0,0.0,0.0,0.0,0.0,0.0,0.0,0.0,0.0,0.0,0.0,0.0,0.0,0.0,0.0,0.0,0.0,0.0,0.0,0.0,0.0,0.0,0.0,0.0,0.0,1.5475,1.4875,1.4608,1.4657,1.4076,1.3449,1.2786,1.2215,0.0,0.0,0.0,0.0,0.0,0.0,0.0,0.0,0.0,0.0,0.0,0.0,0.0,0.0,0.0,0.0,0.0,0.0,0.0,0.0,0.0,0.0,0.0,0.0,0.0,0.0,0.0,1.3797,0.0,0.0,0.0,0.0,0.0,0.0,0.0,0.0,0.0,0.0,0.0,0.0,0.0,0.0,1.579,1.5556,1.5799,1.5743,0.0,0.0,1.3663,1.2904,1.2456,1.2224,0.0,0.0,0.0,0.0,0.0,0.0,0.0,0.0,0.0,0.0,0.0,0.0,0.0,0.0,0.0,0.0,0.0,0.0,0.0,0.0,0.0,0.0,0.0,0.0,0.0,0.0,0.0,0.0,0.0,0.0,0.0,0.0,0.0,0.0,0.0,0.0,0.0,0.0,0.0,0.0,0.0,0.0,0.0,0.0,0.0,0.0,0.0,0.0,0.0,0.0,0.0,0.0,0.0,0.0,1.5799,1.6205,1.5809,1.565,1.5663,1.4937,1.4293,1.3818,1.3007,1.2289,0.0,0.0,0.0,0.0,0.0,0.0,0.0,0.0,0.0,0.0,0.0,0.0,0.0,0.0,0.0,0.0,0.0,0.0,0.0,0.0,0.0,0.0,0.0,0.0,0.0,0.0,0.0,0.0,0.0,0.0,0.0,0.0,0.0,0.0,0.0,0.0,0.0,0.0,0.0,0.0,0.0,1.6887,1.665,1.7012,1.709,0.0,1.5494,1.4708,1.3937,1.3193,1.2764,1.2759,0.0,0.0,0.0,0.0,0.0,0.0,0.0,0.0,0.0,0.0,0.0,0.0,0.0,0.0,0.0,0.0,0.0,0.0,0.0,0.0,0.0,0.0,0.0,0.0,0.0,0.0,0.0,0.0,0.0,0.0,0.0,0.0,0.0,0.0,0.0,0.0,0.0,0.0,0.0,0.0,0.0,0.0,0.0,0.0,0.0,0.0,0.0,0.0,0.0,0.0,0.0,0.0,0.0,1.6518,1.7144,1.658,1.6357,1.6465,1.5853,1.515,1.4456,1.3851,1.3262,0.0,0.0,0.0,0.0,0.0,0.0,0.0,0.0,0.0,0.0,0.0,0.0,0.0,0.0,0.0,0.0,0.0,0.0,0.0,0.0,0.0,0.0,0.0,0.0,0.0,0.0,0.0,0.0,1.6464,1.6959,1.7449,0.0,0.0,0.0,0.0,0.0,0.0,0.0,0.0,0.0,0.0,1.7685,1.7588,1.7619,0.0,0.0,1.6104,1.5469,1.4528,1.4129,1.3913,1.3721,1.3576,0.0,0.0,0.0,0.0,0.0,0.0,0.0,0.0,0.0,0.0,0.0,0.0,0.0,0.0,0.0,0.0,0.0,0.0,0.0,0.0,0.0,0.0,0.0,0.0,0.0,0.0,0.0,0.0,0.0,0.0,0.0,0.0,0.0,0.0,0.0,0.0,0.0,0.0,0.0,0.0,0.0,0.0,0.0,0.0,0.0,0.0,0.0,0.0,0.0,0.0,0.0,0.0,1.7212,1.7757,1.7152,1.6919,1.7056,1.6519,1.5896,1.5246,1.4718,1.4228,0.0,0.0,0.0,0.0,0.0,0.0,0.0,0.0,0.0,0.0,0.0,0.0,0.0,0.0,0.0,0.0,0.0,0.0,0.0,0.0,0.0,0.0,0.0,0.0,0.0,0.0,0.0,0.0,1.7322,1.7953,1.8498,0.0,0.0,0.0,0.0,0.0,0.0,0.0,0.0,0.0,0.0,1.8674,1.8487,1.8346,1.8016,1.73,1.6808,1.6244,1.5376,1.5159,1.4968,1.4777,0.0,0.0,0.0,0.0,0.0,0.0,0.0,0.0,0.0,0.0,0.0,0.0,0.0,0.0,0.0,0.0,0.0,0.0,0.0,0.0,0.0,0.0,0.0,0.0,0.0,0.0,0.0,2.6897,0.0,0.0,2.6356,0.0,0.0,0.0,0.0,0.0,0.0,0.0,0.0,0.0,0.0,0.0,0.0,0.0,0.0,0.0,0.0,0.0,0.0,0.0,0.0,0.0,0.0,1.795,1.7903,1.7456,1.7274,1.737,1.6888,1.6463,1.6169,1.5654,1.524,1.4959,0.0,0.0,0.0,0.0,0.0,0.0,0.0,0.0,0.0,0.0,0.0,0.0,0.0,0.0,0.0,0.0,0.0,0.0,0.0,0.0,0.0,0.0,0.0,0.0,0.0,0.0,1.7483,1.8386,1.8993,0.0,0.0,0.0,0.0,0.0,0.0,0.0,0.0,0.0,0.0,1.9862,2.0015,1.9344,1.9265,1.9075,1.8583,1.7829,1.7106,1.6636,1.6143,1.5805,0.0,0.0,0.0,0.0,0.0,0.0,0.0,0.0,0.0,0.0,0.0,0.0,0.0,0.0,0.0,0.0,0.0,0.0,0.0,0.0,0.0,0.0,0.0,0.0,0.0,0.0,0.0,2.9965,2.9849,0.0,0.0,0.0,0.0,0.0,0.0,0.0,0.0,0.0,0.0,0.0,2.8326,2.823,0.0,0.0,0.0,0.0,0.0,0.0,0.0,0.0,0.0,0.0,0.0,0.0,1.9044,1.8968,1.8546,1.828,1.8127,1.7717,1.7245,1.6773,1.6456,1.6116,1.5808,0.0,0.0,0.0,0.0,0.0,0.0,0.0,0.0,0.0,0.0,0.0,0.0,0.0,0.0,0.0,0.0,0.0,0.0,0.0,0.0,0.0,0.0,0.0,0.0,0.0,1.8813,0.0,0.0,0.0,0.0,0.0,0.0,0.0,0.0,0.0,0.0,0.0,2.0894,2.0453,2.0575,2.0478,1.9794,1.9567,1.9382,0.0,0.0,0.0,0.0,0.0,0.0,0.0,0.0,0.0,0.0,0.0,0.0,0.0,0.0,1.5914,1.4767,1.4592,1.4465,1.4136,0.0,0.0,0.0,0.0,0.0,0.0,0.0,0.0,0.0,0.0,0.0,0.0,0.0,0.0,3.2219,0.0,3.0828,0.0,0.0,0.0,0.0,0.0,0.0,0.0,0.0,3.0041,2.9954,2.9715,2.9642,2.9277,0.0,2.8624,2.747,0.0,0.0,0.0,0.0,0.0,0.0,0.0,0.0,1.9976,1.9749,1.9372,1.9037,1.8784,1.8465,1.8058,1.761,1.7448,1.7242,1.687,1.6677,1.6533,0.0,0.0,0.0,0.0,0.0,0.0,0.0,0.0,0.0,0.0,0.0,0.0,0.0,0.0,0.0,0.0,0.0,0.0,0.0,0.0,0.0,0.0,0.0,1.979,0.0,0.0,0.0,0.0,0.0,0.0,0.0,0.0,0.0,2.181,2.1991,2.2009,2.1418,2.1357,2.109,2.036,0.0,0.0,0.0,0.0,0.0,0.0,0.0,1.8404,1.8118,1.8314,1.858,1.8646,1.8795,1.8679,1.81,0.0,0.0,1.536,1.5016,1.4873,1.464,1.4406,1.4316,1.422,1.3742,1.3229,0.0,0.0,0.0,0.0,0.0,0.0,0.0,0.0,3.3775,3.3655,0.0,3.2628,0.0,0.0,0.0,0.0,0.0,3.1433,0.0,0.0,3.1901,3.1946,3.164,3.1603,3.1209,3.047,3.0419,2.9821,2.8662,2.6783,0.0,0.0,0.0,0.0,0.0,0.0,2.0712,2.0294,1.9893,1.9578,1.939,1.9161,1.8962,1.8736,1.8736,1.8549,1.8175,1.8148,1.8017,1.7669,1.768,0.0,0.0,0.0,0.0,0.0,0.0,0.0,0.0,0.0,0.0,0.0,0.0,0.0,0.0,0.0,0.0,0.0,0.0,0.0,0.0,1.9925,0.0,0.0,0.0,0.0,0.0,0.0,0.0,0.0,0.0,0.0,2.345,2.3062,2.2725,2.2316,0.0,0.0,0.0,0.0,2.0744,2.069,2.0292,1.9882,1.9683,1.9417,1.9142,1.892,0.0,0.0,2.0087,1.9933,1.958,1.9058,1.856,1.7684,1.6204,1.5676,1.5391,1.5172,1.5083,1.4981,1.4783,1.4484,1.4184,3.5879,0.0,0.0,0.0,0.0,3.5624,3.5311,3.4669,3.4912,3.4882,3.4624,3.3974,0.0,0.0,0.0,0.0,0.0,0.0,3.2724,3.3078,3.315,3.2952,3.2596,3.2453,3.2069,3.1471,3.1347,3.0882,3.0087,2.9085,2.7678,2.5969,0.0,0.0,0.0,0.0,2.1759,2.1339,2.0954,2.0731,2.0644,2.0128,1.9756,1.9559,1.9559,1.9494,1.9412,1.9364,1.9366,1.9245,1.9117,0.0,0.0,0.0,0.0,0.0,0.0,0.0,0.0,0.0,0.0,0.0,0.0,0.0,0.0,0.0,0.0,0.0,0.0,0.0,2.1048,2.1491,2.1814,0.0,0.0,0.0,0.0,0.0,0.0,0.0,0.0,0.0,2.5757,2.4862,2.386,0.0,0.0,2.2309,2.1581,2.1463,2.1428,2.1419,2.1159,0.0,2.0897,2.0564,2.0238,2.0155,2.0323,2.0601,2.0897,2.0916,2.0687,2.0298,1.9856,1.917,1.8132,1.6983,1.6157,1.573,1.5452,1.5302,1.5201,1.5016,1.4736,3.6735,3.701,3.6671,3.6421,3.6336,3.6642,3.6356,3.5752,3.6088,3.6042,3.5674,3.5204,3.4895,3.4639,3.4078,0.0,0.0,0.0,3.3964,3.424,3.4085,3.3831,3.3534,3.3255,3.286,3.2322,3.2069,3.1666,3.1187,3.0432,2.9479,2.8261,0.0,0.0,2.4272,2.3567,2.2934,2.2413,2.1921,2.1693,2.1655,2.1031,2.0673,2.0537,2.0469,2.0421,2.043,2.0508,2.0537,2.0537,2.0484,2.0299,0.0,0.0,0.0,0.0,0.0,0.0,0.0,0.0,0.0,0.0,0.0,2.0254,2.0738,0.0,0.0,0.0,2.1639,2.1886,2.2318,2.2784,0.0,0.0,0.0,0.0,0.0,0.0,0.0,2.6434,2.6573,2.6801,2.7129,2.6279,2.5199,2.4036,2.345,2.2905,2.2321,0.0,2.2255,2.2264,2.1998,2.1785,2.1785,2.1374,2.115,2.1239,2.1301,2.1377,2.1552,2.1605,2.1488,2.1118,2.0718,2.018,1.9396,1.8434,1.7466,1.6581,1.6204,1.6015,1.5913,1.5683,1.5397,3.7002,3.7401,3.6612,3.6225,3.6205,3.688,3.6838,3.6288,3.7075,3.6966,3.6242,3.6242,3.6038,3.572,3.5544,0.0,3.5267,3.5267,3.5154,3.4975,3.4762,3.461,3.4457,3.4065,3.3618,3.308,3.269,3.2322,3.1913,3.1174,3.0811,3.071,2.8499,2.665,2.5298,2.4782,2.4183,2.3475,2.2836,2.2515,2.244,2.1883,2.1578,2.1617,2.1397,2.1282,2.1272,2.1464,2.1578,2.1578,2.1731,2.1676,2.1266,0.0,0.0,0.0,0.0,0.0,0.0,0.0,0.0,0.0,0.0,0.0,0.0,0.0,0.0,0.0,2.2658,0.0,2.3402,2.4004,0.0,0.0,0.0,2.5902,2.6139,2.6753,2.7303,2.7543,0.0,0.0,2.7796,2.7376,2.6583,2.5199,2.4356,2.3698,2.3315,2.3276,2.3266,2.3266,2.2882,2.2564,2.253,2.2132,2.1909,2.2141,2.2185,2.2169,2.2188,2.2188,2.2026,2.1643,2.1293,2.0871,2.0155,1.982,1.9271,1.7839,1.7293,1.7019,1.677,1.6487,1.6089,3.7001,3.7095,3.6909,3.694,3.7166,3.7351,3.7044,3.6445,3.6661,3.6645,3.6429,3.6429,3.6305,3.6085,3.5911,3.5831,3.5799,3.5799,3.5799,3.572,3.5544,3.535,3.5139,3.4806,3.437,3.3831,3.3583,3.3129,3.2503,3.2019,3.1629,3.1334,3.0215,2.8884,2.7372,2.6143,2.5312,2.4839,2.3968,2.3335,2.2889,2.2553,2.2402,2.244,2.2214,2.2101,2.2101,2.2176,2.2187,2.2176,2.2214,2.2105,2.1842,2.1703,0.0,0.0,0.0,0.0,0.0,0.0,0.0,0.0,0.0,2.3154,2.3831,0.0,2.4106,0.0,2.489,2.5262,2.5568,2.5726,0.0,0.0,2.6846,2.7297,2.7545,2.8196,2.8756,2.9181,2.9385,2.9329,2.9026,2.8441,2.7763,2.7007,2.5733,2.4794,2.469,2.4733,2.4647,2.4476,2.4155,2.3897,2.3484,2.3047,2.2794,2.2838,2.2872,2.2872,2.2882,2.2838,2.2784,2.2539,2.2264,2.1811,2.1177,2.0862,2.0456,1.9683,1.8681,1.7807,1.7753,1.7239,1.6612,3.7044,3.6999,3.6999,3.7095,3.7281,3.7297,3.7064,3.6724,3.6724,3.6724,3.6724,3.6708,3.6616,3.6445,3.6336,3.6289,3.6226,3.6241,3.6226,3.6195,3.6006,3.5847,3.5737,3.5429,3.507,3.4662,3.4322,3.3879,3.3325,3.2761,3.2172,3.1568,3.1127,3.0324,2.9112,2.7533,2.6481,2.5935,2.4881,2.4166,2.3692,2.3398,2.3187,2.3113,2.2815,2.2665,2.2665,2.2788,2.2863,2.2927,2.3001,2.3018,2.2983,2.2786,2.2677,0.0,0.0,0.0,0.0,0.0,0.0,0.0,0.0,0.0,0.0,0.0,2.5794,2.6163,2.6428,2.6768,2.7061,2.7162,2.7428,2.7882,2.8338,2.8731,2.9014,2.9454,2.9852,3.0102,3.0054,2.9821,2.9456,2.8849,2.8299,2.7815,2.6967,2.6207,2.5737,2.558,2.5464,2.5338,2.5105,2.4807,2.4348,2.3993,2.3734,2.3724,2.3724,2.3734,2.3734,2.3657,2.3537,2.3276,2.3057,2.2652,2.1989,2.1758,2.14,2.074,1.9847,1.9035,1.8581,1.7911,1.7217,3.7194,3.7106,3.709,3.7076,3.706,3.706,3.703,3.6999,3.6999,3.6999,3.6999,3.6999,3.6908,3.6754,3.6723,3.6662,3.6554,3.6569,3.6554,3.6523,3.6336,3.6242,3.6242,3.5911,3.5688,3.5479,3.496,3.4485,3.4057,3.3386,3.2521,3.155,3.1496,3.1126,3.0368,2.8794,2.7551,2.6681,2.5671,2.4981,2.4635,2.4274,2.3959,2.3776,2.3409,2.3213,2.3224,2.3409,2.3545,2.374,2.3979,2.4208,2.439,2.4104,2.4092,0.0,2.458,0.0,0.0,0.0,0.0,0.0,0.0,0.0,0.0,2.7066,2.7377,2.7657,2.7701,2.7966,2.8352,2.8565,2.897,2.9612,2.9829,3.0057,3.0352,3.0519,3.0652,3.0697,3.0452,3.0075,2.9532,2.9059,2.8598,2.8172,2.8014,2.7574,2.6775,2.6373,2.624,2.6115,2.5843,2.5496,2.5189,2.4893,2.4669,2.4669,2.468,2.4669,2.4669,2.4519,2.4282,2.4046,2.378,2.3298,2.262,2.2431,2.2095,2.1315,2.0732,2.0123,1.9297,1.8455,1.7809,3.77,3.7569,3.7553,3.751,3.7421,3.7391,3.7241,3.6999,3.6999,3.6999,3.6999,3.6999,3.6984,3.6938,3.6938,3.6908,3.6908,3.6908,3.6831,3.6662,3.6616,3.6569,3.6414,3.6211,3.6053,3.5863,3.5623,3.4937,3.3932,3.3521,3.2725,3.1583,3.1171,3.0739,3.0306,0.0,0.0,0.0,2.6131,2.5769,2.5394,2.5182,2.4945,2.4731,2.4504,0.0,2.4396,2.4432,2.4468,2.4515,2.4985,0.0,0.0,0.0,0.0,0.0,0.0,0.0,0.0,0.0,0.0,0.0,2.7775,2.7844,2.769,2.8256,2.8738,2.9087,2.9453,2.9783,3.01,3.0157,3.0338,3.0679,3.0736,3.0949,3.1339,3.1045,3.0901,3.1289,3.0882,3.0413,2.9861,2.9707,2.9439,2.8913,2.8736,2.8566,2.8315,2.7765,2.7464,2.7196,2.6693,2.6321,2.6238,2.5874,2.5633,2.5633,2.5633,2.5622,2.5569,2.5368,2.5137,2.4904,2.443,2.3761,2.3128,2.2671,2.2266,2.1784,2.1263,2.0725,1.9831,1.8919,1.8197,3.7847,0.0,3.7788,3.7759,0.0,3.77,3.7599,3.745,3.7301,3.7241,3.7241,3.7241,3.7195,3.7105,3.7105,3.7044,3.6999,3.6999,3.6954,3.6862,3.6862,3.68,3.6754,3.6538,3.6214,3.5814,3.5597,3.489,3.3822,3.3446,3.2678,3.1497,3.1373,3.099,3.0253,2.9732,2.8659,2.7108,2.6939,2.6701,2.6393,2.6117,2.5908,2.5687,0.0,0.0,0.0,0.0,0.0,0.0,0.0,0.0,0.0,0.0,0.0,2.773,2.794,2.8089,2.8101,2.8584,2.8792,2.8676,2.8946,2.8952,2.8576,2.9385,2.9954,3.0126,3.0631,3.0982,3.1116,3.1238,3.1243,3.1161,3.1201,3.1279,3.1204,3.0937,3.0864,3.1013,3.0638,3.0196,2.9938,2.9644,2.941,2.914,2.9013,2.8973,2.8922,2.851,2.8111,2.7886,2.7348,2.7021,2.6981,2.6787,2.6539,2.6528,2.6308,2.6121,2.6017,2.5602,2.5193,2.4949,2.4562,2.4046,2.3525,2.3216,2.2838,2.212,2.1706,2.1192,2.048,1.9517,1.8709,3.8033,3.7992,3.7992,3.7963,3.7905,3.7905,3.7905,3.786,0.0,0.0,0.0,3.7553,3.7449,3.73,3.7284,3.7225,3.7106,3.7106,3.706,3.703,3.703,3.703,3.6969,3.6831,3.6398,3.5746,3.543,3.4729,3.3683,3.3335,3.252,3.1438,3.1605,3.1222,3.0229,2.9831,2.916,2.8177,2.7789,2.751,2.731,2.7143,2.6969,2.6772,2.6571,2.6706,2.7142,2.7167,2.7451,2.8119,2.8233,2.8369,2.854,2.8629,2.8753,2.8948,2.9284,2.9502,2.9514,2.9935,3.0114,2.9947,2.9947,2.9786,2.9464,3.0217,3.0773,3.0901,3.1336,3.1634,3.1646,3.1753,3.1712,3.1254,3.1362,3.1304,3.0939,3.0754,3.0758,3.0708,3.0369,2.9995,2.9997,2.965,2.9326,2.9326,2.9404,2.9326,2.9248,2.8934,2.8538,2.8379,2.7995,2.7765,2.7701,2.7435,2.7313,2.7232,2.6822,2.6403,2.6153,2.5633,2.5133,2.5043,2.4686,2.4294,2.3917,2.3641,2.3306,2.2389,2.2043,2.1745,2.1161,2.0316,1.9484,3.8544,3.8323,3.8351,3.8164,3.7905,3.7905,3.7905,3.7905,3.7876,3.7831,3.7847,3.7847,3.7743,3.7642,3.7642,3.7569,3.7421,3.7421,3.7329,0.0,3.7164,3.7089,3.6999,3.6969,3.6565,3.591,3.5685,3.4887,3.356,3.3163,3.2435,3.1427,3.1175,3.0785,3.015,2.9777,2.9544,2.932,2.8578,2.8039,2.7723,2.8155,2.8337,2.8178,2.8573,2.8872,2.8915,2.8928,2.8989,2.9093,2.9548,2.9822,2.9835,3.029,3.0626,3.0639,3.0691,3.0743,3.0743,3.0835,3.0861,3.0823,3.0823,3.0676,3.0348,3.0468,3.0714,3.1162,3.1336,3.1336,3.1336,3.1427,3.1415,3.129,3.1306,3.1392,3.147,3.108,3.083,3.1028,3.0675,3.0317,3.033,3.0228,3.0165,3.0203,3.0139,3.0203,3.0062,2.9521,2.9052,2.8973,2.8764,2.8633,2.8469,2.805,2.7666,2.763,2.7035,2.6526,2.6488,2.603,2.5681,2.5685,2.5074,2.4543,2.4242,2.3736,2.3296,2.274,2.2476,2.226,2.1949,2.1343,2.0654,3.8722,3.8628,3.8628,3.8544,3.8387,3.8387,3.8387,3.8387,3.8387,3.8205,3.7905,3.7905,3.7876,3.7801,3.7817,3.7788,3.7716,3.7716,3.7642,3.7478,3.7478,3.7405,3.7255,3.7165,3.6541,3.5556,3.5348,3.4459,3.3064,3.2775,3.2327,3.1668,3.1248,3.0837,3.0613,3.0296,3.0097,2.996,2.923,2.8757,2.861,2.9058,2.9248,2.9168,2.9629,3.0062,3.037,3.037,3.0517,3.0788,3.1032,3.1166,3.1179,3.1446,3.1629,3.174,3.1776,3.1776,3.1776,3.1653,3.1593,3.1593,3.1545,3.1428,3.125,3.1229,3.1264,3.1401,3.1682,3.1792,3.1671,3.1671,3.1569,3.1265,3.1267,3.1193,3.0979,3.0764,3.0624,3.0727,3.0663,3.0571,3.0571,3.0647,3.071,3.071,3.071,3.0723,3.0697,3.0099,2.9606,2.9589,2.9195,2.8893,2.8805,2.8246,2.7838,2.7751,2.7138,2.6674,2.6491,2.6065,2.5741,2.5595,2.5138,2.479,2.4595,2.424,2.3773,2.3309,2.3113,2.2964,2.2628,2.2176,2.1415,3.8914,3.886,3.886,3.8832,3.8805,3.8805,3.8805,3.8805,3.8805,3.8528,3.8148,3.8091,3.8078,3.8004,3.802,3.7992,3.7905,3.7905,3.7831,3.7759,3.773,3.7716,3.7567,3.7291,3.6506,3.5389,3.4968,3.4076,3.2862,3.259,3.2385,3.2094,3.1523,3.1234,3.1204,3.094,3.0732,3.0553,2.9993,2.9577,2.9418,2.9901,3.0171,3.0212,3.0767,3.1288,3.1727,3.1754,3.1938,3.234,3.2381,3.2381,3.2381,3.2381,3.2453,3.2596,3.2583,3.2583,3.2596,3.2417,3.2309,3.2309,3.2155,3.2096,3.205,3.2019,3.1856,3.1641,3.1876,3.2019,3.1888,3.1874,3.1732,3.1345,3.1293,3.1177,3.0776,3.0685,3.0685,3.0685,3.0811,3.0924,3.0924,3.1024,3.1136,3.1149,3.1136,3.111,3.0926,3.0482,3.0223,2.9928,2.9389,2.8949,2.8848,2.8273,2.7862,2.7788,2.7182,2.6729,2.6451,2.6073,2.576,2.5596,2.5395,2.5171,2.4957,2.479,2.4467,2.3984,2.3838,2.3692,2.3187,2.2748,2.196,3.9272,3.8996,3.8996,3.8914,3.8832,3.8805,3.8816,3.8832,3.8805,3.8777,3.8722,3.8722,3.8572,3.8363,3.8335,3.8193,3.7934,3.7905,3.7905,3.7905,3.7876,3.7876,3.7812,3.7237,3.6518,3.5696,3.4829,3.4045,3.3261,3.2962,3.2757,3.2535,3.2107,3.1881,3.1868,3.1596,3.1408,3.1393,3.1043,3.0478,2.9848,3.074,3.1259,3.1259,3.2414,3.3059,3.3073,3.3101,3.3143,3.3185,3.3199,3.3199,3.3199,3.3199,3.3199,3.3199,3.3199,3.3234,3.3199,3.3023,3.2917,3.2917,3.2739,3.2646,3.2646,3.2616,3.2332,3.1827,3.1681,3.1737,3.1657,3.166,3.1686,3.1596,3.158,3.1538,3.1461,3.1485,3.1498,3.1485,3.1485,3.1498,3.1522,3.1559,3.1559,3.1582,3.1619,3.1446,3.0943,3.0703,3.0397,2.9918,2.9291,2.897,2.8833,2.8267,2.7889,2.7752,2.7218,2.6826,2.6669,2.6527,2.6277,2.6151,2.5955,2.5746,2.5558,2.5359,2.5087,2.4731,2.454,2.4348,2.372,2.3137,2.2219,3.9547,3.9425,3.9398,3.9372,3.9362,3.9362,3.9345,3.9345,3.9345,3.9309,3.9218,3.9218,3.9013,3.8655,3.8628,3.8556,3.8444,3.8444,3.8387,3.8303,3.825,3.8119,3.7969,3.7674,3.6898,3.5842,3.5366,3.4595,3.3662,3.3256,3.3069,3.2877,3.2535,3.237,3.2342,3.2148,3.2007,3.1923,3.1695,3.1588,3.1617,3.1878,3.2051,3.2166,3.3283,3.3957,3.3957,3.3957,3.3942,3.3957,3.3942,3.3942,3.3942,3.3957,3.3957,3.3942,3.3839,3.375,3.366,3.3591,3.3521,3.3521,3.3347,3.3227,3.3227,3.3143,3.2917,3.2646,3.2286,3.2046,3.1936,3.1913,3.19,3.19,3.19,3.19,3.19,3.1886,3.1886,3.19,3.2009,3.2082,3.2069,3.2191,3.225,3.225,3.225,3.1942,3.1447,3.1066,3.0589,2.9977,2.9302,2.8911,2.8836,2.8289,2.7907,2.7722,2.7457,2.7201,2.7154,2.7053,2.6918,2.685,2.6577,2.6383,2.6267,2.6082,2.5826,2.5476,2.4992,2.4648,2.3965,2.3557,2.2721,3.9729,3.9703,3.9703,3.9703,3.9703,3.9703,3.9703,3.9703,3.9703,3.9668,3.9563,3.9563,3.9362,3.905,3.8914,3.8832,3.8805,3.8805,3.875,3.8667,3.856,3.846,3.827,3.7979,3.7343,3.641,3.5868,3.5011,3.389,3.3752,3.3657,3.354,3.3466,3.3435,3.3408,3.3243,3.3135,3.3023,3.2841,3.2959,3.3272,3.3318,3.324,3.3184,3.4087,3.4668,3.4668,3.465,3.4616,3.4616,3.4582,3.4534,3.4534,3.4549,3.4549,3.4534,3.4399,3.4298,3.4191,3.4157,3.4122,3.4088,3.3951,3.3813,3.3799,3.3681,3.3597,3.3479,3.3129,3.2775,3.2367,3.2345,3.2345,3.2273,3.2273,3.2273,3.2259,3.2273,3.2273,3.2273,3.2417,3.2596,3.2632,3.2775,3.2846,3.2846,3.268,3.2361,3.1778,3.1168,3.0571,2.9989,2.938,2.9049,2.8871,2.8465,2.8046,2.7987,2.7888,2.7802,2.7723,2.7623,2.7469,2.7356,2.7154,2.6985,2.6884,2.6748,2.653,2.6151,2.5662,2.5095,2.4491,2.407,2.3244,3.9807,3.9703,3.9703,3.9729,3.9703,3.9703,3.9703,3.9729,3.9703,3.9703,3.9677,3.9677,3.9677,3.9582,3.9185,3.8942,3.8832,3.8832,3.886,3.8832,3.8805,3.8777,3.8728,3.8123,3.7779,3.7437,3.6271,3.5091,3.4101,3.4493,3.4718,3.475,3.5115,3.5395,3.5292,3.5038,3.5024,3.4858,3.4618,3.4585,3.4651,3.5076,3.4973,3.4581,3.5023,3.5335,3.5335,3.5231,3.518,3.518,3.5001,3.4902,3.4902,3.4887,3.4902,3.4887,3.4868,3.4868,3.4835,3.4716,3.4664,3.4631,3.4481,3.438,3.4346,3.4298,3.423,3.4094,3.3977,3.3687,3.3129,3.2988,3.2881,3.2739,3.2704,3.2704,3.2704,3.2753,3.2654,3.2739,3.2881,3.3058,3.3199,3.3269,3.3241,3.3129,3.2729,3.212,3.1517,3.09,3.0385,2.9894,2.9596,2.9397,2.8922,2.8743,2.8633,2.8541,2.8495,2.8444,2.8333,2.8235,2.8039,2.7921,2.7789,2.7656,2.7503,2.7302,2.7087,2.6722,2.6271,2.5713,2.4942,2.4384,2.352,3.9995,3.9961,3.9944,3.9961,3.9961,3.9961,3.9961,3.9944,3.9961,3.991,3.9833,3.9824,3.9798,3.9703,3.9547,3.9441,3.9372,3.9372,3.9335,3.9255,3.9164,3.9067,3.8882,3.8581,3.8166,3.7724,3.7206,3.6506,3.5782,3.5847,3.5908,3.5871,3.5894,3.5915,3.5888,3.5692,3.5526,3.5459,3.5319,3.5439,3.5765,3.5886,3.6007,3.6229,3.6027,3.5911,3.5896,3.5799,3.5718,3.5718,3.5621,3.5621,3.5621,3.5606,3.5542,3.5429,3.5412,3.5365,3.5219,3.5169,3.5136,3.5136,3.5001,3.4931,3.4883,3.4817,3.4702,3.4635,3.4601,3.4433,3.4128,3.3785,3.3556,3.3486,3.3486,3.3452,3.3486,3.3486,3.3486,3.3486,3.3556,3.3591,3.366,3.3695,3.349,3.3107,3.2837,3.2255,3.1399,3.0931,3.0594,3.0111,2.9927,2.9865,2.9727,2.9415,2.9212,2.9103,2.8994,2.8944,2.8849,2.8707,2.8546,2.8495,2.8398,2.8281,2.8118,2.7875,2.7643,2.7384,2.6958,2.6125,2.5327,2.4628,2.3705,4.0113,4.0113,4.0113,4.0113,4.0113,4.0113,4.0113,4.0113,4.0113,4.0062,3.9961,3.9977,3.991,3.9858,3.9833,3.9816,3.9807,3.9755,3.9668,3.9563,3.9484,3.9362,3.9255,3.9148,3.8873,3.8411,3.8041,3.7528,3.6884,3.6869,3.693,3.6904,3.6913,3.6961,3.6934,3.6793,3.6656,3.6557,3.649,3.6605,3.6905,3.6809,3.6972,3.7294,3.6937,3.6616,3.6476,3.632,3.6226,3.6211,3.6195,3.6163,3.6178,3.6163,3.61,3.599,3.5943,3.5911,3.5784,3.5689,3.5625,3.5672,3.5542,3.5474,3.5442,3.5329,3.5216,3.5184,3.5151,3.51,3.4902,3.4601,3.4298,3.4108,3.4054,3.4054,3.4054,3.4054,3.4088,3.4122,3.4157,3.4157,3.4225,3.4225,3.3907,3.3316,3.3099,3.2479,3.1596,3.1106,3.0919,3.0517,3.046,3.0446,3.0371,3.0205,2.9882,2.9713,2.9574,2.9481,2.9341,2.9216,2.9089,2.9071,2.8976,2.8908,2.8702,2.8463,2.8241,2.8019,2.7328,2.6499,2.5672,2.479,2.3959,4.0113,4.0113,4.0113,4.0113,4.0113,4.0113,4.0113,4.0113,4.0113,4.0087,4.007,4.007,4.007,4.007,4.0062,4.0087,4.0037,3.9833,3.9729,3.9703,3.9694,3.9677,3.9625,3.9625,3.9582,3.9449,3.8683,3.7829,3.7213,3.7636,3.7853,3.7931,3.8373,3.8515,3.8723,3.8411,3.8453,3.8305,3.8032,3.7987,3.8055,3.7879,3.7838,3.7889,3.7714,3.7464,3.706,3.6831,3.6708,3.6693,3.6569,3.6507,3.6538,3.6554,3.6507,3.6507,3.6476,3.6492,3.6445,3.6305,3.6196,3.6164,3.6085,3.5973,3.5973,3.5973,3.5878,3.5735,3.5688,3.5623,3.5479,3.5382,3.5088,3.4534,3.4467,3.4481,3.4448,3.4414,3.4481,3.465,3.4683,3.475,3.4868,3.4732,3.4424,3.3853,3.3279,3.2645,3.1894,3.1396,3.1146,3.1102,3.1014,3.094,3.0999,3.1043,3.0657,3.0325,3.0172,3.005,2.9884,2.9747,2.9668,2.9605,2.9495,2.9401,2.9198,2.8949,2.868,2.8347,2.7596,2.6849,2.5986,2.5153,2.4434,4.0113,4.0113,4.0113,4.0113,4.0113,4.0113,4.0113,4.0113,4.0113,4.0113,4.0113,4.0113,4.0113,4.0113,4.0113,4.0113,4.007,3.9995,3.9935,3.9849,3.9849,3.9798,3.9729,3.9703,3.9703,3.9687,3.9391,3.9096,3.8878,3.9002,3.9073,3.9017,3.9059,3.9067,3.8942,3.8805,3.875,3.8706,3.8623,3.8583,3.8567,3.8444,3.8387,3.8375,3.825,3.8107,3.7963,3.7478,3.7224,3.7178,3.7164,3.7118,3.7118,3.7118,3.7074,3.6983,3.6983,3.6938,3.6847,3.6816,3.6739,3.6708,3.6569,3.6492,3.6476,3.6383,3.632,3.6242,3.6258,3.6226,3.6148,3.6006,3.5705,3.5154,3.5088,3.5088,3.507,3.5055,3.5121,3.5154,3.5187,3.5187,3.513,3.4937,3.4386,3.3777,3.3122,3.2482,3.1827,3.1573,3.1394,3.1394,3.1394,3.1423,3.1452,3.1481,3.1278,3.0955,3.0762,3.0567,3.0403,3.0312,3.0266,3.0144,3.0036,2.9867,2.9668,2.9425,2.9185,2.8584,2.78,2.7042,2.6251,2.5486,2.4723,4.0113,4.0113,4.0113,4.0113,4.0113,4.0113,4.0113,4.0113,4.0113,4.0113,4.0113,4.0113,4.0113,4.0113,4.0113,4.0113,4.0113,4.0113,4.0062,3.9986,3.9961,3.991,3.9841,3.9858,3.9807,3.9781,3.9781,3.9755,3.9703,3.9703,3.9651,3.9547,3.9484,3.9405,3.9282,3.9158,3.9104,3.905,3.9013,3.8958,3.886,3.875,3.8694,3.8667,3.86,3.8544,3.8516,3.8116,3.7841,3.7682,3.7623,3.7565,3.7581,3.7581,3.7551,3.7492,3.7462,3.7419,3.7345,3.7285,3.7271,3.7225,3.7059,3.6983,3.6952,3.6861,3.68,3.6754,3.6739,3.6754,3.6677,3.6585,3.6352,3.6023,3.5737,3.564,3.5608,3.5608,3.5608,3.5608,3.5608,3.5608,3.5488,3.5052,3.4389,3.3758,3.3111,3.2463,3.195,3.1811,3.1781,3.1794,3.1851,3.1879,3.1851,3.1851,3.1838,3.1581,3.1321,3.1102,3.0896,3.0866,3.0807,3.0642,3.0492,3.0401,3.0221,3.0023,2.974,2.8894,2.807,2.7389,2.6657,2.5694,2.4974,4.0113,4.0113,4.0113,4.0113,4.0113,4.0113,4.0113,4.0113,4.0113,4.0113,4.0113,4.0113,4.0113,4.0113,4.0113,4.0113,4.0113,4.0113,4.0113,4.007,4.0087,4.0062,4.0062,4.0062,4.0011,3.991,3.9926,3.9858,3.9781,3.9781,3.9729,3.9703,3.9703,3.9703,3.9651,3.9677,3.9573,3.9458,3.9362,3.9228,3.9077,3.8969,3.8887,3.8887,3.8871,3.8887,3.8887,3.8805,3.8567,3.8201,3.8046,3.7976,3.7947,3.7963,3.7976,3.7947,3.7963,3.7934,3.7905,3.7788,3.773,3.773,3.7596,3.7447,3.7447,3.7417,3.7358,3.727,3.7224,3.7164,3.7121,3.706,3.6999,3.6908,3.6414,3.6132,3.6068,3.6068,3.61,3.61,3.6068,3.6084,3.6039,3.546,3.4729,3.4136,3.3465,3.2745,3.242,3.2262,3.2302,3.233,3.2342,3.2315,3.2302,3.2302,3.2274,3.2191,3.1938,3.171,3.1394,3.1307,3.1248,3.1117,3.0969,3.0881,3.0762,3.0553,3.0027,2.9159,2.844,2.7826,2.6948,2.5939,2.5481,4.0113,4.0113,4.0113,4.0113,4.0113,4.0113,4.0113,4.0113,4.0113,4.0113,4.0113,4.0113,4.0113,4.0113,4.0113,4.0113,4.0113,4.0113,4.0113,4.0113,4.0113,4.0113,4.0113,4.0113,4.0087,4.0037,4.0037,4.0037,3.9995,3.9969,3.9935,3.9849,3.9833,3.9781,3.972,3.9729,3.9677,3.9651,3.9625,3.9573,3.952,3.9451,3.9451,3.9468,3.9451,3.9451,3.9441,3.9282,3.9013,3.865,3.8583,3.8556,3.8528,3.8528,3.8472,3.8387,3.8387,3.8375,3.8278,3.8221,3.8209,3.8221,3.8119,3.8091,3.7943,3.7927,3.7857,3.7772,3.7714,3.7685,3.7642,3.7553,3.7419,3.715,3.6892,3.6708,3.6677,3.6708,3.6724,3.6724,3.6724,3.6693,3.6476,3.5703,3.4914,3.4496,3.3707,3.2931,3.2726,3.2691,3.2718,3.2761,3.2761,3.2746,3.2761,3.2746,3.2746,3.2718,3.2554,3.2345,3.1966,3.1682,3.1625,3.1495,3.1423,3.1336,3.1219,3.1058,3.0264,2.9462,2.8882,2.8292,2.7177,2.6177,2.6029,4.0113,4.0113,4.0113,4.0113,4.0113,4.0113,4.0113,4.0113,4.0113,4.0113,4.0113,4.0113,4.0113,4.0113,4.0113,4.0113,4.0113,4.0113,4.0113,4.0096,4.0146,4.0163,4.0121,4.0113,4.0113,4.0113,4.0096,4.0113,4.0096,4.0113,4.0062,4.0003,3.9986,3.9918,3.9884,3.9884,3.9833,3.9798,3.9798,3.9755,3.9703,3.9703,3.9703,3.9703,3.9703,3.9703,3.9677,3.9547,3.9282,3.8914,3.8805,3.8805,3.8805,3.8805,3.8777,3.8694,3.8694,3.8639,3.86,3.8544,3.8544,3.8588,3.8588,3.8516,3.8427,3.8399,3.8359,3.8234,3.8189,3.8103,3.8004,3.786,3.77,3.7537,3.7435,3.7271,3.7045,3.6969,3.6999,3.6999,3.6999,3.6999,3.6968,3.5751,3.5096,3.4647,3.3715,3.3252,3.3032,3.3058,3.3112,3.3139,3.3176,3.3203,3.3187,3.3187,3.3123,3.3096,3.2962,3.28,3.2496,3.212,3.1994,3.1938,3.1838,3.1752,3.1638,3.1389,3.0736,3.0015,2.9444,2.8586,2.7477,2.6683,2.6525,4.0113,4.0113,4.0113,4.0113,4.0113,4.0113,4.0113,4.0113,4.0113,4.0113,4.0113,4.0113,4.0113,4.0113,4.0113,4.0113,4.0113,4.0113,4.0113,4.0163,4.0238,4.0263,4.0196,4.0196,4.0188,4.0188,4.0146,4.0138,4.0138,4.0138,4.0113,4.0087,4.007,4.0096,4.0045,4.0087,4.002,3.9935,3.9926,3.9884,3.979,3.9807,3.9807,3.9807,3.9807,3.9781,3.9755,3.9677,3.9468,3.8925,3.8871,3.8942,3.8942,3.8914,3.8914,3.8942,3.8969,3.8969,3.8914,3.8942,3.8914,3.8942,3.8914,3.8887,3.8887,3.886,3.8805,3.8611,3.8639,3.85,3.8274,3.8075,3.7992,3.7918,3.7934,3.7642,3.7271,3.709,3.709,3.709,3.709,3.709,3.6668,3.5917,3.4961,3.475,3.3889,3.345,3.3309,3.3335,3.3424,3.3529,3.3565,3.3617,3.3642,3.3617,3.3555,3.3466,3.3309,3.3134,3.2931,3.2645,3.2441,3.2345,3.229,3.2191,3.2064,3.1647,3.1142,3.0506,2.9873,2.8913,2.7877,2.7314,2.6985,4.0113,4.0113,4.0113,4.0113,4.0113,4.0113,4.0113,4.0113,4.0113,4.0113,4.0113,4.0113,4.0113,4.0113,4.0113,4.0113,4.0113,4.0121,4.0163,4.028,4.0387,4.0436,4.0395,4.0395,4.0395,4.037,4.0313,4.0263,4.0238,4.0188,4.0096,4.0121,4.0121,4.0096,4.0121,4.0121,4.0096,4.0045,4.0062,4.0062,4.0037,4.002,4.0011,4.0011,4.0011,3.9961,3.9875,3.9849,3.9729,3.9556,3.9478,3.9451,3.9451,3.9451,3.9451,3.9425,3.9468,3.9494,3.9494,3.9451,3.9478,3.9451,3.9425,3.9451,3.9352,3.9325,3.9218,3.9013,3.8898,3.886,3.8667,3.8532,3.8391,3.8307,3.8177,3.8049,3.7788,3.7671,3.7642,3.7671,3.7655,3.751,3.6998,3.6165,3.5399,3.4822,3.4218,3.364,3.3581,3.3607,3.3694,3.3822,3.3873,3.3899,3.3899,3.3899,3.3822,3.3761,3.3607,3.345,3.3251,3.3091,3.2866,3.28,3.2761,3.2636,3.2441,3.2296,3.1864,3.1085,3.0327,2.9569,2.8804,2.8113,2.768,4.0113,4.0113,4.0113,4.0113,4.0113,4.0113,4.0113,4.0113,4.0113,4.0113,4.0113,4.0113,4.0113,4.0113,4.0096,4.0121,4.0213,4.0246,4.0337,4.0429,4.051,4.06,4.0607,4.0631,4.0631,4.0534,4.0453,4.0387,4.0362,4.0337,4.0313,4.0296,4.0271,4.0296,4.0288,4.0271,4.0296,4.0313,4.0271,4.0271,4.0271,4.0271,4.0238,4.0213,4.0188,4.0113,4.0011,3.9986,3.9961,3.991,3.9884,3.9816,3.9729,3.9703,3.9703,3.9703,3.9703,3.9703,3.9703,3.9703,3.9677,3.9703,3.9703,3.9651,3.9616,3.959,3.9537,3.9372,3.9319,3.9282,3.9067,3.8794,3.8672,3.86,3.8516,3.842,3.825,3.8049,3.7905,3.7905,3.7876,3.7521,3.6974,3.6261,3.5518,3.4787,3.4191,3.3684,3.3771,3.3822,3.3949,3.405,3.4075,3.4126,3.4126,3.4126,3.4075,3.4,3.3882,3.3745,3.3565,3.3424,3.324,3.3176,3.3069,3.2951,3.2757,3.2656,3.2404,3.1674,3.0955,3.0389,2.9835,2.9295,2.8936,4.0113,4.0113,4.0113,4.0113,4.0113,4.0113,4.0113,4.0113,4.0113,4.0113,4.0113,4.0113,4.0113,4.0113,4.0138,4.0213,4.0337,4.0461,4.0527,4.0551,4.0673,4.0721,4.0769,4.0817,4.0817,4.059,4.0558,4.0534,4.0534,4.0493,4.0461,4.0468,4.0468,4.0444,4.0485,4.051,4.0444,4.0461,4.0461,4.0461,4.0444,4.0444,4.0412,4.0337,4.0313,4.0288,4.0196,4.0171,4.0163,4.0163,4.0163,4.002,3.9867,3.9764,3.9738,3.9781,3.9807,3.979,3.979,3.9807,3.9781,3.9798,3.9807,3.9833,3.9833,3.9858,3.9833,3.9755,3.9677,3.9547,3.9379,3.9094,3.8931,3.8876,3.8832,3.8738,3.8616,3.8278,3.8119,3.802,3.7985,3.7709,3.6986,3.6242,3.5514,3.4803,3.4204,3.3864,3.3949,3.4075,3.4176,3.4226,3.4275,3.43,3.43,3.4325,3.43,3.425,3.4159,3.405,3.3924,3.3873,3.372,3.345,3.3319,3.3229,3.3123,3.3011,3.2649,3.2107,3.1607,3.1067,3.0715,3.0422,3.0132,4.0113,4.0113,4.0113,4.0113,4.0113,4.0113,4.0113,4.0113,4.0113,4.0113,4.0113,4.0113,4.0096,4.0138,4.0238,4.0337,4.0461,4.0624,4.069,4.0697,4.0817,4.0888,4.0912,4.0982,4.1006,4.0953,4.0817,4.068,4.0655,4.0558,4.0607,4.0534,4.0541,4.0541,4.0541,4.051,4.0583,4.059,4.059,4.0566,4.0558,4.0558,4.0534,4.0444,4.0461,4.0436,4.0436,4.0436,4.0436,4.0419,4.0436,4.0412,4.0288,4.0121,4.0045,4.002,4.002,4.002,4.002,4.002,4.0087,4.0163,4.0163,4.0221,4.0296,4.0337,4.0188,4.0037,3.9858,3.9677,3.9642,3.9362,3.9245,3.9148,3.9013,3.8832,3.8794,3.8683,3.8516,3.8347,3.8177,3.7854,3.7009,3.6276,3.5629,3.5007,3.4426,3.4176,3.425,3.4349,3.444,3.4448,3.4448,3.4431,3.4448,3.4497,3.4497,3.4497,3.4448,3.4423,3.4325,3.4374,3.4226,3.3873,3.3668,3.3565,3.3477,3.3319,3.3172,3.2804,3.229,3.1794,3.1602,3.1368,3.0897,4.0113,4.0113,4.0113,4.0113,4.0113,4.0113,4.0113,4.0113,4.0113,4.0113,4.0138,4.0163,4.0213,4.0238,4.0337,4.0485,4.0624,4.0834,4.0905,4.0929,4.1012,4.1065,4.1041,4.1111,4.1152,4.1129,4.1018,4.0948,4.0948,4.0907,4.0853,4.086,4.086,4.086,4.0877,4.0901,4.0853,4.0836,4.0836,4.083,4.0799,4.0745,4.068,4.0607,4.0583,4.0558,4.051,4.051,4.051,4.051,4.051,4.051,4.0444,4.0395,4.0296,4.0296,4.0296,4.0296,4.0296,4.0296,4.032,4.0387,4.0412,4.0436,4.0468,4.0461,4.0419,4.0271,4.007,3.991,3.991,3.9651,3.952,3.9511,3.9362,3.9185,3.9094,3.9067,3.8903,3.8683,3.859,3.8041,3.6906,3.6258,3.5729,3.5175,3.462,3.4521,3.4546,3.4618,3.4707,3.4756,3.4739,3.4787,3.4787,3.478,3.478,3.4756,3.4715,3.4691,3.4643,3.4618,3.4472,3.4226,3.4075,3.3949,3.3694,3.3529,3.3529,3.3503,3.3097,3.273,3.2552,3.229,3.1831,4.0113,4.0113,4.0113,4.0113,4.0113,4.0113,4.0113,4.0113,4.0113,4.0121,4.0163,4.0238,4.033,4.0404,4.051,4.0655,4.0793,4.1023,4.1099,4.1123,4.1157,4.1209,4.1209,4.1232,4.1255,4.1318,4.1323,4.1277,4.1163,4.1123,4.1169,4.114,4.1186,4.1209,4.1163,4.1117,4.1209,4.1209,4.1209,4.118,4.1082,4.1012,4.0918,4.0817,4.0817,4.0776,4.071,4.071,4.068,4.068,4.0655,4.0607,4.0607,4.0583,4.0583,4.0583,4.0534,4.051,4.0485,4.0485,4.0485,4.0551,4.0551,4.0558,4.0583,4.0607,4.0534,4.0468,4.032,4.0171,4.0163,3.9944,3.979,3.9738,3.9729,3.9625,3.9441,3.9335,3.9282,3.9121,3.8996,3.8345,3.7341,3.6638,3.6188,3.5597,3.5036,3.4851,3.4859,3.4923,3.5011,3.5018,3.5065,3.5175,3.5175,3.5152,3.5105,3.5058,3.4994,3.497,3.4875,3.4804,3.4643,3.4546,3.4448,3.4284,3.4025,3.3797,3.3771,3.3771,3.3736,3.3553,3.3196,3.3077,3.2814,4.0113,4.0113,4.0113,4.0113,4.0113,4.0113,4.0113,4.0113,4.0113,4.0163,4.028,4.0305,4.0404,4.0534,4.0752,4.0912,4.1029,4.1129,4.1203,4.1226,4.1255,4.1277,4.1255,4.1318,4.1453,4.1542,4.1653,4.1498,4.1386,4.1277,4.1255,4.1255,4.13,4.1232,4.1318,4.1323,4.1209,4.1232,4.1232,4.1209,4.1186,4.1163,4.114,4.1117,4.1117,4.1094,4.1024,4.1024,4.1018,4.0982,4.1,4.0976,4.0888,4.0864,4.0864,4.0793,4.0655,4.051,4.0534,4.0558,4.0583,4.0655,4.0655,4.0728,4.0752,4.0728,4.0673,4.0673,4.0534,4.0419,4.0387,4.0196,4.0096,3.9969,3.9893,3.9781,3.9668,3.9616,3.9537,3.9494,3.9345,3.8811,3.8002,3.7312,3.6679,3.605,3.5516,3.5288,3.5158,3.5198,3.5297,3.5367,3.5389,3.5458,3.552,3.5475,3.5452,3.536,3.5291,3.5245,3.5158,3.5065,3.4994,3.4883,3.4787,3.4691,3.4472,3.43,3.4126,3.4025,3.3975,3.3848,3.3652,3.3607,3.3555,4.0113,4.0113,4.0113,4.0113,4.0113,4.0113,4.0113,4.0113,4.0188,4.0238,4.033,4.0478,4.0648,4.0817,4.0976,4.1059,4.1157,4.1272,4.1363,4.1431,4.1498,4.1565,4.1648,4.171,4.1776,4.1797,4.188,4.1841,4.167,4.1648,4.1648,4.1626,4.1626,4.167,4.1604,4.1626,4.1666,4.1648,4.1587,4.1498,4.1413,4.1346,4.1277,4.1209,4.1232,4.1232,4.1232,4.1209,4.1186,4.1152,4.1152,4.1152,4.1088,4.1065,4.1065,4.1047,4.0995,4.0853,4.0734,4.0728,4.0752,4.0776,4.0799,4.0823,4.0888,4.0864,4.0817,4.0817,4.0697,4.0624,4.0583,4.0436,4.0345,4.0246,4.0138,4.0037,3.9935,3.9849,3.9772,3.9746,3.9687,3.923,3.8683,3.7969,3.7219,3.646,3.584,3.5435,3.5354,3.5389,3.5549,3.5711,3.5734,3.5756,3.5795,3.5795,3.5773,3.5706,3.5526,3.5481,3.5418,3.535,3.5274,3.5205,3.5111,3.4994,3.4899,3.4667,3.4399,3.43,3.4226,3.4101,3.4,3.3924,3.3822,4.0113,4.0113,4.0113,4.0113,4.0113,4.0113,4.0113,4.0096,4.0238,4.033,4.0412,4.0631,4.0929,4.1087,4.1163,4.1221,4.13,4.1431,4.1582,4.171,4.1815,4.188,4.1902,4.1945,4.1984,4.203,4.2009,4.2012,4.2072,4.2051,4.2009,4.2005,4.1923,4.1945,4.1966,4.1945,4.1923,4.1923,4.1858,4.1776,4.1692,4.1604,4.1515,4.1453,4.1408,4.1391,4.1408,4.1431,4.1431,4.1386,4.134,4.1318,4.1232,4.1203,4.1186,4.1163,4.114,4.1094,4.0995,4.0989,4.0948,4.0965,4.0959,4.0959,4.0959,4.0935,4.0894,4.0871,4.0817,4.0769,4.0721,4.0624,4.0558,4.0485,4.0412,4.0313,4.0213,4.0113,4.0087,4.0087,4.0045,4.0011,3.9413,3.8613,3.7797,3.6942,3.6269,3.5664,3.5571,3.5616,3.5711,3.591,3.591,3.591,3.5932,3.5954,3.5997,3.5975,3.58,3.5711,3.5667,3.56,3.5509,3.5458,3.5383,3.5268,3.5135,3.4859,3.4643,3.457,3.4521,3.4448,3.4349,3.4234,3.4084,4.0113,4.0113,4.0113,4.0113,4.0113,4.0113,4.0113,4.0138,4.0255,4.0404,4.0576,4.0864,4.1047,4.1163,4.1307,4.1448,4.1582,4.1732,4.1819,4.1923,4.1984,4.1987,4.203,4.2051,4.2051,4.21,4.2121,4.2202,4.2246,4.2284,4.2178,4.2026,4.2051,4.2009,4.2009,4.2051,4.203,4.2048,4.2026,4.1987,4.1945,4.1923,4.1884,4.1902,4.1902,4.1923,4.1923,4.188,4.1815,4.1692,4.1626,4.1538,4.1471,4.1386,4.1346,4.1346,4.1323,4.1318,4.1272,4.118,4.1163,4.1157,4.1129,4.107,4.1047,4.0959,4.0912,4.0894,4.0864,4.0864,4.084,4.0769,4.068,4.0631,4.0583,4.0485,4.0436,4.0412,4.0387,4.0419,4.037,4.0271,4.0178,3.9399,3.8468,3.7567,3.6564,3.596,3.5885,3.5888,3.5932,3.6019,3.5997,3.5997,3.598,3.6023,3.6084,3.6084,3.5975,3.5954,3.5954,3.5866,3.5734,3.5667,3.5577,3.5481,3.5389,3.5258,3.5095,3.4923,3.4804,3.4715,3.4594,3.4472,3.4308,4.0113,4.0113,4.0113,4.0113,4.0113,4.0113,4.0163,4.0238,4.0362,4.06,4.0881,4.1023,4.1192,4.1375,4.1488,4.1626,4.1819,4.1902,4.1987,4.2034,4.2076,4.2118,4.2139,4.2181,4.2261,4.2305,4.2346,4.2369,4.247,4.247,4.245,4.2348,4.2222,4.2202,4.2181,4.2181,4.2181,4.2181,4.2199,4.2139,4.2058,4.2055,4.2034,4.1987,4.2005,4.2005,4.1984,4.2005,4.1966,4.1923,4.1862,4.1797,4.1754,4.167,4.1648,4.1648,4.1626,4.1648,4.1582,4.1391,4.1209,4.1209,4.118,4.1152,4.1117,4.1047,4.0959,4.0935,4.0894,4.0894,4.0871,4.0864,4.0817,4.0793,4.0728,4.0655,4.0607,4.0583,4.0558,4.0558,4.0493,4.0444,4.0375,4.0205,3.9218,3.821,3.7189,3.6312,3.6195,3.6105,3.6127,3.611,3.611,3.6131,3.6131,3.6152,3.6174,3.617,3.6144,3.6127,3.6105,3.5997,3.5888,3.5844,3.5822,3.5773,3.5728,3.5706,3.5526,3.5228,3.5088,3.5018,3.4875,3.4691,3.4546,4.0113,4.0113,4.0113,4.0113,4.0113,4.0121,4.0213,4.033,4.0485,4.0769,4.1093,4.121,4.1358,4.156,4.171,4.1819,4.197,4.2051,4.2097,4.216,4.2222,4.2284,4.2346,4.2369,4.2427,4.2526,4.2526,4.253,4.257,4.2589,4.257,4.253,4.247,4.2409,4.2371,4.2389,4.2389,4.2389,4.2366,4.2325,4.2243,4.2184,4.2142,4.2115,4.2115,4.2115,4.2115,4.2136,4.2097,4.2076,4.2051,4.2012,4.2009,4.2026,4.2005,4.2005,4.2005,4.2005,4.188,4.167,4.1368,4.1363,4.1277,4.1226,4.1192,4.114,4.1047,4.0982,4.0935,4.0894,4.0894,4.0888,4.0888,4.0823,4.0823,4.0752,4.0728,4.0728,4.0704,4.068,4.0655,4.0638,4.045,4.0295,3.9435,3.8488,3.7609,3.6744,3.6273,3.6212,3.6233,3.6237,3.6241,3.6262,3.6284,3.6241,3.6237,3.6237,3.6233,3.6233,3.6191,3.6105,3.6079,3.6036,3.6014,3.6036,3.5971,3.5866,3.5667,3.5458,3.5321,3.5222,3.5128,3.497,3.4851,4.0113,4.0113,4.0113,4.0113,4.0138,4.0238,4.0305,4.0355,4.06,4.0864,4.1163,4.1403,4.156,4.167,4.1841,4.2012,4.21,4.2121,4.2184,4.2305,4.2387,4.2465,4.2488,4.2528,4.255,4.2589,4.2609,4.2627,4.2629,4.2668,4.2649,4.2649,4.2629,4.2589,4.2571,4.2589,4.2589,4.2588,4.2508,4.2465,4.2445,4.2348,4.2325,4.2305,4.2287,4.2287,4.2305,4.2305,4.2287,4.2267,4.2205,4.2163,4.216,4.2111,4.2069,4.2048,4.203,4.2009,4.1966,4.1841,4.1714,4.1582,4.1453,4.138,4.1353,4.1256,4.1093,4.1029,4.0959,4.0894,4.0894,4.0894,4.0894,4.0871,4.0847,4.0847,4.0823,4.084,4.0776,4.0776,4.0823,4.0836,4.0595,4.0244,3.9502,3.8688,3.7947,3.7262,3.6659,3.6297,3.6297,3.628,3.6284,3.6284,3.6284,3.6284,3.6284,3.6301,3.628,3.628,3.6259,3.6237,3.6212,3.6187,3.6165,3.6148,3.6084,3.5997,3.5844,3.5706,3.5503,3.5383,3.5314,3.5245,3.5111,4.0113,4.0113,4.0113,4.0163,4.0213,4.028,4.0355,4.0468,4.0793,4.1076,4.1307,4.1515,4.1732,4.188,4.1991,4.2121,4.2225,4.2343,4.2405,4.2425,4.2528,4.253,4.257,4.2609,4.2649,4.2707,4.2745,4.2765,4.2787,4.2786,4.2786,4.2805,4.2767,4.2728,4.2649,4.2609,4.2609,4.2589,4.2588,4.2568,4.255,4.251,4.249,4.249,4.2472,4.2472,4.247,4.247,4.247,4.2452,4.2391,4.2389,4.2366,4.232,4.2299,4.2222,4.2184,4.2142,4.2079,4.1995,4.1931,4.1758,4.1604,4.1493,4.142,4.1267,4.1152,4.1076,4.0982,4.0935,4.0894,4.0894,4.0894,4.0894,4.0871,4.0871,4.0871,4.0871,4.0871,4.0847,4.0894,4.0894,4.0756,4.0618,3.9945,3.9221,3.8525,3.787,3.7249,3.6594,3.6297,3.6301,3.6284,3.6284,3.6284,3.6284,3.6284,3.6284,3.6284,3.6284,3.6284,3.6284,3.6262,3.6237,3.6255,3.6255,3.6191,3.6127,3.6084,3.5971,3.5795,3.5616,3.5526,3.5481,3.5373,4.0113,4.0096,4.0163,4.023,4.0305,4.0355,4.0485,4.0728,4.1012,4.1244,4.1471,4.1648,4.1823,4.2012,4.2121,4.2246,4.2366,4.2445,4.2506,4.2564,4.2627,4.2667,4.2668,4.2707,4.2767,4.2823,4.2823,4.2843,4.2863,4.29,4.29,4.29,4.29,4.2824,4.2747,4.2709,4.2728,4.2709,4.2707,4.2686,4.2667,4.2629,4.2589,4.2589,4.2589,4.2589,4.2609,4.2609,4.2609,4.2609,4.2589,4.257,4.2548,4.2526,4.2488,4.243,4.2348,4.2325,4.2264,4.2121,4.2016,4.1884,4.1736,4.1604,4.1471,4.1295,4.1203,4.1105,4.0989,4.0935,4.0894,4.0894,4.0894,4.0894,4.0894,4.0894,4.0894,4.0894,4.0894,4.0894,4.0894,4.0894,4.0894,4.0825,4.0543,3.9836,3.9112,3.853,3.7927,3.7232,3.6697,3.668,3.6508,3.6439,3.6387,3.6284,3.6284,3.6284,3.6408,3.655,3.6284,3.6284,3.6284,3.6284,3.628,3.6297,3.6297,3.6255,3.6212,3.617,3.6127,3.5954,3.5778,3.5689,3.5644,4.0113,4.0121,4.0238,4.0305,4.0337,4.0485,4.0769,4.1093,4.1198,4.1363,4.1609,4.188,4.2012,4.21,4.2228,4.2366,4.2465,4.2506,4.2566,4.2647,4.2745,4.2783,4.2804,4.2861,4.2862,4.2881,4.29,4.2881,4.2919,4.2919,4.2919,4.2919,4.2919,4.2881,4.2862,4.2844,4.2844,4.2824,4.2786,4.2785,4.2765,4.2707,4.267,4.265,4.2668,4.2668,4.2668,4.265,4.2668,4.2649,4.2629,4.2611,4.2609,4.2609,4.2609,4.2588,4.2526,4.2483,4.2425,4.2243,4.2097,4.1948,4.1862,4.1736,4.1542,4.1346,4.1209,4.1134,4.1012,4.0942,4.0894,4.0894,4.0894,4.0894,4.0894,4.0894,4.0894,4.0894,4.0894,4.0894,4.0894,4.0894,4.0894,4.086,4.0825,4.0515,3.9911,3.9583,3.891,3.7996,3.7542,3.7422,3.7163,3.6701,3.665,3.6878,3.7045,3.7292,3.7045,3.7063,3.6709,3.6571,3.6717,3.6734,3.6446,3.6318,3.6318,3.6301,3.6262,3.628,3.6272,3.617,3.5954,3.5954,3.5888,4.0163,4.0255,4.028,4.0404,4.06,4.084,4.1012,4.118,4.1386,4.1565,4.1758,4.1973,4.2061,4.2103,4.2325,4.2463,4.2544,4.2625,4.2706,4.2783,4.2823,4.2861,4.2899,4.29,4.2919,4.2919,4.2919,4.2919,4.2919,4.2919,4.2919,4.2919,4.2919,4.2919,4.2919,4.2919,4.2919,4.29,4.2862,4.2862,4.288,4.2805,4.2786,4.2786,4.2786,4.2786,4.2786,4.2786,4.2805,4.2805,4.2805,4.2786,4.2727,4.2745,4.2725,4.2609,4.2546,4.2503,4.2465,4.2346,4.2163,4.203,4.1945,4.1797,4.1604,4.1386,4.1232,4.114,4.1018,4.0918,4.0894,4.0894,4.0894,4.0894,4.0894,4.0894,4.0894,4.0894,4.0894,4.0894,4.0894,4.0894,4.0894,4.0894,4.086,4.0825,4.067,4.0359,3.9842,3.891,3.8415,3.8276,3.7966,3.7556,3.7824,3.8127,3.8209,3.8287,3.7966,3.781,3.7883,3.7745,3.7505,3.7293,3.7126,3.673,3.6318,3.6443,3.6826,3.6422,3.6366,3.6268,3.6187,3.6182,3.6118,4.0213,4.0305,4.0412,4.06,4.0881,4.1099,4.1267,4.1386,4.1538,4.1692,4.1884,4.2037,4.2145,4.2284,4.2425,4.2544,4.2645,4.2743,4.2803,4.2861,4.2881,4.29,4.29,4.2919,4.2919,4.2919,4.2919,4.2919,4.2919,4.2919,4.2919,4.2919,4.2919,4.2919,4.2919,4.2919,4.2919,4.2919,4.29,4.2919,4.2919,4.2919,4.2919,4.2919,4.2919,4.2919,4.2919,4.2919,4.2919,4.2919,4.2919,4.2881,4.2842,4.2823,4.2823,4.2727,4.2607,4.2566,4.2526,4.2387,4.2202,4.2051,4.2005,4.1858,4.1626,4.1368,4.1255,4.1163,4.1018,4.0894,4.0894,4.0894,4.0894,4.0894,4.0894,4.0894,4.0894,4.0894,4.0894,4.0894,4.0894,4.0894,4.0894,4.0894,4.0894,4.0877,4.0884,4.0803,4.0348,3.9675,3.9283,3.9133,3.8827,3.8503,3.8881,3.9085,3.899,3.8873,3.8681,3.8612,3.8903,3.8759,3.8338,3.809,3.7912,3.755,3.7296,3.7353,3.7543,3.7176,3.6913,3.6866,3.6702,3.641,3.6311,4.033,4.0379,4.0624,4.0864,4.114,4.133,4.1493,4.1604,4.1648,4.1797,4.1991,4.21,4.2267,4.2443,4.2544,4.2645,4.2725,4.2803,4.2861,4.2919,4.29,4.2919,4.2919,4.2919,4.2919,4.2919,4.2919,4.2919,4.2919,4.2919,4.2919,4.2919,4.2919,4.2919,4.2919,4.2919,4.2919,4.2919,4.2919,4.2919,4.2919,4.2919,4.2919,4.2919,4.2919,4.2919,4.2919,4.2919,4.2919,4.2919,4.2919,4.2919,4.29,4.29,4.29,4.2824,4.2688,4.2609,4.2548,4.2409,4.2202,4.2072,4.2005,4.1858,4.1626,4.1346,4.1214,4.1163,4.1018,4.0918,4.0894,4.0894,4.0894,4.0894,4.0894,4.0894,4.0894,4.0894,4.0894,4.0894,4.0894,4.0894,4.0894,4.0894,4.0894,4.0894,4.0894,4.0959,4.0816,4.0274,4.0112,3.995,3.9799,3.9567,3.9638,3.9752,3.9565,3.9412,3.9417,3.9521,3.9883,3.9578,3.9116,3.8763,3.8467,3.8672,3.8612,3.846,3.8309,3.827,3.8005,3.7694,3.7374,3.7047,3.6534,4.0527,4.0624,4.0905,4.114,4.1312,4.1493,4.1626,4.1776,4.1931,4.2016,4.21,4.2284,4.2425,4.2503,4.2645,4.2745,4.2783,4.2842,4.2863,4.29,4.2919,4.2919,4.2919,4.2919,4.2919,4.2919,4.2919,4.2919,4.2919,4.2919,4.2919,4.2919,4.2919,4.2919,4.2919,4.2919,4.2919,4.2919,4.2919,4.2919,4.2919,4.2919,4.2919,4.2919,4.2919,4.2919,4.2919,4.2919,4.2919,4.2919,4.2919,4.2919,4.2919,4.2919,4.2919,4.2881,4.2727,4.2629,4.255,4.2409,4.2222,4.2072,4.1966,4.1837,4.1626,4.1346,4.1169,4.1117,4.1065,4.0965,4.0894,4.0894,4.0894,4.0894,4.0894,4.0894,4.0894,4.0894,4.0894,4.0894,4.0894,4.0894,4.0894,4.0894,4.0894,4.0894,4.0894,4.0935,4.1047,4.0799,4.0804,4.0706,4.0815,4.0687,4.0642,4.0552,4.0421,4.0587,4.0714,4.0801,4.0832,4.0486,4.0048,3.9346,3.9006,3.9373,3.9456,3.9003,3.8925,3.9147,3.8925,3.8581,3.8377,3.8096,3.7288,4.0655,4.084,4.1099,4.133,4.1493,4.1626,4.178,4.1952,4.204,4.2163,4.2267,4.2425,4.2524,4.2566,4.2725,4.2804,4.2842,4.2863,4.2882,4.29,4.2919,4.2919,4.2919,4.2919,4.2919,4.2919,4.2919,4.2919,4.2919,4.2919,4.2919,4.2919,4.2919,4.2919,4.2919,4.2919,4.2919,4.2919,4.2919,4.2919,4.2919,4.2919,4.2919,4.2919,4.2919,4.2919,4.2919,4.2919,4.2919,4.2919,4.2919,4.2919,4.2919,4.2919,4.2919,4.2862,4.2728,4.2609,4.255,4.2409,4.2222,4.2072,4.2005,4.188,4.1626,4.1368,4.1214,4.114,4.0995,4.0894,4.0894,4.0894,4.0894,4.0894,4.0894,4.0894,4.0894,4.0894,4.0894,4.0894,4.0894,4.0894,4.0894,4.0894,4.0894,4.0935,4.0935,4.1012,4.1099,4.121,4.1244,4.1318,4.1323,4.1413,4.1336,4.135,4.1367,4.1604,4.1732,4.1613,4.1402,4.13,4.0961,4.0414,4.0157,4.0381,4.0302,3.9918,4.001,4.0336,3.9921,3.9381,3.925,3.9101,3.8394,4.084,4.0989,4.1312,4.1515,4.1648,4.178,4.1913,4.2082,4.2163,4.2267,4.2465,4.2524,4.2568,4.2647,4.2764,4.2842,4.2881,4.29,4.2919,4.2919,4.2919,4.2919,4.2919,4.2919,4.2919,4.2919,4.2919,4.2919,4.2919,4.2919,4.2919,4.2919,4.2919,4.2919,4.2919,4.2919,4.2919,4.2919,4.2919,4.2919,4.2919,4.2919,4.2919,4.2919,4.2919,4.2919,4.2919,4.2919,4.2919,4.2919,4.2919,4.2919,4.2919,4.2919,4.2881,4.2843,4.2727,4.2609,4.253,4.2389,4.2202,4.2051,4.2009,4.188,4.1604,4.1391,4.1255,4.114,4.0995,4.0894,4.0894,4.0894,4.0894,4.0894,4.0894,4.0894,4.0894,4.0894,4.0894,4.0894,4.0894,4.0894,4.0894,4.0894,4.0935,4.0935,4.1006,4.1129,4.1221,4.1312,4.1363,4.1453,4.152,4.1648,4.1776,4.1841,4.1841,4.1858,4.188,4.1945,4.1931,4.1711,4.1615,4.1664,4.1511,4.1309,4.1297,4.1069,4.1248,4.1238,4.0812,4.0257,4.0182,3.9941,3.951,4.114,4.1312,4.1493,4.1648,4.178,4.1973,4.2061,4.2124,4.2325,4.2463,4.2544,4.2685,4.2745,4.2764,4.2861,4.29,4.29,4.2919,4.2919,4.2919,4.2919,4.2919,4.2919,4.2919,4.2919,4.2919,4.2919,4.2919,4.2919,4.2919,4.2919,4.2919,4.2919,4.2919,4.2919,4.2919,4.2919,4.2919,4.2919,4.2919,4.2919,4.2919,4.2919,4.2919,4.2919,4.2919,4.2919,4.2919,4.2919,4.2919,4.2919,4.2919,4.2919,4.29,4.2881,4.2823,4.2688,4.2588,4.2488,4.2348,4.2181,4.203,4.1966,4.1858,4.1604,4.1346,4.1232,4.1163,4.1041,4.0918,4.0894,4.0894,4.0894,4.0894,4.0894,4.0894,4.0894,4.0894,4.0894,4.0894,4.0894,4.0894,4.0894,4.0912,4.0959,4.1,4.1053,4.1169,4.1312,4.1386,4.1498,4.1604,4.1692,4.1754,4.1819,4.1966,4.1987,4.1987,4.203,4.2115,4.2115,4.1987,4.1966,4.197,4.1966,4.1778,4.1801,4.1732,4.1631,4.1494,4.1378,4.1113,4.1026,4.0807,4.0334]}]]